[[{"header":{"parameterUnit":"m.s-1","parameterCategory":1,"la1":30.6,"la2":29.2853,"lo1":-89.7004,"lo2":-87.6739,"dy":0.0162,"dx":0.0183,"nx":112,"ny":82,"refTime":"2025-05-14T12:00:00:Z","depth":0,"parameterNumber":2,"parameterNumberName":"U-component_of_WINDS"},"data":[0.0,0.0,0.0,0.0,0.0,0.0,0.0,0.0,0.0,0.0,0.0,0.0,0.0,0.0,0.0,0.0,0.0,0.0,0.0,0.0,0.0,0.0,0.0,0.0,0.0,0.0,0.0,0.0,0.0,0.0,0.0,0.0,0.0,0.0,0.0,0.0,0.0,0.0,0.0,0.0,0.0,0.0,0.0,0.0,0.0,0.0,0.0,0.0,0.0,0.0,0.0,0.0,0.0,0.0,0.0,0.0,0.0,0.0,0.0,0.0,0.0,0.0,0.0,0.0,0.0,0.0,0.0,0.0,0.0,0.0,0.0,0.0,0.0,0.0,0.0,0.0,0.0,0.0,0.0,0.0,0.0,0.0,0.0,0.0,0.0,0.0,0.0,0.0,0.0,0.0,-2.5875,-2.6853,-2.6783,-2.6547,-2.617,-2.5265,-2.4567,-2.4209,0.0,0.0,0.0,0.0,0.0,0.0,0.0,0.0,0.0,0.0,0.0,0.0,0.0,0.0,0.0,0.0,0.0,0.0,0.0,0.0,0.0,0.0,0.0,0.0,0.0,0.0,0.0,0.0,0.0,0.0,0.0,0.0,0.0,0.0,0.0,0.0,0.0,0.0,0.0,0.0,0.0,0.0,0.0,0.0,0.0,0.0,0.0,0.0,0.0,0.0,0.0,0.0,0.0,0.0,0.0,0.0,0.0,0.0,0.0,0.0,0.0,0.0,0.0,0.0,0.0,0.0,0.0,0.0,0.0,0.0,0.0,0.0,0.0,0.0,0.0,0.0,0.0,0.0,0.0,0.0,0.0,0.0,0.0,0.0,0.0,0.0,0.0,0.0,0.0,0.0,0.0,0.0,0.0,0.0,0.0,0.0,0.0,0.0,0.0,0.0,0.0,0.0,0.0,0.0,-2.6913,-2.8306,-2.8425,-2.7971,-2.6866,-2.5984,-2.5143,-2.4246,0.0,0.0,0.0,0.0,0.0,0.0,0.0,0.0,0.0,0.0,0.0,0.0,0.0,0.0,0.0,0.0,0.0,0.0,0.0,0.0,0.0,0.0,0.0,0.0,0.0,0.0,0.0,0.0,0.0,0.0,0.0,0.0,0.0,0.0,0.0,0.0,0.0,0.0,0.0,0.0,0.0,0.0,0.0,0.0,0.0,0.0,0.0,0.0,0.0,0.0,0.0,0.0,0.0,0.0,0.0,0.0,0.0,0.0,0.0,0.0,0.0,0.0,0.0,0.0,0.0,0.0,0.0,0.0,0.0,0.0,0.0,0.0,0.0,0.0,0.0,0.0,0.0,0.0,0.0,0.0,0.0,0.0,0.0,0.0,0.0,0.0,0.0,0.0,0.0,0.0,0.0,0.0,0.0,0.0,0.0,0.0,0.0,0.0,0.0,0.0,0.0,0.0,0.0,-2.6582,-2.7901,-2.9519,-2.9129,-2.8327,-2.7198,-2.6258,-2.5291,-2.4246,-2.2694,0.0,0.0,0.0,0.0,0.0,0.0,0.0,0.0,0.0,0.0,0.0,0.0,0.0,0.0,0.0,0.0,0.0,0.0,0.0,0.0,0.0,0.0,0.0,0.0,0.0,0.0,0.0,0.0,0.0,0.0,0.0,0.0,0.0,0.0,0.0,0.0,0.0,0.0,0.0,0.0,0.0,0.0,0.0,0.0,0.0,0.0,0.0,0.0,0.0,0.0,0.0,0.0,0.0,0.0,0.0,0.0,0.0,0.0,0.0,0.0,0.0,0.0,0.0,0.0,0.0,0.0,0.0,0.0,0.0,0.0,0.0,0.0,0.0,0.0,0.0,0.0,0.0,0.0,0.0,0.0,0.0,0.0,0.0,0.0,0.0,0.0,0.0,0.0,0.0,0.0,0.0,0.0,0.0,0.0,0.0,0.0,0.0,0.0,0.0,0.0,0.0,0.0,-2.8088,-2.8725,-3.0138,-2.9542,-2.8601,-2.7565,-2.6511,-2.5495,-2.4539,-2.2804,0.0,0.0,0.0,0.0,0.0,0.0,0.0,0.0,0.0,0.0,0.0,0.0,0.0,0.0,0.0,0.0,0.0,0.0,0.0,0.0,0.0,0.0,0.0,0.0,0.0,0.0,0.0,0.0,0.0,0.0,0.0,0.0,0.0,0.0,0.0,0.0,0.0,0.0,0.0,0.0,0.0,0.0,0.0,0.0,0.0,0.0,0.0,0.0,0.0,0.0,0.0,0.0,0.0,0.0,0.0,0.0,0.0,0.0,0.0,0.0,0.0,0.0,0.0,0.0,0.0,0.0,0.0,0.0,0.0,0.0,0.0,0.0,0.0,0.0,0.0,0.0,0.0,0.0,0.0,0.0,0.0,0.0,0.0,0.0,0.0,0.0,0.0,0.0,0.0,0.0,0.0,0.0,0.0,0.0,0.0,0.0,0.0,0.0,0.0,0.0,0.0,0.0,-2.8549,-2.9294,-2.9966,-2.9807,-2.921,-2.8119,-2.7103,-2.6193,-2.5374,-2.3098,0.0,0.0,0.0,0.0,0.0,0.0,0.0,0.0,0.0,0.0,0.0,0.0,0.0,0.0,0.0,0.0,0.0,0.0,0.0,0.0,0.0,0.0,0.0,0.0,0.0,0.0,0.0,0.0,0.0,0.0,0.0,0.0,0.0,0.0,0.0,0.0,0.0,0.0,0.0,0.0,0.0,0.0,0.0,0.0,0.0,0.0,0.0,0.0,0.0,0.0,0.0,0.0,0.0,0.0,0.0,0.0,0.0,0.0,0.0,0.0,0.0,0.0,0.0,0.0,0.0,0.0,0.0,0.0,0.0,0.0,0.0,0.0,0.0,0.0,0.0,0.0,0.0,0.0,0.0,0.0,0.0,0.0,0.0,0.0,0.0,0.0,0.0,0.0,0.0,0.0,0.0,0.0,0.0,0.0,0.0,0.0,0.0,0.0,0.0,0.0,0.0,0.0,-2.8588,-2.9406,0.0,-3.0013,-2.929,-2.7734,-2.7112,-2.6179,-2.4723,0.0,0.0,0.0,0.0,0.0,0.0,0.0,0.0,0.0,0.0,0.0,0.0,0.0,0.0,0.0,0.0,0.0,0.0,0.0,0.0,0.0,0.0,0.0,0.0,0.0,0.0,0.0,0.0,0.0,0.0,0.0,0.0,0.0,0.0,0.0,0.0,0.0,0.0,0.0,0.0,0.0,0.0,0.0,0.0,0.0,0.0,0.0,0.0,0.0,0.0,0.0,0.0,0.0,0.0,0.0,0.0,0.0,0.0,0.0,0.0,0.0,0.0,0.0,0.0,0.0,0.0,0.0,0.0,0.0,0.0,0.0,0.0,0.0,0.0,0.0,0.0,0.0,0.0,0.0,0.0,0.0,0.0,0.0,0.0,0.0,0.0,0.0,0.0,0.0,0.0,0.0,0.0,0.0,0.0,0.0,0.0,0.0,0.0,0.0,0.0,0.0,0.0,-2.778,-2.8852,-2.9737,0.0,-3.0102,-2.93,-2.7826,-2.7147,-2.605,-2.4319,0.0,0.0,0.0,0.0,0.0,0.0,0.0,0.0,0.0,0.0,0.0,0.0,0.0,0.0,0.0,0.0,0.0,0.0,0.0,0.0,0.0,0.0,0.0,0.0,0.0,0.0,0.0,0.0,0.0,0.0,0.0,0.0,0.0,0.0,0.0,0.0,0.0,0.0,0.0,0.0,0.0,0.0,0.0,0.0,0.0,0.0,0.0,0.0,0.0,0.0,0.0,0.0,0.0,0.0,0.0,0.0,0.0,0.0,0.0,0.0,0.0,0.0,0.0,0.0,0.0,0.0,0.0,0.0,0.0,0.0,0.0,0.0,0.0,0.0,0.0,0.0,0.0,0.0,0.0,0.0,0.0,0.0,0.0,0.0,0.0,0.0,0.0,0.0,0.0,0.0,0.0,0.0,0.0,0.0,0.0,0.0,0.0,0.0,0.0,0.0,0.0,0.0,-2.778,-2.9352,-3.0385,-3.0379,-2.9985,-2.9355,-2.855,-2.7315,-2.5915,0.0,0.0,0.0,0.0,0.0,0.0,0.0,0.0,0.0,0.0,0.0,0.0,0.0,0.0,0.0,0.0,0.0,0.0,0.0,0.0,0.0,0.0,0.0,0.0,0.0,0.0,0.0,0.0,0.0,0.0,0.0,0.0,0.0,0.0,0.0,0.0,0.0,0.0,0.0,0.0,0.0,0.0,0.0,0.0,0.0,0.0,0.0,0.0,0.0,0.0,0.0,0.0,0.0,0.0,0.0,0.0,0.0,0.0,0.0,0.0,0.0,0.0,0.0,0.0,0.0,0.0,0.0,0.0,0.0,0.0,0.0,0.0,0.0,0.0,0.0,0.0,0.0,0.0,0.0,0.0,0.0,0.0,0.0,0.0,0.0,0.0,0.0,0.0,0.0,0.0,0.0,0.0,0.0,0.0,0.0,0.0,0.0,0.0,0.0,0.0,0.0,0.0,0.0,-2.778,-2.9352,-3.0343,-3.0143,-2.9345,-2.8445,-2.7462,-2.6393,-2.5071,-2.3456,0.0,0.0,0.0,0.0,0.0,0.0,0.0,0.0,0.0,0.0,0.0,0.0,0.0,0.0,0.0,0.0,0.0,0.0,0.0,0.0,0.0,0.0,0.0,0.0,0.0,0.0,0.0,0.0,0.0,0.0,0.0,0.0,0.0,0.0,0.0,0.0,0.0,0.0,0.0,0.0,0.0,0.0,0.0,0.0,0.0,0.0,0.0,0.0,0.0,0.0,0.0,0.0,0.0,0.0,0.0,0.0,0.0,0.0,0.0,0.0,0.0,0.0,0.0,0.0,0.0,0.0,0.0,0.0,0.0,0.0,0.0,0.0,0.0,0.0,0.0,0.0,0.0,0.0,0.0,0.0,0.0,0.0,0.0,0.0,0.0,0.0,0.0,0.0,0.0,0.0,0.0,0.0,0.0,0.0,0.0,0.0,0.0,0.0,0.0,0.0,0.0,0.0,-2.7703,-2.9044,-2.9793,-2.9546,-2.8905,-2.7947,-2.6551,-2.5799,-2.4566,-2.2648,0.0,0.0,0.0,0.0,0.0,0.0,0.0,0.0,0.0,0.0,0.0,0.0,0.0,0.0,0.0,0.0,0.0,0.0,0.0,0.0,0.0,0.0,0.0,0.0,0.0,0.0,0.0,0.0,0.0,0.0,0.0,0.0,0.0,0.0,0.0,0.0,0.0,0.0,0.0,0.0,0.0,0.0,0.0,0.0,0.0,0.0,0.0,0.0,0.0,0.0,0.0,0.0,0.0,0.0,0.0,0.0,0.0,0.0,0.0,0.0,0.0,0.0,0.0,0.0,0.0,0.0,0.0,0.0,0.0,0.0,0.0,0.0,0.0,0.0,0.0,0.0,0.0,0.0,0.0,0.0,0.0,0.0,0.0,0.0,0.0,0.0,0.0,0.0,0.0,0.0,0.0,0.0,0.0,0.0,0.0,0.0,0.0,0.0,0.0,0.0,0.0,0.0,-2.7588,-2.8588,-2.9031,-2.8789,-2.8525,-2.7646,-2.5824,-2.542,-2.4309,-2.2033,0.0,0.0,0.0,0.0,0.0,0.0,0.0,0.0,0.0,0.0,0.0,0.0,0.0,0.0,0.0,0.0,0.0,0.0,0.0,0.0,0.0,0.0,0.0,0.0,0.0,0.0,0.0,0.0,0.0,0.0,0.0,0.0,0.0,0.0,0.0,0.0,0.0,0.0,0.0,0.0,0.0,0.0,0.0,0.0,0.0,0.0,0.0,0.0,0.0,0.0,0.0,0.0,0.0,0.0,0.0,0.0,0.0,0.0,0.0,0.0,-2.7582,-2.6428,0.0,0.0,0.0,0.0,0.0,0.0,0.0,0.0,0.0,0.0,0.0,0.0,0.0,0.0,0.0,0.0,0.0,0.0,0.0,0.0,0.0,0.0,0.0,0.0,0.0,0.0,0.0,0.0,0.0,0.0,0.0,0.0,0.0,0.0,0.0,0.0,0.0,0.0,0.0,0.0,-2.7588,-2.8588,-2.895,-2.8594,-2.7956,-2.6985,-2.5586,-2.4826,-2.3969,-2.2832,-2.1502,0.0,0.0,0.0,0.0,0.0,0.0,0.0,0.0,0.0,0.0,0.0,0.0,0.0,0.0,0.0,0.0,0.0,0.0,0.0,0.0,0.0,0.0,0.0,0.0,0.0,0.0,0.0,0.0,0.0,0.0,0.0,0.0,0.0,0.0,0.0,0.0,0.0,0.0,0.0,0.0,0.0,0.0,0.0,0.0,0.0,0.0,0.0,0.0,0.0,0.0,0.0,0.0,0.0,0.0,0.0,0.0,0.0,0.0,0.0,-2.8929,-2.8044,0.0,0.0,0.0,0.0,0.0,0.0,0.0,0.0,0.0,0.0,0.0,0.0,0.0,0.0,0.0,0.0,0.0,0.0,0.0,0.0,0.0,0.0,0.0,0.0,0.0,0.0,0.0,0.0,0.0,0.0,0.0,0.0,0.0,0.0,0.0,0.0,0.0,0.0,0.0,0.0,-2.7511,-2.789,-2.7897,-2.7933,-2.7168,-2.6164,-2.4946,-2.4456,-2.3859,-2.3043,-2.2199,0.0,0.0,0.0,0.0,0.0,0.0,0.0,0.0,0.0,0.0,0.0,0.0,0.0,0.0,0.0,0.0,0.0,0.0,0.0,0.0,0.0,0.0,0.0,0.0,0.0,0.0,0.0,0.0,0.0,0.0,0.0,0.0,0.0,0.0,0.0,0.0,0.0,0.0,0.0,0.0,0.0,0.0,0.0,0.0,0.0,0.0,0.0,0.0,0.0,0.0,0.0,0.0,0.0,-3.168,-3.1731,-3.1731,-3.1423,-3.1769,-3.2468,-3.0743,-3.0237,-3.05,-2.8967,0.0,0.0,0.0,0.0,0.0,0.0,0.0,0.0,0.0,0.0,0.0,0.0,0.0,0.0,0.0,0.0,0.0,0.0,0.0,0.0,0.0,0.0,-2.6813,-2.6813,-2.739,-2.7505,-2.6077,0.0,0.0,0.0,0.0,0.0,0.0,0.0,0.0,0.0,0.0,0.0,-2.7274,-2.7044,-2.6703,-2.7025,-2.6443,-2.5509,-2.4311,-2.419,-2.3933,-2.3263,-2.3079,-2.2089,0.0,0.0,0.0,0.0,0.0,0.0,0.0,0.0,0.0,0.0,0.0,0.0,0.0,0.0,0.0,0.0,0.0,0.0,0.0,0.0,0.0,0.0,0.0,0.0,0.0,0.0,0.0,0.0,0.0,0.0,0.0,0.0,-2.9023,-2.8398,0.0,0.0,0.0,0.0,0.0,0.0,0.0,0.0,0.0,0.0,0.0,0.0,0.0,-3.2261,-3.2766,-3.4266,-3.534,-3.5985,-3.6659,-3.7007,-3.6969,-3.55,-3.5269,-3.5962,-3.4276,0.0,-3.1468,-3.0462,0.0,0.0,0.0,0.0,0.0,0.0,0.0,0.0,0.0,0.0,0.0,0.0,0.0,0.0,0.0,0.0,0.0,0.0,0.0,0.0,0.0,0.0,-2.7736,-2.7736,-2.7818,-2.7857,-2.7621,-2.6274,-2.4889,-2.4086,-2.3201,-2.2586,0.0,0.0,0.0,0.0,0.0,0.0,-2.6544,-2.6659,-2.6473,-2.6208,-2.605,-2.5509,-2.4311,-2.419,-2.4153,-2.4043,-2.3373,-2.2859,-2.2529,-2.0556,0.0,0.0,0.0,0.0,0.0,0.0,0.0,0.0,0.0,0.0,0.0,0.0,0.0,0.0,0.0,0.0,0.0,0.0,0.0,0.0,0.0,0.0,0.0,0.0,0.0,0.0,0.0,0.0,0.0,-2.9531,-3.0351,-3.0469,-3.0078,-2.9414,0.0,0.0,0.0,0.0,0.0,0.0,0.0,0.0,0.0,-3.2305,-3.4101,-3.5185,-3.5371,-3.655,-3.7263,-3.7488,-3.7851,-3.8007,-3.7969,-3.7238,-3.6808,-3.6654,-3.593,-3.493,-3.3731,-3.2385,-3.1314,-3.0467,0.0,0.0,0.0,0.0,-2.9429,-2.8703,-2.9698,-2.9467,-2.8731,-2.8621,0.0,0.0,0.0,0.0,0.0,0.0,0.0,-2.7313,-2.7313,-2.7934,-2.8588,-2.8588,-2.8967,-2.9159,-2.8665,-2.7967,-2.6928,-2.512,-2.4086,-2.3394,-2.2893,-2.2816,0.0,0.0,0.0,-2.4702,-2.639,-2.6154,-2.5893,-2.5981,-2.5597,-2.5014,-2.4274,-2.419,-2.419,-2.419,-2.3859,-2.3483,-2.3006,-2.1951,-2.0703,0.0,0.0,0.0,0.0,0.0,0.0,0.0,0.0,0.0,0.0,0.0,0.0,0.0,0.0,0.0,0.0,0.0,0.0,0.0,0.0,0.0,0.0,0.0,0.0,0.0,0.0,0.0,0.0,-3.0703,-3.1719,-3.2148,-3.1797,-3.1133,0.0,0.0,0.0,0.0,0.0,0.0,-3.2461,-3.3711,-3.4492,-3.4726,-3.6601,-3.7641,-3.7665,-3.8326,-3.8641,-3.8623,-3.8623,-3.8623,-3.8623,-3.843,-3.7853,-3.7,-3.6808,-3.6231,-3.5385,-3.3853,-3.2891,-3.2237,-3.1385,-3.066,-3.0242,-3.1545,-3.1198,-3.0281,-3.1545,-3.1468,-3.0615,-2.9967,-2.9473,-2.8857,-2.7621,0.0,0.0,0.0,0.0,-2.7934,-2.8165,-2.8665,-2.9165,-2.939,-2.9929,-3.0231,-2.9583,-2.928,-2.8396,-2.6077,-2.5159,-2.4471,-2.3581,-2.3428,0.0,-2.4317,0.0,-2.4856,-2.612,-2.5692,-2.5406,-2.5698,-2.5173,-2.4654,-2.4331,-2.4228,-2.419,-2.419,-2.419,-2.3933,-2.3336,-2.3116,-2.2024,-1.9976,0.0,0.0,0.0,0.0,0.0,0.0,0.0,0.0,0.0,0.0,0.0,0.0,0.0,0.0,0.0,0.0,0.0,0.0,0.0,0.0,0.0,0.0,0.0,0.0,0.0,0.0,0.0,0.0,0.0,-3.2305,-3.2851,0.0,0.0,0.0,0.0,-3.3086,-3.3203,-3.4297,-3.6836,-3.707,-3.7461,-3.832,-3.8476,-3.885,-3.9447,-3.9525,-3.9834,-4.0362,-4.0362,-4.0362,-4.0362,-3.9592,-3.8738,-3.7892,-3.7046,-3.6231,-3.5423,-3.4507,-3.4129,-3.3975,-3.3122,-3.2737,-3.2737,-3.2814,-3.2776,-3.2737,-3.2814,-3.2314,-3.1621,-3.1583,-3.0467,-2.9088,-2.9011,-2.8434,0.0,0.0,-2.7857,-2.8088,-2.8857,-2.9088,-2.9319,-3.0154,-3.0385,-3.0385,-3.0346,-2.9698,-2.8588,-2.689,-2.6505,-2.6197,-2.5308,0.0,-2.5192,-2.5231,-2.5231,-2.5269,-2.5346,-2.5346,-2.5257,-2.5068,-2.4908,-2.4716,-2.4485,-2.4294,-2.419,-2.419,-2.419,-2.419,-2.4153,-2.3419,-2.2575,-2.1702,-2.0087,0.0,0.0,0.0,0.0,0.0,0.0,0.0,0.0,0.0,0.0,0.0,0.0,0.0,0.0,0.0,0.0,0.0,0.0,0.0,0.0,0.0,0.0,0.0,0.0,0.0,0.0,0.0,0.0,-3.4687,-3.5391,0.0,-3.4297,-3.418,-3.4648,-3.582,-3.5898,-3.6562,-3.8047,-3.8672,-3.9101,-3.9414,-3.9961,-4.0296,-4.0389,-4.0385,-4.0421,-4.0516,-4.0516,-4.0516,-4.0477,-4.0208,-3.9631,-3.8777,-3.793,-3.7046,-3.6192,-3.5391,-3.5045,-3.5007,-3.4692,-3.4237,-3.3814,-3.4391,-3.4237,-3.3744,-3.3744,-3.3545,-3.3122,-3.2045,-3.0891,-2.9813,-2.928,-2.8896,-2.8665,-2.8665,-2.9083,-2.9577,-2.9852,-2.9929,-3.0,-3.0346,-3.0385,-3.0385,-3.0385,-3.0154,-2.9583,-2.8429,-2.7775,-2.7159,-2.6269,-2.6154,-2.5962,-2.5385,-2.5308,-2.5308,-2.5308,-2.5308,-2.5219,-2.5003,-2.4974,-2.4816,-2.4518,-2.4445,-2.433,-2.4199,-2.419,-2.419,-2.419,-2.3933,-2.3162,-2.1812,-2.0666,-1.9043,0.0,0.0,0.0,0.0,0.0,0.0,0.0,0.0,0.0,0.0,0.0,0.0,0.0,0.0,0.0,0.0,0.0,0.0,0.0,0.0,0.0,0.0,0.0,0.0,0.0,0.0,-3.6094,-3.6406,-3.7226,-3.7383,-3.6523,-3.6719,-3.7226,-3.8125,-3.8164,-3.8555,-3.9414,-4.0039,-4.0351,-4.0351,-4.0898,-4.1077,-4.0782,-4.0817,-4.0698,-4.0516,-4.0516,-4.0516,-4.0516,-4.0516,-4.0054,-3.9284,-3.87,-3.7777,-3.6654,-3.6115,-3.5731,-3.55,-3.55,-3.5154,-3.4699,-3.5269,-3.5115,-3.4622,-3.4622,-3.443,-3.4013,-3.2891,-3.1968,-3.1154,-3.0544,-3.0204,-2.9973,-2.9973,-3.0198,-3.0385,-3.0385,-3.0385,-3.0385,-3.0385,-3.0385,-3.0385,-3.0385,-3.0385,-3.0231,-2.966,-2.8852,-2.7928,-2.6813,-2.6621,-2.6308,-2.5423,-2.5308,-2.5308,-2.5308,-2.5308,-2.5234,-2.5111,-2.5005,-2.4843,-2.4623,-2.4497,-2.433,-2.4199,-2.419,-2.419,-2.419,-2.3933,-2.3162,-2.1812,-2.0409,-1.8779,-1.6908,0.0,0.0,0.0,0.0,0.0,0.0,0.0,0.0,0.0,0.0,0.0,0.0,0.0,0.0,0.0,0.0,0.0,0.0,0.0,0.0,0.0,0.0,0.0,-3.4623,-3.5504,-3.6445,-3.7266,-3.8164,-3.8359,-3.75,-3.8203,-3.9062,-3.9922,-3.9961,-4.0351,-4.1172,-4.1211,-4.1211,-4.1211,-4.1211,-4.1078,-4.0824,-4.0782,-4.0698,-4.0523,-4.0516,-4.0516,-4.0516,-4.0516,-4.0054,-3.9361,-3.9323,-3.8354,-3.6769,-3.6731,-3.6231,-3.5538,-3.55,-3.55,-3.55,-3.55,-3.55,-3.55,-3.55,-3.4968,-3.4244,-3.4205,-3.3622,-3.2929,-3.2891,-3.2352,-3.1698,-3.1698,-3.1077,-3.0385,-3.0385,-3.0385,-3.0385,-3.0385,-3.0385,-3.0385,-3.0385,-3.0385,-3.0385,-3.0385,-2.9737,-2.8626,-2.6928,-2.6659,-2.6351,-2.5423,-2.5308,0.0,-2.5308,-2.5308,-2.5308,-2.5308,-2.5013,-2.4804,-2.4804,-2.4445,-2.4199,-2.419,-2.419,-2.419,-2.419,-2.3446,-2.2648,-2.1812,-1.9381,-1.7722,-1.6945,0.0,0.0,0.0,0.0,0.0,0.0,0.0,0.0,0.0,0.0,0.0,0.0,0.0,0.0,0.0,0.0,0.0,0.0,0.0,0.0,0.0,-3.4023,-3.5348,-3.5455,-3.7408,-3.8906,-3.9141,-3.9961,-4.0391,-4.0156,-4.0859,-4.1445,-4.168,-4.1719,-4.1836,-4.207,-4.1523,-4.1211,-4.1211,-4.1211,-4.1126,-4.0952,-4.0854,-4.0743,-4.063,-4.0545,-4.0516,-4.0516,-4.0516,-4.0362,-4.0131,-3.9554,-3.9015,-3.8469,-3.7238,-3.6577,-3.6308,-3.5731,-3.55,-3.55,-3.55,-3.55,-3.55,-3.55,-3.5346,-3.5045,-3.4398,-3.4052,-3.3699,-3.3083,-3.2352,-3.1698,-3.1698,-3.1077,-3.0385,-3.0385,-3.0385,-3.0385,-3.0385,-3.0385,-3.0385,-3.0385,-3.0385,-3.0385,-3.0385,-3.0192,-2.9506,-2.7813,-2.7544,-2.7044,-2.5538,-2.5308,-2.5308,-2.5308,-2.5308,-2.5308,-2.5308,-2.5077,-2.491,-2.4811,-2.4559,-2.4348,-2.4209,-2.419,-2.419,-2.419,-2.4006,-2.3199,-2.1812,-1.994,-1.8574,0.0,0.0,0.0,0.0,0.0,0.0,0.0,0.0,0.0,0.0,0.0,0.0,0.0,0.0,0.0,0.0,0.0,0.0,0.0,0.0,0.0,0.0,-3.6063,-3.7215,-3.7294,-3.8775,-4.0071,-4.0813,-4.1366,-4.1836,-4.2226,-4.2656,-4.293,-4.293,-4.293,-4.2773,-4.2422,-4.1953,-4.1562,-4.1211,-4.1211,-4.1129,-4.1016,-4.09,-4.0809,-4.0697,-4.0604,-4.0552,-4.0516,-4.0516,-4.0516,-4.0477,-4.0015,-3.9631,-3.9207,-3.7815,-3.7038,-3.6615,0.0,0.0,0.0,0.0,-3.55,-3.55,-3.55,-3.55,-3.5423,-3.493,-3.4737,-3.4661,-3.416,-3.343,-3.266,-3.2314,-3.1621,-3.0846,-3.05,-3.0385,-3.0385,-3.0385,-3.0385,-3.0385,-3.0385,-3.0385,-3.0385,-3.0385,-3.0385,0.0,-2.8198,-2.7895,-2.7313,-2.5577,-2.5308,-2.5308,-2.5308,-2.5308,-2.5308,-2.5308,-2.5053,-2.4877,-2.4811,-2.4526,0.0,0.0,0.0,-2.4043,-2.3712,-2.3712,0.0,0.0,0.0,0.0,0.0,0.0,0.0,0.0,-1.7319,-1.7275,0.0,0.0,0.0,0.0,0.0,0.0,0.0,0.0,0.0,0.0,0.0,0.0,0.0,0.0,0.0,0.0,-3.8498,-3.9718,-3.9795,-3.9996,-4.0645,-4.21,-4.2411,-4.2851,-4.3593,-4.3789,-4.3867,-4.3867,-4.3867,-4.3516,-4.2734,-4.2617,0.0,0.0,0.0,-4.1247,-4.1025,-4.1017,-4.0916,-4.0749,-4.0715,-4.0623,-4.0508,-4.0523,-4.0516,-4.0516,-4.0516,-4.0092,-3.9361,-3.8507,-3.7584,-3.6615,-3.5808,-3.55,-3.55,-3.55,-3.55,-3.55,-3.55,0.0,0.0,-3.55,-3.55,-3.55,-3.55,-3.4891,-3.4052,-3.3276,-3.2391,-3.1506,-3.0731,-3.0462,-3.0385,-3.0385,-3.0385,-3.0385,-3.0385,-3.0385,-3.0385,-3.0385,-3.0385,-2.9885,-2.8198,-2.7895,-2.7313,-2.5577,-2.5308,-2.5308,-2.5308,-2.5308,-2.5308,-2.5308,-2.5006,0.0,-2.4804,-2.4445,-2.419,-2.419,-2.419,-2.3896,-2.3153,-2.3153,-2.2758,-2.1959,-2.1923,-2.1886,-2.1812,-2.1812,-2.1812,-2.1739,-1.8823,-1.8236,0.0,0.0,0.0,0.0,0.0,0.0,0.0,0.0,0.0,0.0,0.0,0.0,0.0,0.0,0.0,-3.8623,-4.0231,-4.1563,-4.2295,-4.2441,-4.2441,-4.2155,-4.2866,-4.3447,-4.3603,-4.4292,-4.4766,-4.4766,-4.4766,-4.4687,-4.4492,-4.3828,-4.3047,-4.2187,-4.2187,-4.1836,-4.117,-4.1034,-4.0966,-4.0939,-4.0772,0.0,-4.0649,-4.0545,-4.0516,-4.0516,-4.0516,-4.04,-4.0208,-3.94,-3.8123,-3.6615,-3.5808,-3.55,-3.55,-3.55,-3.55,-3.55,-3.55,-3.55,-3.55,-3.55,-3.55,-3.55,-3.55,-3.4891,0.0,-3.4013,-3.2852,-3.166,-3.1506,-3.0923,-3.0385,-3.0385,-3.0385,-3.0385,-3.0385,-3.0385,-3.0385,-3.0385,-3.0385,-2.9885,-2.8198,-2.7895,-2.7313,-2.5577,-2.5308,-2.5308,-2.5308,-2.5308,-2.5308,-2.5308,-2.5006,-2.4804,-2.4804,-2.4445,-2.419,-2.419,-2.419,-2.4116,-2.3969,-2.3969,-2.3602,-2.2786,-2.2749,-2.2464,-2.1812,-2.1812,-2.1812,-2.1776,-2.1151,-2.1005,0.0,0.0,0.0,0.0,0.0,0.0,0.0,0.0,0.0,0.0,0.0,-3.6238,-3.6668,0.0,-4.02,-4.1046,-4.1893,-4.2585,-4.3047,-4.3482,-4.3652,-4.3352,-4.3831,-4.437,-4.4799,-4.5345,-4.5664,-4.5664,-4.5664,-4.5469,-4.5039,-4.418,-4.3281,-4.2422,-4.1992,-4.1601,-4.1211,-4.1129,-4.1076,-4.1014,-4.0903,-4.0827,-4.0762,-4.0655,-4.0615,-4.0609,-4.0515,-4.0516,-4.0439,-3.9631,-3.8277,-3.6654,-3.6269,-3.5846,-3.55,-3.55,-3.55,-3.55,-3.55,-3.55,-3.55,-3.55,-3.55,-3.55,-3.55,-3.5192,-3.4776,-3.4321,-3.3276,-3.2199,-3.1814,-3.1038,-3.0385,-3.0385,-3.0385,-3.0385,-3.0385,-3.0385,-3.0385,-3.0385,-3.0038,-2.9352,-2.8126,-2.7544,-2.6813,-2.55,-2.5308,-2.5308,-2.5308,-2.5308,-2.5308,-2.5308,-2.5006,-2.4804,-2.4804,-2.4445,-2.419,-2.419,-2.419,-2.419,-2.419,-2.419,-2.4006,-2.3602,-2.3602,-2.3382,-2.2987,-2.2987,-2.2987,-2.2987,-2.2987,-2.2804,0.0,0.0,0.0,0.0,0.0,0.0,0.0,0.0,-3.5468,-3.65,-3.793,-3.9161,-3.97,-4.1162,-4.2508,-4.3239,-4.347,-4.3585,-4.3585,-4.4124,-4.4575,-4.471,-4.4902,-4.5294,-4.605,-4.6204,-4.6289,-4.6289,-4.6289,-4.5976,-4.5273,-4.4609,-4.3711,-4.2695,-4.2031,-4.1523,-4.1211,-4.1211,-4.1169,-4.103,-4.1019,-4.095,-4.0843,-4.0767,-4.0704,-4.0693,-4.0577,-4.053,-4.0492,-3.98,-3.8507,-3.6962,-3.6962,-3.6346,-3.55,-3.55,-3.55,-3.55,-3.55,-3.55,-3.55,-3.55,-3.55,-3.55,-3.55,-3.55,-3.5346,-3.4661,-3.3699,-3.2737,-3.2083,-3.1154,-3.0385,-3.0385,-3.0385,-3.0385,-3.0385,-3.0385,-3.0346,-3.0192,-2.9583,-2.878,-2.7818,-2.7082,-2.6308,-2.5423,-2.5308,-2.5308,-2.5308,-2.5308,-2.5308,-2.5308,-2.5037,-2.4825,-2.4753,-2.4419,-2.4218,-2.4266,-2.4218,-2.4218,-2.4266,-2.4218,-2.419,-2.419,-2.419,-2.419,-2.419,-2.419,-2.419,-2.419,-2.4247,-2.3906,-3.4314,-3.3545,-3.3583,-3.5731,-3.5238,-3.5398,0.0,0.0,-3.9161,-4.0777,-4.1854,-4.2316,-4.1662,-4.2893,-4.4047,-4.4162,-4.4816,-4.5325,-4.5325,-4.5402,-4.5449,-4.5475,-4.5658,-4.5857,-4.6084,-4.6204,-4.6289,-4.6289,-4.6289,-4.625,-4.6172,-4.6055,-4.5234,-4.3594,-4.3476,-4.2695,-4.1211,-4.1211,-4.1172,-4.1171,-4.1073,-4.0972,-4.0964,-4.0847,-4.08,-4.0792,-4.0699,-4.0674,-4.0661,-4.0429,-3.9354,-3.7853,-3.7853,-3.6892,-3.55,-3.55,-3.55,-3.55,-3.55,-3.55,-3.55,-3.55,-3.55,-3.55,-3.55,-3.55,-3.5462,-3.5385,-3.416,-3.2891,-3.2776,-3.1577,-3.0385,-3.0385,-3.0385,-3.0385,-3.0385,-3.0385,-3.0154,-2.939,-2.9165,-2.8588,-2.7005,-2.6659,-2.6308,-2.5423,-2.5308,-2.5308,-2.5308,-2.5308,-2.5308,-2.5308,-2.5099,-2.4877,-2.4551,-2.4321,-2.4294,-2.4471,-2.4321,-2.4294,-2.4471,-2.4275,-2.419,-2.419,-2.419,-2.419,-2.419,-2.419,-2.419,-2.4199,-2.4384,-2.4329,-3.7284,-3.6546,0.0,0.0,-3.8053,-3.8553,-4.12,-4.1277,-4.1085,-4.2316,-4.3239,-4.3701,-4.3316,-4.4239,-4.5056,0.0,-4.5364,-4.5594,-4.5594,-4.5594,-4.5646,-4.5727,-4.5803,-4.5901,-4.5974,-4.6091,-4.6203,-4.6289,-4.6289,-4.6289,-4.6289,-4.582,-4.4961,-4.375,-4.3203,-4.2383,-4.1211,-4.1211,-4.1211,-4.1211,-4.113,-4.1126,-4.1125,-4.0966,-4.087,-4.0817,-4.0766,-4.0743,-4.0733,-4.0667,-3.9638,-3.8125,-3.8019,-3.6969,-3.55,-3.55,-3.55,-3.55,-3.55,-3.55,-3.55,-3.55,-3.55,-3.55,-3.55,-3.55,-3.55,-3.55,-3.4231,-3.2891,-3.2891,-3.1654,-3.0385,-3.0385,-3.0385,-3.0385,-3.0385,-3.0385,-3.0154,-2.928,-2.8703,-2.8011,-2.6813,-2.6192,-2.5731,-2.5346,-2.5308,-2.5308,-2.5308,-2.5308,-2.5278,-2.5127,-2.5065,-2.4892,-2.47,-2.4591,-2.4575,-2.467,-2.4591,-2.4583,-2.467,-2.4459,-2.4375,-2.4375,-2.4266,-2.419,-2.419,-2.419,-2.4266,-2.4375,-2.4479,-2.4501,-3.8661,0.0,0.0,-3.9361,-4.0246,-4.1123,-4.2239,-4.2508,-4.2739,-4.3624,-4.4239,-4.4662,-4.4662,-4.5171,-4.5594,-4.5594,-4.5594,-4.5594,-4.5594,-4.5594,-4.5654,-4.5725,-4.5515,-4.5506,-4.5857,-4.5995,-4.6144,-4.6246,-4.6289,-4.6289,-4.6289,-4.5703,-4.4844,-4.375,-4.3086,-4.2266,-4.1211,-4.1211,-4.1211,-4.1211,-4.1211,-4.1211,-4.1211,-4.1084,-4.1016,-4.0892,-4.087,-4.0857,-4.085,-4.0777,-3.9878,-3.8554,-3.8202,-3.7166,-3.5849,-3.5597,-3.55,-3.55,-3.55,-3.55,-3.55,-3.55,-3.55,-3.55,-3.55,-3.55,-3.55,-3.55,-3.4231,-3.2891,-3.2891,-3.1654,-3.0385,-3.0385,-3.0385,-3.0385,-3.0385,-3.0385,-3.0077,-2.8973,-2.8319,-2.7544,-2.6428,-2.5731,-2.5308,-2.5308,-2.5308,-2.5308,-2.5308,-2.5308,-2.5234,-2.5099,-2.5015,-2.4981,-2.485,-2.4832,-2.4825,-2.4836,-2.4832,-2.4825,-2.4836,-2.4685,-2.4551,-2.4485,-2.4348,-2.4266,-2.419,-2.4266,-2.4357,-2.4485,-2.4607,-2.4716,0.0,0.0,-3.8392,-4.0054,-4.1123,-4.22,-4.3855,-4.4201,-4.447,-4.5325,-4.5556,-4.5556,-4.5556,-4.5594,-4.5594,-4.5594,-4.5594,-4.5594,-4.5594,-4.5594,-4.5594,-4.5603,-4.4872,-4.4723,0.0,-4.5994,-4.6091,-4.6091,-4.6244,-4.6289,-4.6289,-4.6289,-4.5469,-4.375,-4.3672,-4.2851,-4.1211,-4.1211,-4.1211,-4.1211,-4.1211,-4.1211,-4.1211,-4.1211,-4.1172,-4.1171,-4.1033,-4.0975,-4.0968,-4.0854,-4.0311,-3.949,-3.8559,-3.7655,-3.6748,-3.5843,-3.55,-3.55,-3.55,-3.55,-3.55,-3.55,-3.55,-3.55,-3.55,-3.55,-3.55,-3.55,-3.4231,-3.2891,-3.2891,-3.1654,-3.0385,-3.0385,-3.0385,-3.0385,-3.0385,-3.0385,-2.9923,-2.8275,-2.7934,-2.7351,-2.5654,-2.5308,-2.5308,-2.5308,-2.5308,-2.5308,-2.5308,-2.5308,-2.5303,-2.5303,-2.5111,-2.4985,-2.4979,-2.4864,-2.4881,-2.4973,-2.4864,-2.4843,-2.4973,-2.485,-2.47,-2.4485,-2.4476,-2.4401,-2.419,-2.4401,-2.4476,-2.4493,-2.4819,-2.493,0.0,0.0,-4.0931,-4.2585,-4.3239,-4.3778,-4.4893,-4.5171,-4.5248,-4.5556,-4.5594,-4.5594,-4.5594,-4.5594,-4.5594,-4.5594,-4.5594,-4.5594,-4.5594,-4.5594,-4.5594,-4.5594,-4.5325,0.0,0.0,0.0,0.0,-4.6048,-4.6205,-4.6289,-4.6289,-4.6289,-4.5781,-4.4609,-4.3984,-4.3164,-4.1992,-4.1484,-4.1211,-4.1211,-4.1211,-4.1211,-4.1211,-4.1211,-4.1211,-4.1211,-4.113,-4.1129,-4.1126,-4.097,-4.044,-3.9619,-3.926,-3.8204,-3.6846,-3.656,-3.6035,-3.55,-3.55,-3.55,-3.55,-3.55,-3.55,-3.55,-3.55,-3.55,-3.5385,-3.4814,-3.3814,-3.2776,-3.2237,-3.1269,-3.0385,-3.0385,-3.0385,-3.0385,-3.0385,-3.0385,-2.9885,-2.8236,-2.7895,-2.7351,-2.5615,-2.5308,-2.5308,-2.5308,-2.5308,-2.5308,-2.5308,-2.5308,-2.5308,-2.5308,-2.5229,-2.5203,-2.5203,-2.516,-2.5154,-2.5203,-2.516,-2.5154,-2.5203,-2.503,-2.4917,-2.4812,-2.473,-2.4662,-2.4591,-2.4662,-2.473,-2.4819,-2.4936,-2.4999,-4.1431,-4.2038,-4.2585,-4.397,-4.4509,-4.4893,-4.5479,-4.5594,-4.5594,-4.5594,-4.5364,-4.5133,-4.5133,-4.4902,-4.4786,-4.5094,-4.5133,-4.5248,-4.5556,-4.5594,-4.5594,-4.5594,-4.5325,-4.5248,0.0,0.0,0.0,-4.5969,-4.6149,-4.6247,-4.6289,-4.6289,-4.5898,-4.5039,-4.4141,-4.3281,-4.2422,-4.1601,-4.1211,-4.1211,-4.1211,-4.1211,-4.1211,-4.1211,-4.1211,-4.1211,-4.1211,-4.1211,-4.1172,-4.1124,-4.0727,-4.0218,-3.9777,-3.8744,-3.7401,-3.7053,-3.6358,-3.5548,-3.5509,-3.55,-3.55,-3.55,-3.55,-3.55,-3.55,-3.55,-3.5385,-3.4814,-3.3814,-3.2776,-3.2275,-3.1269,-3.0385,-3.0385,-3.0385,-3.0385,-3.0385,-3.0385,-2.9885,-2.8236,-2.7895,-2.7351,-2.5615,-2.5308,-2.5308,-2.5308,-2.5308,-2.5308,-2.5308,-2.5308,-2.5308,-2.5308,-2.5308,-2.5308,-2.5308,-2.5308,-2.5308,-2.5308,-2.5308,-2.5308,-2.5308,-2.5187,-2.5082,-2.4991,-2.4923,-2.4867,-2.4804,-2.4867,-2.4923,-2.4991,-2.5082,-2.5105,-4.17,-4.2547,-4.3393,-4.4162,-4.4979,-4.5594,-4.5594,-4.5594,-4.5594,-4.5556,-4.4893,-4.4278,0.0,0.0,-4.3393,-4.4124,-4.4316,-4.4662,-4.5479,-4.5594,-4.5594,0.0,0.0,0.0,0.0,0.0,0.0,-4.5822,0.0,-4.615,-4.6289,-4.6289,-4.5937,-4.5078,-4.418,-4.3281,-4.2461,-4.1601,-4.1211,-4.1211,-4.1211,-4.1211,-4.1211,-4.1211,-4.1211,-4.1211,-4.1211,-4.1211,-4.1211,-4.1211,-4.1211,-4.1094,-4.014,-3.9227,-3.8282,-3.7406,-3.6472,-3.5698,-3.5564,-3.552,-3.5514,-3.55,-3.55,-3.55,-3.55,-3.55,-3.55,-3.5462,-3.4199,-3.2891,-3.2852,-3.1615,-3.0385,-3.0385,-3.0385,-3.0385,-3.0385,-3.0385,-2.9923,-2.8275,-2.7895,-2.7274,-2.5577,-2.5308,-2.5308,-2.5308,-2.5308,-2.5308,-2.5308,-2.5308,-2.5308,-2.5308,-2.5308,-2.5308,-2.5308,-2.5308,-2.5308,-2.5308,-2.5308,-2.5308,-2.5308,-2.5308,-2.5214,-2.5003,-2.5036,-2.4962,-2.4832,-2.4962,-2.5036,-2.5003,-2.5214,-2.5303,-4.3431,-4.4316,-4.5017,-4.521,-4.5441,-4.5594,-4.5594,-4.5594,-4.5441,-4.4778,-4.4432,-4.3932,0.0,0.0,0.0,-4.347,-4.4432,0.0,-4.5556,-4.5594,0.0,-4.5594,0.0,-4.5364,-4.5594,-4.5415,0.0,0.0,-4.6013,-4.615,-4.6289,-4.6289,-4.6211,-4.5976,-4.4492,-4.3594,-4.3359,-4.1914,-4.1211,-4.1211,-4.1211,-4.1211,-4.1211,-4.1211,-4.1211,-4.1211,-4.1211,-4.1211,-4.1211,-4.1211,-4.1211,-4.1172,-4.0936,-3.9833,-3.8364,-3.8118,-3.7066,-3.5719,-3.5667,-3.5621,-3.5554,-3.5509,-3.55,-3.55,-3.55,-3.55,-3.5346,-3.4699,-3.3737,-3.2776,-3.216,-3.1192,-3.0385,-3.0385,-3.0385,-3.0385,-3.0385,-3.0385,-3.0077,-2.9011,-2.7775,-2.6582,-2.55,-2.5308,-2.5308,-2.5308,-2.5308,-2.5308,-2.5308,-2.5308,-2.5308,-2.5308,-2.5308,-2.5308,-2.5308,-2.5308,-2.5308,-2.5308,-2.5308,-2.5308,-2.5308,-2.5308,-2.5293,-2.5219,-2.5219,-2.5203,-2.5165,-2.5203,-2.5219,-2.5219,-2.5293,-2.5219,-4.4624,-4.5248,-4.5594,-4.5594,-4.5594,-4.5518,-4.5133,-4.5017,-4.4662,-4.347,-4.3201,0.0,0.0,0.0,0.0,0.0,0.0,0.0,-4.5556,-4.5594,-4.5594,0.0,-4.5594,0.0,-4.5594,-4.5594,-4.5648,0.0,-4.5914,-4.6075,-4.6201,-4.6288,-4.6289,-4.6289,-4.4609,-4.3359,-4.2617,-4.168,-4.1211,-4.1211,-4.1211,-4.1211,-4.1211,-4.1211,-4.1211,-4.1211,-4.1211,-4.1211,-4.1211,-4.1211,-4.1211,-4.1172,-4.0781,-3.9764,-3.8427,-3.8075,-3.7049,-3.5814,-3.5788,-3.5746,-3.5725,-3.5606,-3.5604,-3.5604,-3.5604,-3.5604,-3.5472,-3.4946,-3.3931,-3.2888,-3.2408,-3.1361,-3.0402,-3.043,-3.0436,-3.0385,-3.0385,-3.0385,-3.0154,-2.928,-2.7736,-2.6428,-2.5962,-2.5538,-2.5308,-2.5308,-2.5308,-2.5308,-2.5308,-2.5308,-2.5308,-2.5308,-2.5308,-2.5308,-2.5308,-2.5308,-2.5308,-2.5308,-2.5308,-2.5308,-2.5308,-2.5308,-2.5308,-2.5308,-2.5308,-2.5308,-2.5308,-2.5308,-2.5308,-2.5308,-2.5308,-2.5229,-4.5402,-4.5594,-4.5594,-4.5594,-4.5594,-4.5364,-4.4509,-4.4201,-4.3662,-4.197,0.0,-4.1008,-3.9431,-4.0508,-4.1662,-4.1769,0.0,-4.4586,-4.5479,-4.5594,-4.5594,-4.5594,-4.5594,-4.5594,-4.5594,-4.5594,-4.5632,-4.5775,-4.5859,-4.5952,-4.6087,-4.6202,-4.621,-4.6133,-4.4531,-4.2969,-4.1367,-4.125,-4.1211,-4.1211,-4.1211,-4.1211,-4.1211,-4.1211,-4.1211,-4.1211,-4.1211,-4.1211,-4.1211,-4.1211,-4.1211,-4.1094,-4.0234,-3.9375,-3.8476,-3.7617,-3.6758,-3.5976,-3.5922,-3.5911,-3.5903,-3.5755,-3.5687,-3.5687,-3.5687,-3.5687,-3.5709,-3.565,-3.4424,-3.3111,-3.3049,-3.1718,-3.0409,-3.0495,-3.0456,-3.0385,-3.0385,-3.0385,-3.0154,-2.928,-2.7852,-2.6736,-2.6621,-2.5885,-2.5308,-2.5308,-2.5308,-2.5308,-2.5308,-2.5308,-2.5308,-2.5308,-2.5308,-2.5308,-2.5308,-2.5308,-2.5308,-2.5308,-2.5308,-2.5308,-2.5308,-2.5308,-2.5308,-2.5308,-2.5308,-2.5308,-2.5308,-2.5308,-2.5308,-2.5308,-2.5308,-2.5308,-4.5556,-4.5594,-4.5594,-4.5594,-4.5594,-4.5364,-4.4509,-4.3778,0.0,0.0,0.0,-3.9431,-3.8392,-3.9585,-4.0969,-4.1692,0.0,0.0,0.0,0.0,-4.5594,0.0,0.0,0.0,0.0,0.0,0.0,0.0,-4.5761,-4.5906,-4.6084,-4.6138,-4.5845,-4.5234,-4.4219,-4.3203,-4.2187,-4.1523,-4.1211,-4.1211,-4.1211,-4.1211,-4.1211,-4.1211,-4.1211,-4.1211,-4.1211,-4.1211,-4.1211,-4.1211,-4.1211,-4.1094,-4.0234,-3.9375,-3.8476,-3.7617,-3.6758,-3.6016,-3.5976,-3.5975,-3.5933,-3.5772,-3.5687,-3.5687,-3.5687,-3.5687,-3.5684,-3.5705,-3.4496,-3.3174,-3.317,-3.1817,-3.0491,-3.0513,-3.0456,-3.0385,-3.0385,-3.0385,-3.0154,-2.928,-2.8319,-2.7467,-2.6736,-2.5885,-2.5308,-2.5308,-2.5308,-2.5308,-2.5308,-2.5308,-2.5308,-2.5308,-2.5308,-2.5308,-2.5308,-2.5308,-2.5308,-2.5308,-2.5308,-2.5308,-2.5308,-2.5308,-2.5308,-2.5308,-2.5308,-2.5308,-2.5308,-2.5308,-2.5308,-2.5308,-2.5308,-2.5308,-4.5594,-4.5594,-4.5594,-4.5594,-4.5248,-4.4586,-4.3278,0.0,0.0,0.0,0.0,-3.8238,-3.693,0.0,0.0,0.0,0.0,0.0,0.0,0.0,0.0,0.0,0.0,0.0,0.0,0.0,-4.5594,-4.5594,-4.5657,-4.5757,-4.5944,-4.605,-4.576,-4.5039,-4.4141,-4.3281,-4.2422,-4.1601,-4.1211,-4.1211,-4.1211,-4.1211,-4.1211,-4.1211,-4.1211,-4.1211,-4.1211,-4.1211,-4.1211,-4.1211,-4.1211,-4.1055,-3.9726,-3.8984,-3.8437,-3.7109,-3.6367,-3.6016,-3.6016,-3.6016,-3.5976,-3.5879,-3.5868,-3.5868,-3.5868,-3.5868,-3.5862,-3.5795,-3.4891,-3.3802,-3.3366,-3.2263,-3.1125,-3.07,-3.0525,-3.0441,-3.0402,-3.0385,-3.0269,-2.9852,-2.9083,-2.828,-2.7428,-2.6544,-2.5808,-2.5385,-2.5308,-2.5308,-2.5308,-2.5308,-2.5308,-2.5308,-2.5308,-2.5308,-2.5308,-2.5308,-2.5308,-2.5308,-2.5308,-2.5308,-2.5308,-2.5308,-2.5308,-2.5308,-2.5308,-2.5308,-2.5308,-2.5308,-2.5308,-2.5308,-2.5308,-2.5308,-4.5594,-4.5594,-4.5594,-4.5594,-4.4932,-4.3855,-4.22,-4.1008,0.0,0.0,-3.7123,-3.7123,-3.5962,0.0,0.0,0.0,0.0,0.0,0.0,0.0,0.0,0.0,0.0,0.0,0.0,0.0,0.0,-4.5594,-4.5594,-4.5648,-4.577,-4.6002,-4.5835,-4.5232,-4.4257,-4.3359,-4.2695,-4.1719,-4.1211,-4.1211,-4.1211,-4.1211,-4.1211,-4.1211,-4.1211,-4.1211,-4.1211,-4.1211,-4.1172,-4.1016,-4.0937,-4.0742,-3.8984,-3.832,-3.8125,-3.6562,-3.6016,-3.6016,-3.6016,-3.6016,-3.6016,-3.6016,-3.6016,-3.6016,-3.6016,-3.6016,-3.5976,-3.5923,-3.5294,-3.4437,-3.3533,-3.2606,-3.1717,-3.089,-3.0586,-3.0492,-3.0467,-3.0419,-3.0436,-3.0436,-2.9589,-2.8659,-2.8016,-2.7031,-2.6111,-2.5428,-2.5308,-2.5308,-2.5308,-2.5308,-2.5308,-2.5308,-2.5308,-2.5308,-2.5308,-2.5308,-2.5308,-2.5308,-2.5308,-2.5308,-2.5308,-2.5308,-2.5308,-2.5308,-2.5308,-2.5308,-2.5308,-2.5308,-2.5308,-2.5308,-2.5308,-2.5308,-4.5594,-4.5594,-4.5594,-4.5594,-4.4932,-4.3855,-4.22,0.0,0.0,-3.7077,-3.6192,-3.5923,-3.6462,-3.6769,0.0,0.0,0.0,0.0,0.0,0.0,0.0,0.0,0.0,0.0,0.0,0.0,0.0,-4.5594,-4.5594,-4.5648,-4.577,-4.6002,-4.6052,-4.6019,-4.4488,-4.3672,-4.3594,-4.1992,-4.1211,-4.1211,-4.1211,-4.1211,-4.1211,-4.1211,-4.1211,-4.1211,-4.1211,-4.1211,-4.1133,-4.0351,-4.0039,-3.9844,-3.8086,-3.7422,-3.7305,-3.6367,-3.6016,-3.6016,-3.6016,-3.6016,-3.6016,-3.6016,-3.6016,-3.6016,-3.6016,-3.6016,-3.6016,-3.5976,-3.5351,-3.4492,-3.3632,-3.2686,-3.1755,-3.0845,-3.0583,-3.0571,-3.0562,-3.0533,-3.0505,-3.0505,-2.9218,-2.8057,-2.7911,-2.6562,-2.548,-2.5327,-2.5308,-2.5308,-2.5308,-2.5308,-2.5308,-2.5308,-2.5308,-2.5308,-2.5308,-2.5308,-2.5308,-2.5308,-2.5308,-2.5308,-2.5308,-2.5308,-2.5308,-2.5308,-2.5308,-2.5308,-2.5308,-2.5308,-2.5308,-2.5308,-2.5308,-2.5308,-4.5479,-4.5594,-4.5594,-4.5594,-4.4586,-4.3124,-4.1393,0.0,-3.8046,-3.6346,-3.5731,-3.5615,-3.5923,-3.5962,-3.6654,0.0,0.0,0.0,0.0,0.0,0.0,0.0,0.0,0.0,0.0,0.0,-4.5594,-4.5594,-4.5594,-4.5629,-4.568,-4.5857,-4.6008,-4.6089,-4.4526,-4.3711,-4.3711,-4.2031,-4.1211,-4.1211,-4.1211,-4.1211,-4.1211,-4.1211,-4.1211,-4.1211,-4.1211,-4.0898,-4.0391,-4.0039,-3.9609,-3.8984,-3.7773,-3.7305,-3.7187,-3.6328,-3.6016,-3.6016,-3.6016,-3.6016,-3.6016,-3.6016,-3.6016,-3.6016,-3.6016,-3.6016,-3.6016,-3.6016,-3.5742,-3.5156,-3.375,-3.2382,-3.1202,-3.0776,-3.0648,-3.0637,-3.0595,-3.0597,-3.0574,-3.0574,-2.9596,-2.8611,-2.8113,-2.7048,-2.6052,-2.5518,-2.5434,-2.5434,-2.5434,-2.5434,-2.5434,-2.5434,-2.5357,-2.5308,-2.5308,-2.5308,-2.5308,-2.5308,-2.5308,-2.5308,-2.5308,-2.5308,-2.5308,-2.5308,-2.5308,-2.5308,-2.5308,-2.5308,-2.5308,-2.5308,-2.5308,-2.5308,-4.5364,-4.5594,-4.5594,-4.5594,-4.4355,-4.2624,0.0,0.0,-3.7507,-3.5846,-3.55,-3.55,-3.55,-3.55,-3.5962,0.0,0.0,0.0,0.0,0.0,0.0,0.0,0.0,0.0,0.0,-4.5441,-4.5594,-4.5594,-4.5594,-4.5594,-4.5594,-4.5764,-4.5806,-4.5705,-4.4395,-4.3553,-4.332,-4.1914,-4.1211,-4.1211,-4.1211,-4.1211,-4.1211,-4.1211,-4.1211,-4.1211,-4.1211,-4.0859,-4.0234,-3.9726,-3.9141,-3.8476,-3.7344,-3.6914,-3.6836,-3.6211,-3.6016,-3.6016,-3.6016,-3.6016,-3.6016,-3.6016,-3.6016,-3.6016,-3.6016,-3.6016,-3.6016,-3.6016,-3.5625,-3.4961,-3.3711,-3.2148,-3.0898,-3.0771,-3.0768,-3.0761,-3.0693,-3.067,-3.0619,-3.0619,-2.9718,-2.8773,-2.8212,-2.7172,-2.6242,-2.561,-2.5491,-2.5491,-2.5491,-2.5491,-2.5491,-2.5491,-2.5427,-2.5365,-2.533,-2.5293,-2.5308,-2.5308,-2.5308,-2.5308,-2.5308,-2.5308,-2.5308,-2.5308,-2.5308,-2.5308,-2.5308,-2.5308,-2.5308,-2.5308,-2.5308,-2.5308,-4.5364,-4.5594,-4.5594,-4.5594,-4.4355,-4.2624,0.0,-3.92,-3.7507,-3.5846,-3.55,-3.55,-3.55,-3.55,-3.5769,-3.6577,0.0,0.0,0.0,0.0,0.0,0.0,0.0,0.0,0.0,-4.5094,-4.5594,-4.5594,-4.5594,0.0,-4.5594,-4.5718,-4.5464,-4.4742,-4.398,-4.3222,-4.2422,-4.1601,-4.1211,-4.1211,-4.1211,-4.1211,-4.1211,-4.1211,-4.1211,-4.1211,-4.1211,-4.1172,-4.1055,-3.9336,-3.8594,-3.8437,-3.668,-3.6016,-3.6016,-3.6016,-3.6016,-3.6016,-3.6016,-3.6016,-3.6016,-3.6016,-3.6016,-3.6016,-3.6016,-3.6016,-3.6016,-3.6016,-3.4766,-3.3437,-3.3398,-3.2148,-3.0898,-3.0898,-3.0898,-3.0898,-3.0898,-3.0773,-3.0714,-3.0714,-2.9346,-2.8198,-2.8104,-2.6702,-2.5588,-2.55,-2.5491,-2.5491,-2.5491,-2.5491,-2.5491,-2.5491,-2.5491,-2.5463,-2.5417,-2.5344,-2.5308,-2.5308,-2.5308,-2.5308,-2.5308,-2.5308,-2.5308,-2.5308,-2.5308,-2.5308,-2.5308,-2.5308,-2.5308,-2.5308,-2.5308,-2.5308,-4.3662,-4.4278,-4.4586,-4.4008,-4.3047,-4.1777,-4.0092,-3.8815,-3.7507,-3.5846,-3.55,-3.55,-3.55,-3.55,-3.6154,-3.8161,-3.87,0.0,0.0,0.0,0.0,0.0,0.0,0.0,0.0,0.0,-4.5594,-4.5594,-4.5594,-4.5594,-4.5594,-4.5624,-4.5324,-4.4572,-4.3952,-4.3207,-4.2325,-4.1505,-4.1076,-4.1074,-4.0964,-4.0942,-4.0942,-4.0942,-4.0966,-4.1076,-4.1076,-4.0774,-4.0234,-3.9062,-3.8242,-3.7617,-3.6445,-3.6016,-3.6016,-3.6016,-3.6016,-3.6016,-3.6016,-3.6016,-3.6016,-3.6016,-3.6016,-3.6016,-3.6016,-3.6016,-3.5898,-3.5273,-3.3906,-3.2578,-3.2578,-3.1758,-3.0898,-3.0898,-3.0898,-3.0898,-3.0898,-3.0859,-3.0857,-3.0857,-2.945,-2.8277,-2.8232,-2.6791,-2.5661,-2.5655,-2.5654,-2.5654,-2.5654,-2.5654,-2.5654,-2.5654,-2.5599,-2.5511,-2.5424,-2.5379,-2.5365,-2.5313,-2.5308,-2.5308,-2.5308,-2.5308,-2.5308,-2.5308,-2.5308,-2.5308,-2.5308,-2.5308,-2.5308,-2.5308,-2.5308,-2.5308,0.0,-4.3239,-4.3739,-4.3239,-4.22,-4.0969,-3.9631,-3.8354,-3.7123,-3.5769,-3.55,-3.55,-3.55,-3.55,-3.6,-3.7623,-3.8392,0.0,0.0,0.0,0.0,0.0,0.0,0.0,0.0,-4.5594,-4.5594,-4.5594,-4.5594,-4.5594,-4.5594,-4.5594,-4.5115,-4.4011,-4.3637,-4.2893,-4.1761,-4.1215,-4.0903,-4.09,-4.0847,-4.0817,-4.0817,-4.0817,-4.0854,-4.0903,-4.0615,-4.025,0.0,-3.8593,-3.7773,-3.7226,-3.6328,-3.6016,-3.6016,-3.6016,-3.6016,-3.6016,-3.6016,-3.6016,-3.6016,-3.6016,-3.6016,-3.6016,-3.6016,-3.6016,-3.582,-3.4961,-3.3711,-3.2578,-3.2266,-3.1562,-3.0898,-3.0898,-3.0898,-3.0898,-3.0898,-3.0898,-3.0898,-3.0898,-2.9766,-2.8672,-2.8359,-2.7148,-2.6094,-2.5742,-2.5703,-2.5703,-2.5703,-2.5703,-2.5703,-2.5703,-2.5661,-2.5598,-2.5476,-2.5412,-2.5383,-2.5348,-2.5298,-2.5308,-2.5308,-2.5308,-2.5308,-2.5308,-2.5308,-2.5308,-2.5308,-2.5308,-2.5308,-2.5308,-2.5308,-2.5308,0.0,-4.2124,-4.2816,-4.2739,-4.1508,-4.0092,-3.9284,-3.7853,0.0,-3.5654,-3.55,-3.5538,-3.5577,-3.5538,-3.5577,-3.5808,-3.7123,0.0,0.0,0.0,0.0,0.0,0.0,0.0,-4.5518,-4.5594,-4.5594,-4.5594,-4.5594,-4.5594,-4.5594,-4.5556,-4.4786,-4.3162,-4.3108,-4.2377,-4.0805,-4.0805,-4.0805,-4.0805,-4.08,-4.0796,-4.0796,-4.0719,-4.0723,-4.0735,-3.992,-3.964,-3.9572,-3.7964,-3.7305,-3.7226,-3.6328,-3.6016,-3.6016,-3.6016,-3.6016,-3.6016,-3.6016,-3.6016,-3.6016,-3.6016,-3.6016,-3.6016,-3.6016,-3.5898,-3.5664,-3.4844,-3.3945,-3.3047,-3.2305,-3.1523,-3.0898,-3.0898,-3.0898,-3.0898,-3.0898,-3.0898,-3.0898,-3.0898,-3.0195,-2.9336,-2.8516,-2.7617,-2.6719,-2.5898,-2.5742,-2.5703,-2.5703,-2.5703,-2.5703,-2.5703,-2.5703,-2.5662,-2.5607,-2.5481,-2.5427,-2.5413,-2.5357,-2.5327,-2.5308,-2.5317,-2.5317,-2.5308,-2.5308,-2.5308,-2.5308,-2.5308,-2.5308,-2.5308,-2.5308,-2.5308,-3.7731,0.0,-4.0008,-3.9354,-3.8892,-3.8354,0.0,-3.7,-3.6462,0.0,0.0,0.0,-3.6308,-3.5923,-3.6346,-3.8892,0.0,-3.9815,0.0,0.0,0.0,0.0,-4.5441,-4.5364,-4.5594,-4.5594,-4.5594,-4.5594,-4.5594,-4.5594,-4.5594,-4.4979,-4.4124,-4.3124,-4.2479,-4.1665,-4.071,-4.0715,-4.0715,-4.071,-4.0636,-4.057,-4.0531,-3.9914,-4.0024,-4.0638,-3.9165,-3.9003,-3.957,-3.7905,-3.7258,-3.7226,-3.6328,-3.6016,-3.6016,-3.6016,-3.6016,-3.6016,-3.6016,-3.6016,-3.6016,-3.6016,-3.6016,-3.6016,-3.6016,-3.5078,-3.3984,-3.375,-3.2617,-3.1445,-3.125,-3.1055,-3.0898,-3.0898,-3.0898,-3.0898,-3.0898,-3.0898,-3.0898,-3.0898,-3.0195,-2.9531,-2.9336,-2.8008,-2.6914,-2.6719,-2.6133,-2.5703,-2.5703,-2.5703,-2.5703,-2.5703,-2.5703,-2.5703,-2.5663,-2.5602,-2.55,-2.542,-2.5415,-2.5417,-2.5313,-2.5365,-2.5331,-2.5308,-2.5308,-2.5308,-2.5308,-2.5308,-2.5308,-2.5308,-2.5308,-2.5308,-3.6154,-3.77,-3.9207,-3.87,-3.8315,-3.7892,-3.7392,0.0,0.0,0.0,0.0,0.0,0.0,0.0,0.0,0.0,-3.9046,0.0,0.0,0.0,0.0,0.0,-4.5594,-4.5594,0.0,-4.5594,-4.5594,-4.5594,-4.5594,-4.5441,-4.5017,-4.4547,-4.3739,-4.2547,-4.2047,-4.1401,-4.0622,-4.0629,-4.0629,-4.0622,-4.053,-4.0516,-4.0477,-4.0054,-4.0145,-4.0513,-3.8855,-3.8467,-3.8847,-3.7178,-3.651,-3.6534,-3.6066,-3.5919,-3.5969,-3.5969,-3.5974,-3.6016,-3.6016,-3.6016,-3.6016,-3.6016,-3.6016,-3.6016,-3.6016,-3.5078,-3.3906,-3.3516,-3.2734,-3.1875,-3.1094,-3.0898,-3.0898,-3.0898,-3.0898,-3.0898,-3.0898,-3.0898,-3.0898,-3.0898,-3.0508,-3.0078,-2.9687,-2.8828,-2.793,-2.7109,-2.6602,-2.6133,-2.5742,-2.5703,-2.5703,-2.5703,-2.5703,-2.5703,-2.5703,-2.5661,-2.5602,-2.5489,-2.5489,-2.5457,-2.5398,-2.5406,-2.536,-2.5308,-2.5308,-2.5308,-2.5308,-2.5308,-2.5308,-2.5308,-2.5308,-2.5308,-3.5808,-3.7546,-3.9207,-3.8815,-3.8277,-3.7777,-3.7661,0.0,0.0,0.0,0.0,0.0,0.0,0.0,0.0,0.0,0.0,0.0,0.0,0.0,0.0,0.0,-4.5594,0.0,-4.5594,-4.5594,-4.5594,-4.5594,-4.5594,-4.521,-4.4355,-4.4162,-4.3393,-4.1846,-4.1662,-4.1239,-4.0516,-4.0516,-4.0516,-4.0516,-4.0516,-4.0516,-4.0516,-4.0362,-4.04,-4.0408,-3.8666,-3.7959,-3.7954,-3.6362,-3.5674,-3.5687,-3.5687,-3.5766,-3.5851,-3.5851,-3.5916,-3.5934,-3.5934,-3.5934,-3.5974,-3.5975,-3.5976,-3.5976,-3.6016,-3.5469,-3.4687,-3.3672,-3.332,-3.2851,-3.1289,-3.0898,-3.0898,-3.0898,-3.0898,-3.0898,-3.0898,-3.0898,-3.0898,-3.0898,-3.0898,-3.0664,-2.9922,-2.9687,-2.9101,-2.7617,-2.7266,-2.6914,-2.6172,-2.5977,-2.5898,-2.5898,-2.5781,-2.5703,-2.5703,-2.5703,-2.5662,-2.5609,-2.5542,-2.5513,-2.5505,-2.544,-2.5391,-2.533,-2.5326,-2.5317,-2.5337,-2.5337,-2.5327,-2.5308,-2.5308,-2.5308,-3.7238,-3.843,-3.8777,-3.6622,-3.65,-3.6731,-3.6038,0.0,0.0,0.0,0.0,0.0,0.0,0.0,0.0,0.0,0.0,0.0,0.0,0.0,-4.4778,-4.5518,0.0,-4.5594,-4.5594,-4.5594,-4.5594,-4.5594,-4.5594,-4.521,-4.4355,-4.3662,-4.2816,-4.1808,-4.1085,-4.0631,-4.0516,-4.0516,-4.0516,-4.0516,-4.0516,-4.0516,-4.0477,-3.9785,-3.9861,-4.0362,-3.7959,-3.736,-3.7981,-3.6309,-3.5646,-3.5687,-3.5687,-3.5694,-3.5746,-3.5746,-3.5752,-3.5764,-3.5764,-3.5764,-3.5772,-3.5861,-3.5911,-3.5918,-3.5975,-3.5898,-3.5469,-3.3867,-3.2891,-3.2148,-3.1172,-3.0898,-3.0898,-3.0898,-3.0898,-3.0898,-3.0898,-3.0898,-3.0898,-3.0898,-3.0898,-3.0859,-3.0703,-3.0078,-2.9492,-2.9258,-2.8555,-2.8047,-2.793,-2.7266,-2.6797,-2.6797,-2.6133,-2.5703,-2.5703,-2.5703,-2.5703,-2.5703,-2.5662,-2.5657,-2.5595,-2.5509,-2.5471,-2.5457,-2.5457,-2.5425,-2.5387,-2.5387,-2.5374,-2.5308,-2.5308,-2.5308,-3.6423,-3.7276,-3.7623,-3.6423,-3.7469,-3.8546,-3.7738,0.0,0.0,0.0,0.0,0.0,0.0,0.0,0.0,0.0,0.0,-4.3893,-4.4239,-4.4701,-4.5171,0.0,0.0,-4.5594,-4.5594,-4.5594,-4.5594,-4.5594,-4.5594,-4.5017,-4.3701,-4.3316,-4.247,-4.1123,-4.0708,-4.0516,-4.0516,-4.0516,-4.0516,-4.0516,-4.0516,-4.0516,-4.0477,-4.0131,-4.0169,-4.04,-3.8315,-3.7672,-3.7932,-3.624,-3.5548,-3.557,-3.557,-3.5616,-3.5646,-3.5705,-3.5687,-3.5687,-3.5687,-3.5687,-3.5694,-3.5766,-3.5777,-3.579,-3.5918,-3.5615,-3.4992,-3.375,-3.3125,-3.2539,-3.125,-3.0898,-3.0898,-3.0898,-3.0898,-3.0898,-3.0898,-3.0898,-3.0898,-3.0898,-3.0898,-3.0898,-3.0898,-3.0586,-3.0156,-2.9687,-2.8867,-2.8281,-2.8281,-2.7539,-2.7187,-2.7656,-2.6914,-2.6406,-2.6406,-2.5977,-2.5703,-2.5703,-2.5703,-2.5662,-2.5603,-2.5585,-2.5524,-2.5491,-2.5491,-2.5476,-2.5443,-2.5431,-2.5379,-2.5331,-2.5303,-2.5308,-3.5962,-3.6538,-3.7031,-3.7179,0.0,-3.9554,-3.9361,0.0,0.0,0.0,0.0,0.0,0.0,0.0,0.0,0.0,-4.4085,-4.4586,-4.4586,-4.5171,-4.5594,-4.5594,-4.5594,-4.5594,-4.5594,-4.5594,-4.5594,-4.5594,-4.5402,-4.4662,-4.3162,-4.2893,-4.2085,-4.0554,-4.0516,-4.0516,-4.0516,-4.0516,-4.0516,-4.0516,-4.0516,-4.0516,-4.0516,-4.0516,-4.0516,-4.04,-3.8738,-3.8007,-3.7853,-3.6192,-3.55,-3.55,-3.55,-3.5547,-3.5593,-3.562,-3.565,-3.565,-3.565,-3.565,-3.5655,-3.5683,-3.569,-3.5709,-3.5827,-3.526,-3.441,-3.3581,-3.3238,-3.2733,-3.1289,-3.0898,-3.0898,-3.0898,-3.0898,-3.0898,-3.0898,-3.0898,-3.0898,-3.0898,-3.0898,-3.0898,-3.0898,-3.0898,-3.0664,-3.0,-2.9336,-2.8906,-2.8906,-2.8164,-2.7851,-2.8516,-2.7812,-2.7226,-2.7031,-2.6406,-2.5937,-2.5703,-2.5703,-2.5663,-2.5612,-2.5611,-2.5601,-2.5531,-2.557,-2.5525,-2.5511,-2.5457,-2.5447,-2.5409,-2.5357,-2.5337,-3.7392,-3.7853,-3.8047,-3.8597,0.0,0.0,-3.8931,-3.8623,0.0,0.0,0.0,0.0,0.0,0.0,0.0,0.0,-4.494,-4.5518,-4.5518,0.0,-4.5594,-4.5594,-4.5594,-4.5594,-4.5594,-4.5594,-4.5594,-4.5594,-4.4855,-4.4008,-4.3162,-4.2316,-4.147,-4.0516,-4.0516,-4.0516,-4.0516,-4.0516,-4.0516,-4.0516,-4.0516,-4.0516,-4.0516,-4.0516,-4.0516,-4.04,-3.8738,-3.8007,-3.7853,-3.6192,-3.55,-3.55,-3.55,-3.5507,-3.552,-3.5495,-3.5502,-3.5502,-3.5502,-3.5502,-3.5528,-3.5599,-3.5606,-3.5631,-3.5705,-3.5152,-3.4341,-3.3445,-3.2675,-3.1937,-3.1093,-3.0898,-3.0898,-3.0898,-3.0898,-3.0898,-3.0898,-3.0898,-3.0898,-3.0898,-3.0898,-3.0898,-3.0898,-3.0898,-3.0898,-3.082,-3.0742,-3.0703,-3.0703,-2.9961,-2.9453,-2.9492,-2.8711,-2.7891,-2.707,-2.6953,-2.6562,-2.5742,-2.5703,-2.5703,-2.5703,-2.5703,-2.5703,-2.5703,-2.5703,-2.5659,-2.5598,-2.5595,-2.5509,-2.5409,-2.5395,-2.5374,-3.6269,-3.6808,-3.734,-3.7894,0.0,0.0,0.0,0.0,0.0,0.0,0.0,0.0,0.0,0.0,0.0,-4.4214,-4.4669,-4.511,-4.555,-4.5419,-4.5381,-4.5577,-4.5594,-4.5594,-4.5594,-4.5594,-4.5364,-4.4816,-4.447,-4.3701,-4.2354,-4.1962,-4.1393,-4.0516,-4.0516,-4.0516,-4.0516,-4.0516,-4.0516,-4.0516,-4.0516,-4.0516,-4.0516,-4.0516,-4.0246,-3.9708,-3.8507,-3.77,-3.7084,-3.5962,-3.55,-3.55,-3.55,-3.55,-3.55,-3.55,-3.55,-3.55,-3.55,-3.55,-3.5514,-3.5541,-3.5521,-3.5436,-3.4967,-3.4227,-3.3386,-3.2597,-3.1779,-3.107,-3.0842,-3.0857,-3.0898,-3.0898,-3.0898,-3.0898,-3.0898,-3.0898,-3.0898,-3.0898,-3.0898,-3.0898,-3.0898,-3.0898,-3.0898,-3.0898,-3.043,-3.0273,-3.082,-3.0156,-2.9805,-3.0351,-2.9648,-2.875,-2.7891,-2.7812,-2.7422,-2.6562,-2.6016,-2.5703,-2.5703,-2.5703,-2.5703,-2.5703,-2.5703,-2.5703,-2.5661,-2.561,-2.5587,-2.5511,-2.5421,-2.5387,-3.5577,-3.6077,-3.6764,0.0,0.0,0.0,0.0,0.0,0.0,0.0,0.0,0.0,0.0,0.0,0.0,0.0,-4.4326,-4.4776,-4.5232,-4.5077,-4.5022,-4.5253,-4.5283,-4.5283,-4.5283,-4.5053,-4.4632,-4.402,-4.3522,-4.2728,-4.157,-4.1365,-4.0978,-4.0372,-4.0438,-4.0516,-4.0516,-4.0516,-4.0516,-4.0516,-4.0516,-4.0516,-4.0477,-4.0246,-3.9823,-3.9246,-3.8084,-3.7238,-3.6654,-3.5846,-3.55,-3.55,-3.55,-3.55,-3.55,-3.55,-3.55,-3.55,-3.55,-3.55,-3.55,-3.55,-3.55,-3.5328,-3.4527,-3.3661,-3.2826,-3.2034,-3.1223,-3.0597,-3.0616,-3.0705,-3.0811,-3.0817,-3.0857,-3.0857,-3.0898,-3.0898,-3.0898,-3.0898,-3.0898,-3.0898,-3.0898,-3.0898,-3.0898,-3.0898,-3.0391,-3.0234,-3.082,-3.0391,-3.0234,-3.0859,-3.0351,-2.9648,-2.8789,-2.8711,-2.8203,-2.707,-2.6445,-2.5977,-2.5703,-2.5703,-2.5703,-2.5703,-2.5703,-2.5703,-2.5703,-2.5659,-2.561,-2.5601,-2.5496,-2.544,-3.5692,-3.6077,-3.6649,0.0,0.0,0.0,0.0,0.0,0.0,0.0,0.0,0.0,-4.3591,0.0,0.0,-4.3177,-4.402,-4.4599,-4.4612,-4.4612,-4.4612,-4.4612,-4.4612,-4.4612,-4.4574,-4.3832,-4.3303,-4.3265,-4.1805,-4.0899,-4.0899,-4.0397,-4.011,-4.011,-4.0356,-4.0469,-4.0516,-4.0516,-4.0516,-4.0516,-4.0516,-4.0516,-4.0477,-3.9669,-3.9284,-3.9207,-3.7469,-3.6692,-3.6615,-3.5846,-3.55,-3.55,-3.55,-3.55,-3.55,-3.55,-3.55,-3.55,-3.55,-3.55,-3.55,-3.55,-3.55,-3.5346,-3.4468,-3.3583,-3.2737,-3.1929,-3.1113,-3.0518,-3.0518,-3.0556,-3.0603,-3.0664,-3.0714,-3.0723,-3.0859,-3.0898,-3.0898,-3.0898,-3.0898,-3.0898,-3.0898,-3.0898,-3.0898,-3.0898,-3.0898,-3.0898,-3.0898,-3.0898,-3.0898,-3.0898,-3.0898,-3.0547,-2.9687,-2.9609,-2.8867,-2.7109,-2.6992,-2.6602,-2.5742,-2.5703,-2.5703,-2.5703,-2.5703,-2.5703,-2.5703,-2.5703,-2.5661,-2.5602,-2.5602,-2.5543,-3.4968,-3.6084,0.0,0.0,0.0,0.0,0.0,0.0,0.0,0.0,0.0,-4.3451,-4.3454,0.0,0.0,-4.3327,-4.3579,-4.4004,-4.4546,-4.4346,-4.4276,-4.4585,-4.4612,-4.4347,-4.3756,-4.3454,-4.2812,-4.1692,-4.1163,-4.0634,-4.0007,-3.9823,-3.9754,-3.9754,-3.984,-3.9974,-4.0233,-4.0233,-4.0321,-4.0516,-4.0516,-4.0516,-4.0477,-3.9669,-3.8977,-3.8315,-3.7199,-3.6385,-3.5846,-3.5615,-3.55,-3.55,-3.55,-3.55,-3.55,-3.55,-3.55,-3.55,-3.55,-3.55,-3.55,-3.55,-3.55,-3.5346,-3.4468,-3.4013,-3.3506,-3.2083,-3.1536,-3.1185,-3.0607,-3.0446,-3.0491,-3.0589,-3.0652,-3.0717,-3.0766,-3.0817,-3.0898,-3.0898,-3.0898,-3.0898,-3.0898,-3.0898,-3.0898,-3.0898,-3.0898,-3.0898,-3.0898,-3.0898,-3.0898,-3.0898,-3.0898,-3.0781,-3.0547,-3.0508,-2.9766,-2.8008,-2.7891,-2.7266,-2.5742,-2.5703,-2.5703,-2.5703,-2.5703,-2.5703,-2.5703,-2.5703,-2.5703,-2.5662,-2.561,-2.5595,-3.5815,0.0,0.0,0.0,0.0,0.0,0.0,0.0,0.0,0.0,0.0,-4.355,-4.3577,-4.3454,0.0,-4.3386,-4.3442,-4.3664,-4.4095,-4.3943,-4.3881,-4.414,-4.387,-4.3459,-4.2936,-4.2315,-4.1543,-4.0558,-4.0197,-3.981,-3.9261,-3.9352,-3.9389,-3.9389,-3.9522,-3.9765,-4.012,-3.9972,-4.011,-4.0516,-4.0389,-4.0236,-4.0015,-3.9169,-3.8507,-3.793,-3.6731,-3.5962,-3.55,-3.55,-3.55,-3.55,-3.55,-3.55,-3.55,-3.55,-3.55,-3.55,-3.55,-3.55,-3.55,-3.55,-3.55,-3.5346,-3.4468,-3.4205,-3.3859,-3.216,-3.1698,-3.1506,-3.0615,-3.0385,-3.0447,-3.0533,-3.0577,-3.0619,-3.0642,-3.0721,-3.0816,-3.0816,-3.0858,-3.0898,-3.0898,-3.0898,-3.0898,-3.0898,-3.0898,-3.0898,-3.0898,-3.0898,-3.0898,-3.0898,-3.0898,-3.0898,-3.0898,-3.0898,-3.0312,-2.8906,-2.8828,-2.8047,-2.6289,-2.5898,-2.5703,-2.5703,-2.5703,-2.5703,-2.5703,-2.5703,-2.5703,-2.5703,-2.566,-2.5655,0.0,0.0,0.0,0.0,0.0,0.0,0.0,0.0,0.0,0.0,0.0,-4.3118,-4.3886,-4.3135,-4.2653,-4.3404,-4.3515,-4.3515,-4.3515,-4.3515,-4.3478,-4.3387,-4.2763,-4.2249,-4.2103,-4.0744,-3.9863,-3.979,-3.9129,-3.8689,-3.8689,-3.8919,-3.9077,-3.9077,-3.9339,-3.9687,-4.0002,-3.972,-3.9844,-4.0446,-4.0156,-3.9753,-3.9284,-3.8392,-3.793,-3.77,-3.6154,-3.55,-3.55,-3.55,-3.55,-3.55,-3.55,-3.55,-3.55,-3.55,-3.55,-3.55,-3.55,-3.55,-3.55,-3.55,-3.55,-3.5346,-3.4545,-3.4321,-3.3968,-3.2391,-3.1852,-3.1621,-3.0731,-3.0462,-3.0419,-3.0477,-3.0513,-3.0509,-3.0597,-3.0633,-3.0671,-3.0714,-3.0813,-3.0898,-3.0898,-3.0898,-3.0898,-3.0898,-3.0898,-3.0898,-3.0898,-3.0898,-3.0898,-3.0898,-3.0898,-3.0898,-3.0898,-3.0898,-3.0547,-2.9648,-2.9609,-2.8867,-2.7187,-2.6289,-2.5781,-2.5703,-2.5703,-2.5703,-2.5703,-2.5703,-2.5703,-2.5703,-2.5703,-2.5703,0.0,0.0,0.0,0.0,0.0,0.0,0.0,0.0,0.0,0.0,-4.3908,-4.3774,-4.396,-4.3578,-4.3294,-4.3478,-4.3515,-4.3515,-4.3515,-4.3515,-4.3294,-4.2616,-4.2396,-4.1809,-4.0524,-4.0084,-3.9643,-3.9019,-3.8799,-3.8689,-3.8689,-3.8728,-3.8788,-3.8788,-3.8862,-3.9017,-3.9302,-3.9238,-3.9534,-4.0167,-3.9452,-3.9171,-3.9284,-3.8392,-3.7276,-3.6,-3.5654,-3.55,-3.55,-3.55,-3.55,-3.55,-3.55,-3.55,-3.55,-3.55,-3.55,-3.55,-3.55,-3.55,-3.55,-3.55,-3.55,-3.5462,-3.5269,-3.5231,-3.5007,-3.3968,-3.316,-3.2468,-3.1621,-3.0923,-3.039,-3.0425,-3.0443,-3.0488,-3.0513,-3.0555,-3.0626,-3.0708,-3.0721,-3.0771,-3.0898,-3.0898,-3.0898,-3.0898,-3.0898,-3.0898,-3.0898,-3.0898,-3.0898,-3.0898,-3.0898,-3.0898,-3.0898,-3.0898,-3.0547,-2.9648,-2.9609,-2.9101,-2.8047,-2.7187,-2.6406,-2.5703,-2.5703,-2.5703,-2.5703,-2.5703,-2.5703,-2.5703,-2.5703,-2.5703,0.0,0.0,0.0,0.0,0.0,0.0,0.0,0.0,0.0,0.0,-4.4247,-4.3974,-4.3807,-4.3631,-4.3515,-4.3515,-4.3515,-4.3515,-4.3515,-4.3515,-4.3204,-4.2396,-4.1956,-4.1258,-4.001,-3.9533,-3.9166,-3.8726,-3.8689,-3.8689,-3.8689,-3.8689,-3.8689,-3.8689,-3.8689,-3.8848,-3.908,-3.899,-3.9223,-3.9851,-3.8828,-3.8191,-3.7838,-3.754,-3.6692,-3.55,-3.55,-3.55,-3.55,-3.55,-3.55,-3.55,-3.55,-3.55,-3.55,-3.55,-3.55,-3.55,-3.55,-3.55,-3.55,-3.55,-3.55,-3.55,-3.55,-3.55,-3.5308,-3.443,-3.3859,-3.3237,-3.2006,-3.1346,-3.0923,-3.05,-3.0447,-3.0462,-3.0462,-3.0488,-3.0577,-3.0586,-3.0621,-3.0687,-3.075,-3.0768,-3.0817,-3.0898,-3.0898,-3.0898,-3.0898,-3.0898,-3.0898,-3.0898,-3.0898,-3.0898,-3.0898,-3.0898,-3.0703,-3.0234,-3.0234,-2.9844,-2.8945,-2.8476,-2.7656,-2.6367,-2.5898,-2.5703,-2.5703,-2.5703,-2.5703,-2.5703,-2.5703,-2.5703,0.0,0.0,0.0,0.0,0.0,0.0,0.0,0.0,0.0,0.0,-4.4535,-4.4035,-4.3726,-4.358,-4.3441,-4.3331,-4.3404,-4.3387,-4.313,-4.3221,-4.2947,-4.1992,-4.1295,-4.0598,-3.9753,-3.9093,-3.8689,-3.8689,-3.8689,-3.8689,-3.8689,-3.8689,-3.8689,-3.8689,-3.8689,-3.8818,-3.9022,-3.8818,-3.897,-3.9498,-3.8315,-3.719,-3.6094,-3.6305,-3.6087,-3.55,-3.55,-3.55,-3.55,-3.55,-3.55,-3.55,-3.55,-3.55,-3.55,-3.55,-3.55,-3.55,-3.55,-3.55,-3.55,-3.55,-3.55,-3.55,-3.55,-3.55,-3.5346,-3.4622,-3.4321,-3.3859,-3.2314,-3.1814,-3.1468,-3.0615,-3.0385,-3.0385,-3.0385,-3.0446,-3.0495,-3.0518,-3.0563,-3.0583,-3.0583,-3.0644,-3.0725,-3.0857,-3.0898,-3.0898,-3.0898,-3.0898,-3.0898,-3.0898,-3.0898,-3.0898,-3.0898,-3.0898,-3.0898,-3.0898,-3.0898,-3.0586,-2.9844,-2.9687,-2.8906,-2.7461,-2.6602,-2.6055,-2.5937,-2.5937,-2.5859,-2.5703,-2.5703,-2.5703,0.0,0.0,0.0,0.0,0.0,0.0,0.0,0.0,0.0,0.0,-4.4612,-4.4519,-4.4479,-4.3912,-4.3294,-4.258,-4.3057,-4.302,-4.1625,-4.2029,-4.1882,-4.0377,-4.012,-3.9753,-3.8946,-3.8762,-3.8689,-3.8689,-3.8689,-3.8689,-3.8689,-3.8689,-3.8689,-3.8689,-3.8689,-3.8719,-3.8765,-3.8719,-3.884,-3.916,-3.7836,-3.6515,-3.5276,-3.5302,-3.5377,-3.55,-3.55,-3.55,-3.55,-3.55,-3.55,-3.55,-3.55,-3.55,-3.55,-3.55,-3.55,-3.55,-3.55,-3.55,-3.55,-3.55,-3.55,-3.55,-3.55,-3.55,-3.5462,-3.5346,-3.4776,-3.3975,-3.3006,-3.2237,-3.1468,-3.0615,-3.0385,-3.0385,-3.0385,-3.0402,-3.0414,-3.05,-3.0563,-3.0583,-3.0583,-3.0644,-3.0716,-3.0721,-3.0817,-3.0898,-3.0898,-3.0898,-3.0898,-3.0898,-3.0898,-3.0898,-3.0898,-3.0898,-3.0898,-3.0898,-3.0898,-3.0859,-3.0742,-3.0,-2.9492,-2.9258,-2.8398,-2.7578,-2.6836,-2.6836,-2.6445,-2.5703,-2.5703,-2.5703,0.0,0.0,0.0,0.0,0.0,0.0,0.0,0.0,0.0,-4.5201,-4.4619,-4.4158,-4.4257,-4.3647,-4.2913,-4.2393,-4.2213,-4.1919,-4.1205,-4.1389,-4.1222,-4.0047,-3.99,-3.957,-3.8799,-3.8689,-3.8689,-3.8689,-3.8689,-3.8689,-3.8689,-3.8689,-3.8689,-3.8689,-3.8689,-3.8689,-3.8689,-3.8689,-3.8302,-3.753,-3.6646,-3.5634,-3.4597,-3.4963,-3.5239,-3.55,-3.55,-3.55,-3.55,-3.55,-3.55,-3.55,-3.55,-3.55,-3.55,-3.55,-3.55,-3.55,-3.55,-3.55,-3.55,-3.55,-3.55,-3.55,-3.55,-3.55,-3.55,-3.55,-3.5231,-3.4622,-3.3237,-3.2622,-3.2045,-3.0692,-3.0385,-3.0385,-3.0385,-3.0385,-3.0402,-3.0436,-3.0453,-3.0513,-3.0541,-3.0587,-3.0589,-3.0628,-3.0714,-3.0772,-3.0772,-3.0858,-3.0898,-3.0898,-3.0898,-3.0898,-3.0898,-3.0898,-3.0898,-3.0898,-3.0898,-3.0898,-3.0898,-3.0547,-3.0312,-3.0312,-2.8984,-2.8125,-2.7734,-2.7734,-2.7539,-2.7148,-2.7148,-2.7148,0.0,0.0,0.0,0.0,0.0,0.0,0.0,0.0,-4.5287,0.0,-4.4403,-4.3602,-4.3598,-4.3011,-4.2344,-4.1873,-4.1381,-4.0948,-4.0545,-4.0655,-4.0487,-3.968,-3.9606,-3.935,-3.8762,-3.8689,-3.8689,-3.8689,-3.8689,-3.8689,-3.8689,-3.8689,-3.8689,-3.8689,-3.8689,-3.8689,-3.8689,-3.8505,-3.7588,-3.5973,-3.5547,-3.4971,-3.4211,-3.4685,-3.506,-3.5391,-3.5479,-3.55,-3.55,-3.55,-3.55,-3.55,-3.55,-3.55,-3.55,-3.55,-3.55,-3.55,-3.55,-3.55,-3.55,-3.55,-3.55,-3.55,-3.55,-3.55,-3.55,-3.55,-3.5346,-3.4814,-3.3314,-3.2737,-3.2237,-3.0731,-3.0385,-3.0385,-3.0385,-3.0385,-3.0385,-3.0385,-3.0385,-3.0419,-3.0453,-3.05,-3.0509,-3.0584,-3.0621,-3.0659,-3.0659,-3.0769,-3.0857,-3.0857,-3.0898,-3.0898,-3.0898,-3.0898,-3.0898,-3.0898,-3.0898,-3.0898,-3.0898,-3.0898,-3.0898,-3.0898,-2.9609,-2.8867,-2.8633,-2.8633,-2.8516,-2.8281,-2.8281,-2.8281,0.0,0.0,0.0,0.0,0.0,0.0,0.0,0.0,0.0,-4.4355,-4.3692,-4.3029,-4.2626,-4.2096,-4.1398,-4.0551,-4.0797,-4.0581,-3.9056,-3.9496,-3.9643,-3.8872,-3.8762,-3.8762,-3.8689,-3.8689,-3.8689,-3.8689,-3.8689,-3.8689,-3.8689,-3.8689,-3.8689,-3.8689,-3.8689,-3.8689,-3.8689,-3.7933,-3.6707,-3.5078,-3.5055,-3.4729,-3.42,-3.4235,-3.4555,-3.5149,-3.5383,-3.55,-3.55,-3.55,-3.55,-3.55,-3.55,-3.55,-3.55,-3.55,-3.55,-3.55,-3.55,-3.55,-3.55,-3.55,-3.55,-3.55,-3.55,-3.55,-3.55,-3.55,-3.4891,-3.4052,-3.3122,-3.2314,-3.1545,-3.0615,-3.0385,-3.0385,-3.0385,-3.0385,-3.0385,-3.0385,-3.0385,-3.0385,-3.0396,-3.0477,-3.0483,-3.0488,-3.0577,-3.0592,-3.0592,-3.0689,-3.0717,-3.0717,-3.0816,-3.0898,-3.0898,-3.0898,-3.0898,-3.0898,-3.0898,-3.0898,-3.0898,-3.0898,-3.0898,-3.0898,-3.082,-3.0351,-2.9531,-2.9531,-2.9101,-2.8281,-2.8281,-2.8281,0.0,0.0,0.0,0.0,0.0,0.0,0.0,0.0,-4.3547,-4.3547,-4.2854,-4.2206,-4.2082,-4.157,-4.0965,-4.0398,-3.9889,-3.935,-3.8799,-3.8946,-3.9019,-3.8726,-3.8689,-3.8689,-3.8689,-3.8689,-3.8689,-3.8689,-3.8689,-3.8689,-3.8689,-3.8689,-3.8689,-3.8689,-3.8689,-3.8469,-3.7933,-3.7125,-3.6156,-3.5004,-3.4491,-3.4131,-3.3967,-3.4104,-3.4427,-3.487,-3.5141,-3.5346,-3.55,-3.55,-3.55,-3.55,-3.55,-3.55,-3.55,-3.55,-3.55,-3.55,-3.55,-3.55,-3.55,-3.55,-3.55,-3.55,-3.55,-3.55,-3.55,-3.55,-3.5269,-3.4699,-3.3276,-3.2699,-3.2122,-3.0731,-3.0385,-3.0385,-3.0385,-3.0385,-3.0385,-3.0385,-3.0385,-3.0385,-3.0385,-3.0431,-3.043,-3.043,-3.0505,-3.0537,-3.0537,-3.058,-3.0624,-3.0624,-3.0711,-3.077,-3.077,-3.0857,-3.0898,-3.0898,-3.0898,-3.0898,-3.0898,-3.0898,-3.0898,-3.0898,-3.0898,-3.0742,-3.043,-3.043,-3.0273,-2.9961,-2.9961,-2.9961,-3.2045,0.0,0.0,0.0,0.0,0.0,0.0,0.0,-4.2316,-4.2585,-4.197,-4.1354,-4.1354,-4.0969,-4.0518,-4.0126,-3.9352,-3.8803,-3.8704,-3.8689,-3.8689,-3.8689,-3.8689,-3.8689,-3.8689,-3.8689,-3.8689,-3.8689,-3.8689,-3.8689,-3.8689,-3.8689,-3.8689,-3.8689,-3.8432,-3.7918,-3.7125,-3.6266,-3.5459,-3.4601,-3.4064,-3.3807,-3.382,-3.3968,-3.4249,-3.454,-3.4725,-3.5069,-3.55,-3.55,-3.55,-3.55,-3.55,-3.55,-3.55,-3.55,-3.55,-3.55,-3.55,-3.55,-3.55,-3.55,-3.55,-3.55,-3.55,-3.55,-3.55,-3.55,-3.5269,-3.4814,-3.3622,-3.2929,-3.216,-3.0731,-3.0385,-3.0385,-3.0385,-3.0385,-3.0385,-3.0385,-3.0385,-3.0385,-3.0385,-3.0385,-3.0385,-3.0385,-3.0436,-3.0453,-3.0453,-3.0521,-3.0581,-3.0581,-3.0616,-3.0652,-3.0652,-3.0767,-3.0817,-3.0817,-3.0898,-3.0898,-3.0898,-3.0898,-3.0898,-3.0898,-3.0898,-3.0898,-3.0898,-3.0898,-3.0898,-3.0898,-3.0898,-3.0898,0.0,0.0,0.0,0.0,0.0,0.0,0.0,0.0,-4.0631,-4.1546,-4.1046,-4.0439,-4.0477,-4.0295,-4.0002,-3.9687,-3.9327,-3.8994,-3.8765,-3.8689,-3.8689,-3.8689,-3.8689,-3.8689,-3.8689,-3.8689,-3.8689,-3.8689,-3.8689,-3.8689,-3.8689,-3.8689,-3.8689,-3.8689,-3.7933,-3.7088,-3.6266,-3.5408,-3.4601,-3.3807,-3.3807,-3.3807,-3.3807,-3.3807,-3.3967,-3.42,-3.42,-3.4688,-3.5493,-3.5493,-3.5493,-3.55,-3.55,-3.55,-3.55,-3.55,-3.55,-3.55,-3.55,-3.55,-3.55,-3.55,-3.55,-3.55,-3.55,-3.55,-3.55,-3.55,-3.4891,-3.4244,-3.4205,-3.2968,-3.1506,-3.0654,-3.0423,-3.0423,-3.0423,-3.0385,-3.0385,-3.0385,-3.0385,-3.0385,-3.0385,-3.0385,-3.0385,-3.0385,-3.0385,-3.0385,-3.0385,-3.0472,-3.0513,-3.0513,-3.057,-3.058,-3.058,-3.0646,-3.0713,-3.0713,-3.0816,-3.0898,-3.0898,-3.0898,-3.0898,-3.0898,-3.0898,-3.0898,-3.0898,-3.0898,-3.0898,-3.0898,-3.0898,-3.0898,-3.0731,0.0,0.0,0.0,0.0,0.0,0.0,0.0,-3.7469,-3.9546,-3.9315,-3.9046,-4.0285,-4.043,-4.0313,-4.0012,-3.9462,-3.909,-3.898,-3.8833,-3.8689,-3.8689,-3.8689,-3.8689,-3.8689,-3.8689,-3.8689,-3.8689,-3.8689,-3.8689,-3.8689,-3.8689,-3.8432,-3.786,-3.7639,-3.6817,-3.5371,-3.5114,-3.4601,-3.3807,-3.3807,-3.3807,-3.3807,-3.3807,-3.3967,-3.42,-3.42,-3.4576,-3.5207,-3.5207,-3.5339,-3.55,-3.55,-3.55,-3.55,-3.55,-3.55,-3.55,-3.55,-3.55,-3.55,-3.55,-3.55,-3.55,-3.55,-3.55,-3.55,-3.55,-3.5346,-3.5007,-3.4359,-3.3391,-3.2352,-3.1545,-3.1346,-3.1154,-3.0538,-3.0385,-3.0385,-3.0385,-3.0385,-3.0385,-3.0385,-3.0385,-3.0385,-3.0385,-3.0385,-3.0385,-3.0385,-3.0425,-3.0447,-3.0447,-3.0495,-3.0525,-3.0525,-3.0574,-3.0616,-3.0616,-3.0672,-3.0681,-3.0681,-3.0714,-3.0767,-3.0767,-3.0857,-3.0898,-3.0898,-3.0898,-3.0898,-3.0898,-3.0898,-3.0898,0.0,0.0,0.0,0.0,0.0,0.0,-3.5538,-3.5731,-3.6231,0.0,-3.8892,-3.8931,-4.0246,-4.0516,-4.0438,-4.0304,-3.9851,-3.9462,-3.9327,-3.9073,-3.8869,-3.8869,-3.8758,-3.8689,-3.8689,-3.8689,-3.8689,-3.8689,-3.8689,-3.8689,-3.8689,-3.8395,-3.797,-3.7529,-3.6817,-3.6009,-3.5004,-3.4674,-3.4284,-3.3807,-3.3807,-3.3807,-3.3807,-3.3807,-3.3889,-3.4031,-3.4031,-3.4398,-3.4935,-3.4935,-3.5166,-3.55,-3.55,-3.55,-3.55,-3.55,-3.55,-3.55,-3.55,-3.55,-3.55,-3.55,-3.55,-3.55,-3.55,-3.55,-3.55,-3.55,-3.55,-3.5308,-3.443,-3.3821,-3.3237,-3.2391,-3.2199,-3.2045,-3.1538,-3.1423,-3.1231,-3.0538,-3.0385,-3.0385,-3.0385,-3.0385,-3.0385,-3.0385,-3.0385,-3.0385,-3.0385,-3.0385,-3.0385,-3.0385,-3.0425,-3.0477,-3.0477,-3.0513,-3.057,-3.057,-3.0565,-3.0583,-3.0583,-3.0626,-3.0646,-3.0646,-3.075,-3.0806,-3.0816,-3.0859,-3.0898,-3.0898,-3.0898,-3.0898,0.0,0.0,0.0,0.0,0.0,0.0,-3.5808,-3.5731,-3.5885,0.0,-3.8669,-3.89,-3.99,-4.0092,-4.0131,-4.0208,-4.0112,-3.9918,-3.9671,-3.9364,-3.9147,-3.9147,-3.8927,-3.875,-3.875,-3.8719,-3.8689,-3.8689,-3.8689,-3.8689,-3.8689,-3.7933,-3.7456,-3.7382,-3.5826,-3.4968,-3.4857,-3.4234,-3.388,-3.3807,-3.388,-3.388,-3.3807,-3.3807,-3.3807,-3.3807,-3.3807,-3.4105,-3.4634,-3.4665,-3.5008,-3.55,-3.55,-3.55,-3.55,-3.55,-3.55,-3.55,-3.55,-3.55,-3.55,-3.55,-3.55,-3.55,-3.55,-3.55,-3.55,-3.55,-3.55,-3.5308,-3.4545,-3.4359,-3.4122,-3.3237,-3.3045,-3.3006,-3.2929,-3.2891,-3.2468,-3.0962,-3.0615,-3.0538,-3.0538,-3.0462,-3.0385,-3.0385,-3.0385,-3.0385,-3.0385,-3.0385,-3.0385,-3.0385,-3.0385,-3.0385,-3.0385,-3.0433,-3.05,-3.05,-3.0552,-3.0594,-3.0594,-3.0565,-3.0571,-3.0571,-3.0619,-3.0619,-3.0708,-3.0817,-3.0898,-3.0898,-3.0898,-3.0898,0.0,0.0,0.0,0.0,0.0,0.0,-3.3853,-3.3506,-3.3737,0.0,-3.4622,-3.4814,-3.7046,-3.743,-3.7661,-3.8354,-3.9016,-3.9563,-3.9966,-3.972,-3.9498,-3.9498,-3.9236,-3.9022,-3.9022,-3.8848,-3.8689,-3.8689,-3.8689,-3.8689,-3.8689,-3.7933,-3.7199,-3.6574,-3.5555,-3.4674,-3.4027,-3.4527,-3.4454,-3.3807,-3.4454,-3.4417,-3.3807,-3.3807,-3.3807,-3.3807,-3.3807,-3.4005,-3.4304,-3.4582,-3.5008,-3.55,-3.55,-3.55,-3.55,-3.55,-3.55,-3.55,-3.55,-3.55,-3.55,-3.55,-3.55,-3.55,-3.55,-3.55,-3.55,-3.55,-3.55,-3.5462,-3.5269,-3.5231,-3.5045,-3.416,-3.3936,-3.3744,-3.3045,-3.2891,-3.2814,-3.2468,-3.1891,-3.1468,-3.1468,-3.0846,-3.0385,-3.0385,-3.0385,-3.0385,-3.0385,-3.0385,-3.0385,-3.0385,-3.0385,-3.0385,-3.0385,-3.0414,-3.0431,-3.0431,-3.0419,-3.043,-3.043,-3.05,-3.0513,-3.0513,-3.0552,-3.0592,-3.0608,-3.081,-3.0898,-3.0898,-3.0898,-3.0898,0.0,0.0,0.0,-3.5045,0.0,0.0,0.0,-3.3506,-3.3391,-3.5084,-3.443,-3.4199,-3.6308,-3.6385,-3.6385,-3.7238,-3.8084,-3.8739,-3.901,-3.9509,-3.984,-3.984,-3.9401,-3.9093,-3.9093,-3.8855,-3.8689,-3.8689,-3.8689,-3.8689,-3.8689,-3.7551,-3.6721,-3.6303,-3.5092,-3.4211,-3.3807,-3.4197,-3.4197,-3.3807,-3.4211,-3.4211,-3.3807,-3.3807,-3.3807,-3.3807,-3.3807,-3.3967,-3.4211,-3.436,-3.4784,-3.5331,-3.5465,-3.55,-3.55,-3.55,-3.55,-3.55,-3.55,-3.55,-3.55,-3.55,-3.55,-3.55,-3.55,-3.55,-3.55,-3.55,-3.55,-3.55,-3.55,-3.55,-3.5385,-3.4968,-3.4853,-3.4737,-3.4276,-3.4199,-3.4199,-3.4199,-3.3506,-3.2814,-3.2352,-3.1621,-3.1192,-3.1577,-3.0923,-3.0577,-3.1,-3.0654,-3.0385,-3.0385,-3.0808,-3.0885,-3.0423,-3.1154,-3.1269,-3.0462,-3.0808,-3.0846,-3.0423,-3.0419,-3.0462,-3.0462,-3.0505,-3.0559,-3.0559,-3.0676,-3.0761,-3.0814,-3.0859,-3.0898,0.0,0.0,0.0,0.0,0.0,-3.5398,0.0,0.0,0.0,0.0,0.0,0.0,0.0,0.0,0.0,-3.5846,0.0,0.0,0.0,-3.8618,0.0,-3.9595,-3.9415,-3.92,-3.892,-3.8485,-3.8358,-3.8689,-3.8395,-3.8358,-3.8689,-3.7331,-3.6523,-3.6523,-3.4908,-3.4027,-3.4027,-3.4027,-3.3954,-3.3807,-3.3954,-3.3954,-3.3807,-3.3807,-3.3807,-3.3807,-3.3807,-3.3928,-3.4141,-3.4164,-3.4481,-3.4972,-3.5278,-3.5465,-3.55,-3.55,-3.55,-3.55,-3.55,-3.55,-3.55,-3.55,-3.55,-3.55,-3.55,-3.55,-3.55,-3.55,-3.55,-3.55,-3.55,-3.55,-3.55,-3.55,-3.55,-3.55,-3.55,-3.55,-3.55,-3.55,-3.493,-3.416,-3.3314,-3.2468,-3.216,-3.2814,-3.1737,-3.1154,-3.1852,-3.1308,-3.0885,-3.0885,-3.15,-3.166,-3.0923,-3.2122,-3.2314,-3.0962,-3.1545,-3.1545,-3.0692,-3.05,-3.0385,-3.0385,-3.0467,-3.0482,-3.0482,-3.0556,-3.0611,-3.0716,-3.0815,-3.0898,0.0,0.0,0.0,0.0,-3.8738,0.0,0.0,0.0,-3.4654,-3.266,0.0,0.0,0.0,0.0,0.0,0.0,0.0,0.0,-3.5769,-3.6555,-3.7287,-3.78,-3.9128,-3.9462,-3.8152,-3.7156,-3.7147,-3.8579,-3.7367,-3.7184,-3.8615,-3.786,-3.7345,-3.7345,-3.5752,-3.4857,-3.4857,-3.4857,-3.4491,-3.3807,-3.4527,-3.4491,-3.3807,-3.3807,-3.3807,-3.3807,-3.3807,-3.3834,-3.385,-3.4117,-3.4235,-3.436,-3.4906,-3.527,-3.55,-3.55,-3.55,-3.55,-3.55,-3.55,-3.55,-3.55,-3.55,-3.55,-3.55,-3.55,-3.55,-3.55,-3.55,-3.55,-3.55,-3.55,-3.55,-3.55,-3.55,-3.55,-3.55,-3.55,-3.55,-3.55,-3.5423,-3.5084,-3.4205,-3.3353,-3.2776,-3.2891,-3.2737,-3.266,-3.2737,-3.2699,-3.2622,-3.2622,-3.2699,-3.2737,-3.2622,-3.2776,-3.2814,-3.2622,-3.2699,-3.2391,-3.1583,-3.0808,-3.0385,-3.0385,-3.0402,-3.0414,-3.0414,-3.0477,-3.0597,-3.0714,-3.0718,-3.0772,0.0,0.0,0.0,0.0,0.0,0.0,-3.6161,0.0,-3.3814,0.0,0.0,0.0,0.0,0.0,0.0,0.0,-3.3199,0.0,0.0,0.0,-3.6396,-3.7465,0.0,0.0,-3.6956,-3.655,-3.678,-3.7918,-3.6927,-3.678,-3.7918,-3.7676,-3.7492,-3.7492,-3.5848,-3.5004,-3.5004,-3.4527,-3.4137,-3.3807,-3.4137,-3.4137,-3.3807,-3.3807,-3.3807,-3.3807,-3.3807,-3.3807,-3.382,-3.3928,-3.4068,-3.4223,-3.447,-3.486,-3.5308,-3.542,-3.55,-3.55,-3.55,-3.55,-3.55,-3.55,-3.55,-3.55,-3.55,-3.55,-3.55,-3.55,-3.55,-3.55,-3.55,-3.55,-3.55,-3.55,-3.55,-3.55,-3.55,-3.55,-3.55,-3.55,-3.55,-3.5385,-3.5007,-3.4237,-3.3814,-3.4308,-3.3545,-3.3083,-3.3583,-3.3199,-3.2891,-3.2891,-3.3353,-3.343,-3.2929,-3.3814,-3.3968,-3.2968,-3.2891,-3.2545,-3.1737,-3.1346,-3.0923,-3.0423,-3.0385,-3.0385,-3.0385,-3.0414,-3.05,-3.0571,-3.0614,-3.07,-3.9762,0.0,0.0,0.0,0.0,0.0,0.0,-3.493,-3.4007,0.0,0.0,0.0,0.0,0.0,0.0,0.0,0.0,-3.3083,0.0,-3.3654,0.0,0.0,0.0,0.0,0.0,-3.5768,-3.5789,-3.7088,-3.6009,-3.5936,-3.7419,-3.7492,-3.7603,-3.7823,-3.645,-3.5701,-3.5701,-3.4651,-3.4137,-3.4137,-3.3917,-3.3807,-3.3807,-3.3807,-3.3807,-3.3807,-3.3807,-3.3807,-3.3807,-3.3807,-3.3915,-3.4117,-3.4164,-3.4459,-3.4888,-3.5254,-3.5458,-3.55,-3.55,-3.55,-3.55,-3.55,-3.55,-3.55,-3.55,-3.55,-3.55,-3.55,-3.55,-3.55,-3.55,-3.55,-3.55,-3.55,-3.55,-3.55,-3.55,-3.55,-3.55,-3.55,-3.55,-3.55,-3.55,-3.4968,-3.4776,-3.5385,-3.4423,-3.3853,-3.4468,-3.4007,-3.3622,-3.3622,-3.416,-3.4314,-3.366,-3.4769,-3.4962,-3.3699,-3.3391,-3.3006,-3.2391,-3.1929,-3.1391,-3.0769,-3.0538,-3.0385,-3.0385,-3.0385,-3.0442,-3.0472,-3.0545,-3.0595,0.0,-4.2679,0.0,-3.8762,-3.8623,-3.8399,-3.5052,-3.5468,-3.6122,-3.4552,-3.543,0.0,0.0,0.0,0.0,0.0,0.0,0.0,0.0,0.0,0.0,0.0,0.0,0.0,0.0,-3.4439,-3.372,-3.6156,-3.41,-3.4137,-3.7345,-3.7492,-3.786,-3.8652,-3.786,-3.7419,-3.7419,-3.5775,-3.4968,-3.4968,-3.416,-3.3807,-3.3807,-3.3807,-3.3807,-3.3807,-3.3807,-3.3807,-3.3807,-3.3807,-3.382,-3.386,-3.4117,-3.4211,-3.4304,-3.4879,-3.5262,-3.55,-3.55,-3.55,-3.55,-3.55,-3.55,-3.55,-3.55,-3.55,-3.55,-3.55,-3.55,-3.55,-3.55,-3.55,-3.55,-3.55,-3.55,-3.55,-3.55,-3.55,-3.55,-3.55,-3.55,-3.55,-3.55,-3.5462,-3.5462,-3.55,-3.5462,-3.5423,-3.5462,-3.5423,-3.5423,-3.5423,-3.5423,-3.5462,-3.5423,-3.5462,-3.5462,-3.5423,-3.4622,-3.4167,-3.4129,-3.2545,-3.1698,-3.166,-3.0846,-3.0385,-3.0385,-3.0385,-3.0385,-3.0396,-3.0467,-3.0545,-4.2552,-4.2846,-4.2713,-4.0005,-3.9564,-3.8959,-3.578,-3.5923,-3.6238,-3.4552,-3.5545,-3.6462,0.0,0.0,0.0,0.0,0.0,0.0,0.0,0.0,0.0,0.0,0.0,0.0,0.0,0.0,-3.3944,-3.4591,-3.4344,-3.4674,-3.5775,-3.7404,-3.8175,-3.7933,-3.7639,-3.7492,-3.7492,-3.6413,-3.5555,-3.5004,-3.4711,-3.4321,-3.3807,-3.3807,-3.3807,-3.3807,-3.3807,-3.3807,-3.3807,-3.3807,-3.3807,-3.382,-3.3902,-3.4043,-3.4269,-3.487,-3.5166,-3.5246,-3.5458,-3.55,-3.55,-3.55,-3.55,-3.55,-3.55,-3.55,-3.55,-3.55,-3.55,-3.55,-3.55,-3.55,-3.55,-3.55,-3.55,-3.55,-3.55,-3.55,-3.55,-3.55,-3.55,-3.55,-3.55,-3.55,-3.55,-3.55,-3.55,-3.55,-3.55,-3.55,-3.55,-3.55,-3.55,-3.55,-3.55,-3.55,-3.55,-3.55,-3.5231,-3.4814,-3.4205,-3.3667,-3.2814,-3.1737,-3.1429,-3.0962,-3.0385,-3.0385,-3.0385,-3.0385,-3.0436,-3.0458,-4.2636,-4.2938,-4.296,-4.0805,-4.0285,-3.9561,-3.6815,-3.7064,-3.7485,-3.6105,-3.6987,-3.7993,0.0,0.0,0.0,0.0,0.0,0.0,0.0,-3.0731,0.0,0.0,0.0,0.0,0.0,0.0,-3.2915,-3.3856,-3.3542,0.0,0.0,-3.6817,-3.7734,-3.7492,-3.7786,-3.7786,-3.7492,-3.6978,-3.6156,-3.5004,-3.5004,-3.4564,-3.3807,-3.3807,-3.3807,-3.3807,-3.3807,-3.3807,-3.3807,-3.3807,-3.3807,-3.3807,-3.3807,-3.3915,-3.4129,-3.4586,-3.4935,-3.5102,-3.5316,-3.5405,-3.55,-3.55,-3.55,-3.55,-3.55,-3.55,-3.55,-3.55,-3.55,-3.55,-3.55,-3.55,-3.55,-3.55,-3.55,-3.55,-3.55,-3.55,-3.55,-3.55,-3.55,-3.55,-3.55,-3.55,-3.55,-3.55,-3.55,-3.55,-3.55,-3.55,-3.55,-3.55,-3.55,-3.55,-3.55,-3.55,-3.55,-3.55,-3.55,-3.5231,-3.4699,-3.4359,-3.3705,-3.2622,-3.2275,-3.1698,-3.0846,-3.0846,-3.0692,-3.0385,-3.0385,-3.0436]},{"header":{"parameterUnit":"m.s-1","parameterCategory":1,"la1":30.6,"la2":29.2853,"lo1":-89.7004,"lo2":-87.6739,"dy":0.0162,"dx":0.0183,"nx":112,"ny":82,"refTime":"2025-05-14T12:00:00:Z","depth":0,"parameterNumber":3,"parameterNumberName":"V-component_of_WINDS"},"data":[0.0,0.0,0.0,0.0,0.0,0.0,0.0,0.0,0.0,0.0,0.0,0.0,0.0,0.0,0.0,0.0,0.0,0.0,0.0,0.0,0.0,0.0,0.0,0.0,0.0,0.0,0.0,0.0,0.0,0.0,0.0,0.0,0.0,0.0,0.0,0.0,0.0,0.0,0.0,0.0,0.0,0.0,0.0,0.0,0.0,0.0,0.0,0.0,0.0,0.0,0.0,0.0,0.0,0.0,0.0,0.0,0.0,0.0,0.0,0.0,0.0,0.0,0.0,0.0,0.0,0.0,0.0,0.0,0.0,0.0,0.0,0.0,0.0,0.0,0.0,0.0,0.0,0.0,0.0,0.0,0.0,0.0,0.0,0.0,0.0,0.0,0.0,0.0,0.0,0.0,-0.465,-0.4947,-0.551,-0.622,-0.7074,-0.7544,-0.8071,-0.8752,0.0,0.0,0.0,0.0,0.0,0.0,0.0,0.0,0.0,0.0,0.0,0.0,0.0,0.0,0.0,0.0,0.0,0.0,0.0,0.0,0.0,0.0,0.0,0.0,0.0,0.0,0.0,0.0,0.0,0.0,0.0,0.0,0.0,0.0,0.0,0.0,0.0,0.0,0.0,0.0,0.0,0.0,0.0,0.0,0.0,0.0,0.0,0.0,0.0,0.0,0.0,0.0,0.0,0.0,0.0,0.0,0.0,0.0,0.0,0.0,0.0,0.0,0.0,0.0,0.0,0.0,0.0,0.0,0.0,0.0,0.0,0.0,0.0,0.0,0.0,0.0,0.0,0.0,0.0,0.0,0.0,0.0,0.0,0.0,0.0,0.0,0.0,0.0,0.0,0.0,0.0,0.0,0.0,0.0,0.0,0.0,0.0,0.0,0.0,0.0,0.0,0.0,0.0,0.0,-0.5049,-0.6049,-0.6237,-0.6812,-0.8054,-0.813,-0.8321,-0.8765,0.0,0.0,0.0,0.0,0.0,0.0,0.0,0.0,0.0,0.0,0.0,0.0,0.0,0.0,0.0,0.0,0.0,0.0,0.0,0.0,0.0,0.0,0.0,0.0,0.0,0.0,0.0,0.0,0.0,0.0,0.0,0.0,0.0,0.0,0.0,0.0,0.0,0.0,0.0,0.0,0.0,0.0,0.0,0.0,0.0,0.0,0.0,0.0,0.0,0.0,0.0,0.0,0.0,0.0,0.0,0.0,0.0,0.0,0.0,0.0,0.0,0.0,0.0,0.0,0.0,0.0,0.0,0.0,0.0,0.0,0.0,0.0,0.0,0.0,0.0,0.0,0.0,0.0,0.0,0.0,0.0,0.0,0.0,0.0,0.0,0.0,0.0,0.0,0.0,0.0,0.0,0.0,0.0,0.0,0.0,0.0,0.0,0.0,0.0,0.0,0.0,0.0,0.0,-0.4687,-0.5077,-0.5771,-0.6125,-0.667,-0.7607,-0.7903,-0.8248,-0.8765,-0.8232,0.0,0.0,0.0,0.0,0.0,0.0,0.0,0.0,0.0,0.0,0.0,0.0,0.0,0.0,0.0,0.0,0.0,0.0,0.0,0.0,0.0,0.0,0.0,0.0,0.0,0.0,0.0,0.0,0.0,0.0,0.0,0.0,0.0,0.0,0.0,0.0,0.0,0.0,0.0,0.0,0.0,0.0,0.0,0.0,0.0,0.0,0.0,0.0,0.0,0.0,0.0,0.0,0.0,0.0,0.0,0.0,0.0,0.0,0.0,0.0,0.0,0.0,0.0,0.0,0.0,0.0,0.0,0.0,0.0,0.0,0.0,0.0,0.0,0.0,0.0,0.0,0.0,0.0,0.0,0.0,0.0,0.0,0.0,0.0,0.0,0.0,0.0,0.0,0.0,0.0,0.0,0.0,0.0,0.0,0.0,0.0,0.0,0.0,0.0,0.0,0.0,0.0,-0.4921,-0.513,-0.5654,-0.6246,-0.6867,-0.7451,-0.8011,-0.85,-0.8871,-0.8272,0.0,0.0,0.0,0.0,0.0,0.0,0.0,0.0,0.0,0.0,0.0,0.0,0.0,0.0,0.0,0.0,0.0,0.0,0.0,0.0,0.0,0.0,0.0,0.0,0.0,0.0,0.0,0.0,0.0,0.0,0.0,0.0,0.0,0.0,0.0,0.0,0.0,0.0,0.0,0.0,0.0,0.0,0.0,0.0,0.0,0.0,0.0,0.0,0.0,0.0,0.0,0.0,0.0,0.0,0.0,0.0,0.0,0.0,0.0,0.0,0.0,0.0,0.0,0.0,0.0,0.0,0.0,0.0,0.0,0.0,0.0,0.0,0.0,0.0,0.0,0.0,0.0,0.0,0.0,0.0,0.0,0.0,0.0,0.0,0.0,0.0,0.0,0.0,0.0,0.0,0.0,0.0,0.0,0.0,0.0,0.0,0.0,0.0,0.0,0.0,0.0,0.0,-0.5002,-0.5495,-0.6506,-0.7363,-0.8101,-0.863,-0.9233,-0.9469,-0.9204,-0.8378,0.0,0.0,0.0,0.0,0.0,0.0,0.0,0.0,0.0,0.0,0.0,0.0,0.0,0.0,0.0,0.0,0.0,0.0,0.0,0.0,0.0,0.0,0.0,0.0,0.0,0.0,0.0,0.0,0.0,0.0,0.0,0.0,0.0,0.0,0.0,0.0,0.0,0.0,0.0,0.0,0.0,0.0,0.0,0.0,0.0,0.0,0.0,0.0,0.0,0.0,0.0,0.0,0.0,0.0,0.0,0.0,0.0,0.0,0.0,0.0,0.0,0.0,0.0,0.0,0.0,0.0,0.0,0.0,0.0,0.0,0.0,0.0,0.0,0.0,0.0,0.0,0.0,0.0,0.0,0.0,0.0,0.0,0.0,0.0,0.0,0.0,0.0,0.0,0.0,0.0,0.0,0.0,0.0,0.0,0.0,0.0,0.0,0.0,0.0,0.0,0.0,0.0,-0.5009,-0.5317,0.0,-0.6654,-0.7337,-0.7724,-0.8451,-0.8918,-0.8937,0.0,0.0,0.0,0.0,0.0,0.0,0.0,0.0,0.0,0.0,0.0,0.0,0.0,0.0,0.0,0.0,0.0,0.0,0.0,0.0,0.0,0.0,0.0,0.0,0.0,0.0,0.0,0.0,0.0,0.0,0.0,0.0,0.0,0.0,0.0,0.0,0.0,0.0,0.0,0.0,0.0,0.0,0.0,0.0,0.0,0.0,0.0,0.0,0.0,0.0,0.0,0.0,0.0,0.0,0.0,0.0,0.0,0.0,0.0,0.0,0.0,0.0,0.0,0.0,0.0,0.0,0.0,0.0,0.0,0.0,0.0,0.0,0.0,0.0,0.0,0.0,0.0,0.0,0.0,0.0,0.0,0.0,0.0,0.0,0.0,0.0,0.0,0.0,0.0,0.0,0.0,0.0,0.0,0.0,0.0,0.0,0.0,0.0,0.0,0.0,0.0,0.0,-0.4867,-0.5087,-0.5243,0.0,-0.6433,-0.7136,-0.7229,-0.8203,-0.8811,-0.8791,0.0,0.0,0.0,0.0,0.0,0.0,0.0,0.0,0.0,0.0,0.0,0.0,0.0,0.0,0.0,0.0,0.0,0.0,0.0,0.0,0.0,0.0,0.0,0.0,0.0,0.0,0.0,0.0,0.0,0.0,0.0,0.0,0.0,0.0,0.0,0.0,0.0,0.0,0.0,0.0,0.0,0.0,0.0,0.0,0.0,0.0,0.0,0.0,0.0,0.0,0.0,0.0,0.0,0.0,0.0,0.0,0.0,0.0,0.0,0.0,0.0,0.0,0.0,0.0,0.0,0.0,0.0,0.0,0.0,0.0,0.0,0.0,0.0,0.0,0.0,0.0,0.0,0.0,0.0,0.0,0.0,0.0,0.0,0.0,0.0,0.0,0.0,0.0,0.0,0.0,0.0,0.0,0.0,0.0,0.0,0.0,0.0,0.0,0.0,0.0,0.0,0.0,-0.4867,-0.5176,-0.5392,-0.5425,-0.6957,-0.7866,-0.755,-0.8842,-0.9432,0.0,0.0,0.0,0.0,0.0,0.0,0.0,0.0,0.0,0.0,0.0,0.0,0.0,0.0,0.0,0.0,0.0,0.0,0.0,0.0,0.0,0.0,0.0,0.0,0.0,0.0,0.0,0.0,0.0,0.0,0.0,0.0,0.0,0.0,0.0,0.0,0.0,0.0,0.0,0.0,0.0,0.0,0.0,0.0,0.0,0.0,0.0,0.0,0.0,0.0,0.0,0.0,0.0,0.0,0.0,0.0,0.0,0.0,0.0,0.0,0.0,0.0,0.0,0.0,0.0,0.0,0.0,0.0,0.0,0.0,0.0,0.0,0.0,0.0,0.0,0.0,0.0,0.0,0.0,0.0,0.0,0.0,0.0,0.0,0.0,0.0,0.0,0.0,0.0,0.0,0.0,0.0,0.0,0.0,0.0,0.0,0.0,0.0,0.0,0.0,0.0,0.0,0.0,-0.4867,-0.5176,-0.5624,-0.6235,-0.7113,-0.7788,-0.8102,-0.8895,-0.9125,-0.8537,0.0,0.0,0.0,0.0,0.0,0.0,0.0,0.0,0.0,0.0,0.0,0.0,0.0,0.0,0.0,0.0,0.0,0.0,0.0,0.0,0.0,0.0,0.0,0.0,0.0,0.0,0.0,0.0,0.0,0.0,0.0,0.0,0.0,0.0,0.0,0.0,0.0,0.0,0.0,0.0,0.0,0.0,0.0,0.0,0.0,0.0,0.0,0.0,0.0,0.0,0.0,0.0,0.0,0.0,0.0,0.0,0.0,0.0,0.0,0.0,0.0,0.0,0.0,0.0,0.0,0.0,0.0,0.0,0.0,0.0,0.0,0.0,0.0,0.0,0.0,0.0,0.0,0.0,0.0,0.0,0.0,0.0,0.0,0.0,0.0,0.0,0.0,0.0,0.0,0.0,0.0,0.0,0.0,0.0,0.0,0.0,0.0,0.0,0.0,0.0,0.0,0.0,-0.4854,-0.5121,-0.5589,-0.6415,-0.7106,-0.7685,-0.8149,-0.8821,-0.8911,-0.8243,0.0,0.0,0.0,0.0,0.0,0.0,0.0,0.0,0.0,0.0,0.0,0.0,0.0,0.0,0.0,0.0,0.0,0.0,0.0,0.0,0.0,0.0,0.0,0.0,0.0,0.0,0.0,0.0,0.0,0.0,0.0,0.0,0.0,0.0,0.0,0.0,0.0,0.0,0.0,0.0,0.0,0.0,0.0,0.0,0.0,0.0,0.0,0.0,0.0,0.0,0.0,0.0,0.0,0.0,0.0,0.0,0.0,0.0,0.0,0.0,0.0,0.0,0.0,0.0,0.0,0.0,0.0,0.0,0.0,0.0,0.0,0.0,0.0,0.0,0.0,0.0,0.0,0.0,0.0,0.0,0.0,0.0,0.0,0.0,0.0,0.0,0.0,0.0,0.0,0.0,0.0,0.0,0.0,0.0,0.0,0.0,0.0,0.0,0.0,0.0,0.0,0.0,-0.4833,-0.5009,-0.5413,-0.6218,-0.7013,-0.7602,-0.7988,-0.8722,-0.8818,-0.7992,0.0,0.0,0.0,0.0,0.0,0.0,0.0,0.0,0.0,0.0,0.0,0.0,0.0,0.0,0.0,0.0,0.0,0.0,0.0,0.0,0.0,0.0,0.0,0.0,0.0,0.0,0.0,0.0,0.0,0.0,0.0,0.0,0.0,0.0,0.0,0.0,0.0,0.0,0.0,0.0,0.0,0.0,0.0,0.0,0.0,0.0,0.0,0.0,0.0,0.0,0.0,0.0,0.0,0.0,0.0,0.0,0.0,0.0,0.0,0.0,-0.4863,-0.466,0.0,0.0,0.0,0.0,0.0,0.0,0.0,0.0,0.0,0.0,0.0,0.0,0.0,0.0,0.0,0.0,0.0,0.0,0.0,0.0,0.0,0.0,0.0,0.0,0.0,0.0,0.0,0.0,0.0,0.0,0.0,0.0,0.0,0.0,0.0,0.0,0.0,0.0,0.0,0.0,-0.4833,-0.5009,-0.5627,-0.7063,-0.7197,-0.7642,-0.8841,-0.8883,-0.8724,-0.831,-0.7852,0.0,0.0,0.0,0.0,0.0,0.0,0.0,0.0,0.0,0.0,0.0,0.0,0.0,0.0,0.0,0.0,0.0,0.0,0.0,0.0,0.0,0.0,0.0,0.0,0.0,0.0,0.0,0.0,0.0,0.0,0.0,0.0,0.0,0.0,0.0,0.0,0.0,0.0,0.0,0.0,0.0,0.0,0.0,0.0,0.0,0.0,0.0,0.0,0.0,0.0,0.0,0.0,0.0,0.0,0.0,0.0,0.0,0.0,0.0,-0.5101,-0.4945,0.0,0.0,0.0,0.0,0.0,0.0,0.0,0.0,0.0,0.0,0.0,0.0,0.0,0.0,0.0,0.0,0.0,0.0,0.0,0.0,0.0,0.0,0.0,0.0,0.0,0.0,0.0,0.0,0.0,0.0,0.0,0.0,0.0,0.0,0.0,0.0,0.0,0.0,0.0,0.0,-0.482,-0.4918,-0.5517,-0.7127,-0.7121,-0.7533,-0.8895,-0.8871,-0.8684,-0.8415,-0.8107,0.0,0.0,0.0,0.0,0.0,0.0,0.0,0.0,0.0,0.0,0.0,0.0,0.0,0.0,0.0,0.0,0.0,0.0,0.0,0.0,0.0,0.0,0.0,0.0,0.0,0.0,0.0,0.0,0.0,0.0,0.0,0.0,0.0,0.0,0.0,0.0,0.0,0.0,0.0,0.0,0.0,0.0,0.0,0.0,0.0,0.0,0.0,0.0,0.0,0.0,0.0,0.0,0.0,-0.523,-0.5631,-0.5631,-0.5576,-0.5638,-0.5725,-0.5386,-0.5332,-0.5412,-0.5108,0.0,0.0,0.0,0.0,0.0,0.0,0.0,0.0,0.0,0.0,0.0,0.0,0.0,0.0,0.0,0.0,0.0,0.0,0.0,0.0,0.0,0.0,-0.4728,-0.4728,-0.483,-0.485,-0.4627,0.0,0.0,0.0,0.0,0.0,0.0,0.0,0.0,0.0,0.0,0.0,-0.4809,-0.4769,-0.5312,-0.6895,-0.6962,-0.7405,-0.8699,-0.8804,-0.8711,-0.8496,-0.8429,-0.8067,0.0,0.0,0.0,0.0,0.0,0.0,0.0,0.0,0.0,0.0,0.0,0.0,0.0,0.0,0.0,0.0,0.0,0.0,0.0,0.0,0.0,0.0,0.0,0.0,0.0,0.0,0.0,0.0,0.0,0.0,0.0,0.0,0.0,0.0,0.0,0.0,0.0,0.0,0.0,0.0,0.0,0.0,0.0,0.0,0.0,0.0,0.0,-0.0563,-0.1753,-0.2734,-0.3831,-0.4977,-0.6011,-0.6525,-0.6519,-0.63,-0.6259,-0.6381,-0.6044,0.0,-0.5549,-0.5405,0.0,0.0,0.0,0.0,0.0,0.0,0.0,0.0,0.0,0.0,0.0,0.0,0.0,0.0,0.0,0.0,0.0,0.0,0.0,0.0,0.0,0.0,-0.4891,-0.4891,-0.4874,-0.4881,-0.487,-0.4633,-0.4389,-0.422,-0.4065,-0.3957,0.0,0.0,0.0,0.0,0.0,0.0,-0.468,-0.4701,-0.5266,-0.6778,-0.6919,-0.7405,-0.8699,-0.8804,-0.8791,-0.8751,-0.8536,-0.8348,-0.8228,-0.7482,0.0,0.0,0.0,0.0,0.0,0.0,0.0,0.0,0.0,0.0,0.0,0.0,0.0,0.0,0.0,0.0,0.0,0.0,0.0,0.0,0.0,0.0,0.0,0.0,0.0,0.0,0.0,0.0,0.0,0.0,0.0,0.0,0.0,0.0,0.0,0.0,0.0,0.0,0.0,0.0,0.0,0.0,0.0,0.0,0.0,-0.0845,-0.2629,-0.3077,-0.4204,-0.6021,-0.6461,-0.6702,-0.6695,-0.6566,-0.6532,-0.6504,-0.6335,-0.6159,-0.5986,-0.5747,-0.5521,-0.5372,0.0,0.0,0.0,0.0,-0.5189,-0.5029,-0.5237,-0.5196,-0.5098,-0.5047,0.0,0.0,0.0,0.0,0.0,0.0,0.0,-0.4816,-0.4816,-0.4894,-0.5009,-0.5009,-0.5108,-0.5142,-0.5022,-0.4931,-0.4748,-0.4429,-0.422,-0.4099,-0.4011,-0.3998,0.0,0.0,0.0,-0.4328,-0.4653,-0.4641,-0.518,-0.6719,-0.6799,-0.7291,-0.8685,-0.8804,-0.8804,-0.8804,-0.8684,-0.8576,-0.8402,-0.7989,-0.7535,0.0,0.0,0.0,0.0,0.0,0.0,0.0,0.0,0.0,0.0,0.0,0.0,0.0,0.0,0.0,0.0,0.0,0.0,0.0,0.0,0.0,0.0,0.0,0.0,0.0,0.0,0.0,0.0,0.0134,0.0,0.0,0.0,0.0,0.0,0.0,0.0,0.0,0.0,0.0,0.0,0.0,0.0,0.0,0.0,-0.1068,-0.3337,-0.3395,-0.4531,-0.681,-0.681,-0.681,-0.681,-0.6776,-0.6675,-0.6566,-0.6532,-0.6429,-0.6279,-0.5969,-0.58,-0.5684,-0.5569,-0.5406,-0.5299,-0.5562,-0.5501,-0.5305,-0.5562,-0.5549,-0.5433,-0.5284,-0.5164,-0.5056,-0.487,0.0,0.0,0.0,0.0,-0.4894,-0.4935,-0.5022,-0.511,-0.5182,-0.5277,-0.5365,-0.5216,-0.513,-0.4975,-0.4627,-0.4436,-0.4287,-0.4158,-0.4131,0.0,-0.426,0.0,-0.4355,-0.4606,-0.4559,-0.5025,-0.6407,-0.6569,-0.7128,-0.8407,-0.8699,-0.8804,-0.8804,-0.8804,-0.8711,-0.8523,-0.8442,-0.8016,-0.7246,0.0,0.0,0.0,0.0,0.0,0.0,0.0,0.0,0.0,0.0,0.0,0.0,0.0,0.0,0.0,0.0,0.0,0.0,0.0,0.0,0.0,0.0,0.0,0.0,0.0,0.0,0.0,0.0,0.0,0.0,0.0,0.0,0.0,0.0,0.0,0.0,0.0,0.0,0.0,0.0,0.0,0.0,0.0,-0.1145,-0.3581,-0.3588,-0.4759,-0.7071,-0.7071,-0.7071,-0.7071,-0.6937,-0.6831,-0.6681,-0.6532,-0.6429,-0.6286,-0.6084,-0.5979,-0.5952,-0.584,-0.5772,-0.5772,-0.5786,-0.5779,-0.5772,-0.5786,-0.5698,-0.5576,-0.5569,-0.5372,-0.5096,-0.5083,-0.4982,0.0,0.0,-0.4881,-0.4921,-0.5056,-0.5096,-0.5137,-0.5351,-0.5392,-0.5392,-0.5385,-0.5237,-0.5009,-0.4741,-0.4674,-0.4619,-0.4491,0.0,-0.447,-0.4477,-0.4477,-0.4484,-0.4498,-0.4498,-0.4767,-0.55,-0.6182,-0.6912,-0.7691,-0.8395,-0.8804,-0.8804,-0.8804,-0.8804,-0.8791,-0.8524,-0.8216,-0.7872,-0.7286,0.0,0.0,0.0,0.0,0.0,0.0,0.0,0.0,0.0,0.0,0.0,0.0,0.0,0.0,0.0,0.0,0.0,0.0,0.0,0.0,0.0,0.0,0.0,0.0,0.0,0.0,0.0,0.0,0.0,0.0,0.0,0.0,0.0,0.0,0.0,0.0,0.0,0.0,0.0,0.0,0.0,0.0,-0.1143,-0.3578,-0.3622,-0.4784,-0.7098,-0.7098,-0.7098,-0.7092,-0.7045,-0.6943,-0.6837,-0.6688,-0.6532,-0.6422,-0.624,-0.6179,-0.6173,-0.6156,-0.6037,-0.5962,-0.6064,-0.6037,-0.5912,-0.5912,-0.5915,-0.584,-0.565,-0.5447,-0.5257,-0.513,-0.5063,-0.5022,-0.5022,-0.5128,-0.5248,-0.5264,-0.5277,-0.5324,-0.5385,-0.5392,-0.5392,-0.5392,-0.5351,-0.5216,-0.5013,-0.4897,-0.4789,-0.4662,-0.4641,-0.4607,-0.4505,-0.4491,-0.4491,-0.4491,-0.4491,-0.4759,-0.5429,-0.5737,-0.6389,-0.7584,-0.7943,-0.8289,-0.8778,-0.8804,-0.8804,-0.8804,-0.8711,-0.843,-0.7912,-0.7522,-0.6955,0.0,0.0,0.0,0.0,0.0,0.0,0.0,0.0,0.0,0.0,0.0,0.0,0.0,0.0,0.0,0.0,0.0,0.0,0.0,0.0,0.0,0.0,0.0,0.0,0.0,0.0,0.0,0.0,0.0,0.0,0.0,0.0,0.0,0.0,0.0,0.0,0.0,0.0,0.0,0.0,0.0,-0.1165,-0.3568,-0.3616,-0.4772,-0.7098,-0.7098,-0.7098,-0.7098,-0.7098,-0.7018,-0.6883,-0.6824,-0.6661,-0.6504,-0.6409,-0.634,-0.63,-0.63,-0.6238,-0.6118,-0.6259,-0.6231,-0.6105,-0.6105,-0.6071,-0.5959,-0.58,-0.5637,-0.5528,-0.5386,-0.5292,-0.5251,-0.5251,-0.5325,-0.5392,-0.5392,-0.5392,-0.5392,-0.5392,-0.5392,-0.5392,-0.5392,-0.5392,-0.5365,-0.523,-0.5087,-0.4925,-0.4728,-0.4694,-0.4668,-0.4511,-0.4491,-0.4491,-0.4491,-0.4491,-0.4677,-0.5109,-0.5601,-0.6281,-0.7235,-0.7783,-0.8289,-0.8778,-0.8804,-0.8804,-0.8804,-0.8711,-0.843,-0.7912,-0.7428,-0.6881,-0.6196,0.0,0.0,0.0,0.0,0.0,0.0,0.0,0.0,0.0,0.0,0.0,0.0,0.0,0.0,0.0,0.0,0.0,0.0,0.0,0.0,0.0,0.0,0.0,0.1323,0.0504,0.0,0.0,0.0,0.0,0.0,0.0,0.0,0.0,0.0,0.0,0.0,0.0,0.0,0.0,0.0,-0.1121,-0.3527,-0.3568,-0.4772,-0.7054,-0.7098,-0.7098,-0.7098,-0.7098,-0.7018,-0.6896,-0.6889,-0.6763,-0.6525,-0.6518,-0.6429,-0.6306,-0.63,-0.63,-0.63,-0.63,-0.63,-0.63,-0.63,-0.6166,-0.6,-0.5993,-0.5928,-0.5806,-0.58,-0.5705,-0.5589,-0.5589,-0.5515,-0.5392,-0.5392,-0.5392,-0.5392,-0.5392,-0.5392,-0.5392,-0.5392,-0.5392,-0.5392,-0.5392,-0.5243,-0.5015,-0.4748,-0.4701,-0.4646,-0.4511,-0.4491,0.0,-0.4491,-0.4491,-0.4491,-0.4491,-0.5746,-0.6588,-0.6588,-0.7943,-0.8778,-0.8804,-0.8804,-0.8804,-0.8804,-0.8563,-0.8243,-0.7912,-0.7054,-0.6472,-0.6209,0.0,0.0,0.0,0.0,0.0,0.0,0.0,0.0,0.0,0.0,0.0,0.0,0.0,0.0,0.0,0.0,0.0,0.0,0.0,0.0,0.0,0.4328,0.3754,0.2557,0.102,0.0,0.0,0.0,0.0,0.0,0.0,0.0,0.0,0.0,0.0,0.0,0.0,0.0,0.0,0.0,-0.0718,-0.2281,-0.317,-0.4372,-0.5891,-0.6694,-0.7098,-0.7098,-0.7098,-0.7071,-0.7031,-0.693,-0.6836,-0.6783,-0.6566,-0.6491,-0.6443,-0.634,-0.63,-0.63,-0.63,-0.63,-0.63,-0.63,-0.6272,-0.6179,-0.6027,-0.5966,-0.5942,-0.5833,-0.5705,-0.5589,-0.5589,-0.5515,-0.5392,-0.5392,-0.5392,-0.5392,-0.5392,-0.5392,-0.5392,-0.5392,-0.5392,-0.5392,-0.5392,-0.5358,-0.5203,-0.4904,-0.4857,-0.4769,-0.4532,-0.4491,-0.4491,-0.4491,-0.4491,-0.4491,-0.4491,-0.5273,-0.6009,-0.6561,-0.745,-0.8235,-0.8752,-0.8804,-0.8804,-0.8804,-0.8738,-0.8444,-0.7912,-0.7233,-0.676,0.0,0.0,0.0,0.0,0.0,0.0,0.0,0.0,0.0,0.0,0.0,0.0,0.0,0.0,0.0,0.0,0.0,0.0,0.0,0.0,0.0,0.0,0.4988,0.4611,0.392,0.2032,0.0743,0.0757,0.0316,0.0,0.0,0.0,0.0,0.0,0.0,0.0,0.0,0.0,0.0,0.0,0.0,-0.0583,-0.1791,-0.2502,-0.3705,-0.5403,-0.6068,-0.665,-0.7098,-0.7098,-0.7098,-0.7092,-0.7011,-0.6943,-0.6869,-0.6668,-0.6573,-0.6497,0.0,0.0,0.0,0.0,-0.63,-0.63,-0.63,-0.63,-0.6286,-0.6159,-0.6125,-0.6112,-0.6023,-0.5895,-0.5759,-0.5698,-0.5576,-0.5474,-0.5412,-0.5392,-0.5392,-0.5392,-0.5392,-0.5392,-0.5392,-0.5392,-0.5392,-0.5392,-0.5392,0.0,-0.4972,-0.4887,-0.4816,-0.4539,-0.4491,-0.4491,-0.4491,-0.4491,-0.4491,-0.4491,-0.5382,-0.6145,-0.6561,-0.7557,0.0,0.0,0.0,-0.8751,-0.8631,-0.8631,0.0,0.0,0.0,0.0,0.0,0.0,0.0,0.0,-0.6325,-0.633,0.0,0.0,0.0,0.0,0.0,0.0,0.0,0.0,0.0,0.0,0.0,0.0,0.0,0.0,0.0,0.0,0.5882,0.5361,0.5372,0.3587,0.2175,0.2022,0.0972,0.0234,0.0238,0.0096,0.0,0.0,0.0,0.0,0.0,0.0,0.0,0.0,0.0,-0.0495,-0.1567,-0.1746,-0.2861,-0.5003,-0.527,-0.5935,-0.6915,-0.7054,-0.7098,-0.7098,-0.7098,-0.7024,-0.6896,-0.679,-0.6627,-0.6497,-0.6354,-0.63,-0.63,-0.63,-0.63,-0.63,-0.63,0.0,0.0,-0.63,-0.63,-0.63,-0.63,-0.6152,-0.5966,-0.5867,-0.5711,-0.5555,-0.5453,-0.5405,-0.5392,-0.5392,-0.5392,-0.5392,-0.5392,-0.5392,-0.5392,-0.5392,-0.5392,-0.5303,-0.4972,-0.4887,-0.4816,-0.4539,-0.4491,-0.4491,-0.4491,-0.4491,-0.4491,-0.4491,-0.5773,0.0,-0.6588,-0.7943,-0.8804,-0.8804,-0.8804,-0.8697,-0.8456,-0.8456,-0.8283,-0.7965,-0.7952,-0.7939,-0.7912,-0.7912,-0.7912,-0.7885,-0.6874,-0.666,0.0,0.0,0.0,0.0,0.0,0.0,0.0,0.0,0.0,0.0,0.0,0.0,0.0,0.0,0.0,0.681,0.6913,0.7002,0.7125,0.5917,0.4648,0.3549,0.234,0.1612,0.1618,0.0628,0.0,0.0,0.0,0.0,0.0,0.0,0.0,0.0,0.0,-0.0091,-0.0359,-0.1299,-0.2013,-0.2504,-0.4465,0.0,-0.5758,-0.6694,-0.7098,-0.7098,-0.7098,-0.7078,-0.7045,-0.6903,-0.6722,-0.6497,-0.6354,-0.63,-0.63,-0.63,-0.63,-0.63,-0.63,-0.63,-0.63,-0.63,-0.63,-0.63,-0.63,-0.6152,0.0,-0.5959,-0.5793,-0.5583,-0.5555,-0.5487,-0.5392,-0.5392,-0.5392,-0.5392,-0.5392,-0.5392,-0.5392,-0.5392,-0.5392,-0.5303,-0.4972,-0.4887,-0.4816,-0.4539,-0.4491,-0.4491,-0.4491,-0.4491,-0.4491,-0.4491,-0.5773,-0.6588,-0.6588,-0.7943,-0.8804,-0.8804,-0.8804,-0.8778,-0.8724,-0.8724,-0.8591,-0.8322,-0.8308,-0.8176,-0.7912,-0.7912,-0.7912,-0.7899,-0.7672,-0.7619,0.0,0.0,0.0,0.0,0.0,0.0,0.0,0.0,0.0,0.0,0.0,0.639,0.6424,0.0,0.7088,0.7238,0.7387,0.7509,0.759,0.713,0.6281,0.4939,0.3161,0.1986,0.2005,0.0791,0.0,0.0,0.0,0.0,0.0,0.0,0.0,0.0,0.0,0.0,0.0,-0.0583,-0.121,-0.1836,-0.304,-0.3931,-0.4554,-0.5714,-0.6251,-0.6296,-0.6871,-0.7098,-0.7085,-0.6943,-0.6749,-0.6504,-0.6436,-0.6361,-0.63,-0.63,-0.63,-0.63,-0.63,-0.63,-0.63,-0.63,-0.63,-0.63,-0.63,-0.6245,-0.6132,-0.6013,-0.5867,-0.5677,-0.561,-0.5508,-0.5392,-0.5392,-0.5392,-0.5392,-0.5392,-0.5392,-0.5392,-0.5392,-0.533,-0.5176,-0.4928,-0.4857,-0.4728,-0.4525,-0.4491,-0.4491,-0.4491,-0.4491,-0.4491,-0.4491,-0.5773,-0.6588,-0.6588,-0.7943,-0.8804,-0.8804,-0.8804,-0.8804,-0.8804,-0.8804,-0.8738,-0.8591,-0.8591,-0.851,-0.8338,-0.8338,-0.8338,-0.8338,-0.8338,-0.8272,0.0,0.0,0.0,0.0,0.0,0.0,0.0,0.0,0.6254,0.6477,0.6688,0.6905,0.7,0.7258,0.7495,0.7624,0.7665,0.7685,0.7685,0.778,0.7459,0.6333,0.3978,0.2275,0.2011,0.0806,0.0,0.0,0.0,0.0,0.0,0.0,0.0,0.0,0.0,0.0,0.0,0.0,-0.0494,-0.1433,-0.1701,-0.2325,-0.3304,-0.451,-0.5043,-0.5132,-0.6245,-0.6782,-0.6776,-0.6884,-0.679,-0.6559,-0.6559,-0.645,-0.63,-0.63,-0.63,-0.63,-0.63,-0.63,-0.63,-0.63,-0.63,-0.63,-0.63,-0.63,-0.6272,-0.6112,-0.5942,-0.5772,-0.5657,-0.5528,-0.5392,-0.5392,-0.5392,-0.5392,-0.5392,-0.5392,-0.5385,-0.5358,-0.5216,-0.5042,-0.4874,-0.4775,-0.4668,-0.4511,-0.4491,-0.4491,-0.4491,-0.4491,-0.4491,-0.4491,-0.5637,-0.6507,-0.6777,-0.8023,-0.8725,-0.8593,-0.8725,-0.8725,-0.8593,-0.8725,-0.8804,-0.8804,-0.8804,-0.8804,-0.8804,-0.8804,-0.8804,-0.8804,-0.8646,-0.8554,0.6051,0.5915,0.5922,0.634,0.6213,0.6202,0.0,0.0,0.6905,0.719,0.738,0.7461,0.7346,0.7563,0.7767,0.7787,0.7902,0.7941,0.7941,0.7955,0.7912,0.7763,0.5404,0.3307,0.2113,0.0806,0.0,0.0,0.0,0.0,0.0,0.0,0.0,0.0,0.0,0.0,0.0,0.0,-0.009,-0.0225,-0.13,-0.1878,-0.2057,-0.326,-0.3794,-0.3883,-0.5087,-0.5581,-0.5669,-0.6675,-0.6939,-0.6675,-0.6675,-0.6505,-0.63,-0.63,-0.63,-0.63,-0.63,-0.63,-0.63,-0.63,-0.63,-0.63,-0.63,-0.63,-0.6293,-0.6279,-0.6023,-0.58,-0.5779,-0.5603,-0.5392,-0.5392,-0.5392,-0.5392,-0.5392,-0.5392,-0.5351,-0.5182,-0.511,-0.5009,-0.4762,-0.4701,-0.4668,-0.4511,-0.4491,-0.4491,-0.4491,-0.4491,-0.4491,-0.4491,-0.5164,-0.6145,-0.7477,-0.8315,-0.8513,-0.7863,-0.8434,-0.8513,-0.7863,-0.8448,-0.8804,-0.8804,-0.8804,-0.8804,-0.8804,-0.8804,-0.8804,-0.8778,-0.8129,-0.817,0.6532,0.6444,0.0,0.0,0.6667,0.6755,0.7265,0.7278,0.7244,0.7461,0.7624,0.7706,0.7638,0.7801,0.7894,0.0,0.7948,0.7988,0.7988,0.7988,0.769,0.6936,0.5827,0.4622,0.3316,0.1962,0.0857,0.005,0.0,0.0,0.0,0.0,0.0,0.0,0.0,0.0,0.0,0.0,0.0,0.0,-0.0494,-0.0763,-0.0808,-0.2013,-0.2948,-0.3616,-0.415,-0.4372,-0.4461,-0.5625,-0.5924,-0.574,-0.6405,-0.6519,-0.63,-0.63,-0.63,-0.63,-0.63,-0.63,-0.63,-0.63,-0.63,-0.63,-0.63,-0.63,-0.63,-0.63,-0.6074,-0.58,-0.58,-0.5617,-0.5392,-0.5392,-0.5392,-0.5392,-0.5392,-0.5392,-0.5351,-0.513,-0.5029,-0.4908,-0.4728,-0.4648,-0.4566,-0.4498,-0.4491,-0.4491,-0.4491,-0.4491,-0.4656,-0.5027,-0.5328,-0.5919,-0.6966,-0.7343,-0.7396,-0.7074,-0.7343,-0.7369,-0.7074,-0.7771,-0.8156,-0.8156,-0.8593,-0.8804,-0.8804,-0.8804,-0.8593,-0.8156,-0.7836,-0.7637,0.6817,0.0,0.0,0.6896,0.7051,0.7251,0.7448,0.7495,0.7536,0.7692,0.7801,0.7875,0.7875,0.7914,0.7988,0.7988,0.7988,0.7988,0.7988,0.7988,0.764,0.6681,0.6498,0.5991,0.4668,0.3015,0.1611,0.0605,0.0202,0.0,0.0,0.0,0.0,0.0,0.0,0.0,0.0,0.0,0.0,0.0,0.0,0.0,-0.0045,-0.0896,-0.1791,-0.2635,-0.2948,-0.3126,-0.3215,-0.4421,-0.472,-0.4606,-0.5752,-0.6053,-0.5879,-0.6197,-0.63,-0.63,-0.63,-0.63,-0.63,-0.63,-0.63,-0.63,-0.63,-0.63,-0.63,-0.63,-0.6074,-0.58,-0.58,-0.5617,-0.5392,-0.5392,-0.5392,-0.5392,-0.5392,-0.5392,-0.5337,-0.5076,-0.4961,-0.4857,-0.466,-0.4566,-0.4491,-0.4491,-0.4491,-0.4491,-0.4491,-0.4491,-0.4677,-0.5164,-0.5374,-0.571,-0.6253,-0.648,-0.6507,-0.6308,-0.648,-0.6507,-0.6308,-0.702,-0.7477,-0.7691,-0.8235,-0.8593,-0.8804,-0.8593,-0.8209,-0.7691,-0.7289,-0.6912,0.0,0.0,0.677,0.7018,0.7251,0.7441,0.7733,0.7794,0.7841,0.7941,0.7982,0.7982,0.7982,0.7988,0.7988,0.7988,0.7988,0.7988,0.7988,0.7988,0.7988,0.7939,0.7811,0.7284,0.0,0.3569,0.1962,0.1962,0.0757,0.0,0.0,0.0,0.0,0.0,0.0,0.0,0.0,0.0,0.0,0.0,0.0,0.0,0.0,-0.0045,-0.009,-0.018,-0.1343,-0.1834,-0.1968,-0.317,-0.3571,-0.3542,-0.4564,-0.4874,-0.4879,-0.5918,-0.63,-0.63,-0.63,-0.63,-0.63,-0.63,-0.63,-0.63,-0.63,-0.63,-0.63,-0.63,-0.6074,-0.58,-0.58,-0.5617,-0.5392,-0.5392,-0.5392,-0.5392,-0.5392,-0.5392,-0.531,-0.4986,-0.4894,-0.4823,-0.4552,-0.4491,-0.4491,-0.4491,-0.4491,-0.4491,-0.4491,-0.4491,-0.4519,-0.4519,-0.5109,-0.5511,-0.5538,-0.6199,-0.629,-0.5565,-0.6199,-0.6281,-0.5565,-0.6253,-0.6966,-0.7691,-0.7717,-0.8076,-0.8804,-0.8076,-0.7717,-0.7664,-0.6217,-0.5928,0.0,0.0,0.7217,0.7509,0.7624,0.7719,0.7916,0.7914,0.7928,0.7982,0.7988,0.7988,0.7988,0.7988,0.7988,0.7988,0.7988,0.7988,0.7988,0.7988,0.7988,0.7988,0.7941,0.0,0.0,0.0,0.0,0.2061,0.0756,0.0,0.0,0.0,0.0,0.0,0.0,0.0,0.0,0.0,0.0,0.0,0.0,0.0,0.0,0.0,0.0,-0.0045,-0.0449,-0.0583,-0.0718,-0.1923,-0.2341,-0.2336,-0.3478,-0.4226,-0.4728,-0.5098,-0.5707,-0.63,-0.63,-0.63,-0.63,-0.63,-0.63,-0.63,-0.63,-0.63,-0.6279,-0.6139,-0.5962,-0.5779,-0.5684,-0.5549,-0.5392,-0.5392,-0.5392,-0.5392,-0.5392,-0.5392,-0.5303,-0.4979,-0.4887,-0.4823,-0.4545,-0.4491,-0.4491,-0.4491,-0.4491,-0.4491,-0.4491,-0.4491,-0.4491,-0.4491,-0.4704,-0.4842,-0.4842,-0.5062,-0.5089,-0.4842,-0.5062,-0.5089,-0.4842,-0.5492,-0.5982,-0.6244,-0.6713,-0.7101,-0.7343,-0.7101,-0.6713,-0.6217,-0.5728,-0.5628,0.7305,0.746,0.7509,0.7753,0.7848,0.7916,0.7968,0.7988,0.7988,0.7988,0.7948,0.7907,0.7907,0.7867,0.7847,0.7901,0.7907,0.7928,0.7982,0.7988,0.7988,0.7988,0.7941,0.7928,0.0,0.0,0.0,0.2812,0.146,0.0504,0.005,0.0,0.0,0.0,0.0,0.0,0.0,0.0,0.0,0.0,0.0,0.0,0.0,0.0,0.0,0.0,0.0,0.0,-0.0045,-0.0852,-0.1111,-0.1141,-0.2302,-0.3092,-0.3642,-0.3976,-0.4545,-0.5273,-0.6022,-0.63,-0.63,-0.63,-0.63,-0.63,-0.63,-0.63,-0.6279,-0.6139,-0.5962,-0.5779,-0.5691,-0.5549,-0.5392,-0.5392,-0.5392,-0.5392,-0.5392,-0.5392,-0.5303,-0.4979,-0.4887,-0.4823,-0.4545,-0.4491,-0.4491,-0.4491,-0.4491,-0.4491,-0.4491,-0.4491,-0.4491,-0.4491,-0.4491,-0.4491,-0.4491,-0.4491,-0.4491,-0.4491,-0.4491,-0.4491,-0.4491,-0.4924,-0.5246,-0.5483,-0.5955,-0.6344,-0.6588,-0.6344,-0.5955,-0.5483,-0.5246,-0.5136,0.7353,0.7502,0.7651,0.7787,0.788,0.7988,0.7988,0.7988,0.7988,0.7982,0.7916,0.7807,0.0,0.0,0.7651,0.778,0.7814,0.7875,0.7968,0.7988,0.7988,0.0,0.0,0.0,0.0,0.0,0.0,0.421,0.0,0.141,0.005,0.0,0.0,0.0,0.0,0.0,0.0,0.0,0.0,0.0,0.0,0.0,0.0,0.0,0.0,0.0,0.0,0.0,0.0,0.0,0.0,-0.009,-0.1139,-0.1541,-0.1713,-0.2657,-0.3071,-0.3398,-0.5434,-0.6183,-0.6222,-0.63,-0.63,-0.63,-0.63,-0.63,-0.63,-0.6293,-0.603,-0.58,-0.5793,-0.561,-0.5392,-0.5392,-0.5392,-0.5392,-0.5392,-0.5392,-0.531,-0.4986,-0.4887,-0.4809,-0.4539,-0.4491,-0.4491,-0.4491,-0.4491,-0.4491,-0.4491,-0.4491,-0.4491,-0.4491,-0.4491,-0.4491,-0.4491,-0.4491,-0.4491,-0.4491,-0.4491,-0.4491,-0.4491,-0.4491,-0.4787,-0.5429,-0.5464,-0.5792,-0.648,-0.5792,-0.5464,-0.5429,-0.4787,-0.4519,0.7658,0.7814,0.7887,0.7921,0.7961,0.7988,0.7988,0.7988,0.7961,0.7896,0.7834,0.7746,0.0,0.0,0.0,0.7665,0.7834,0.0,0.7982,0.7988,0.0,0.7988,0.0,0.7948,0.7988,0.7651,0.0,0.0,0.3318,0.141,0.005,0.0,0.0,0.0,0.0,0.0,0.0,0.0,0.0,0.0,0.0,0.0,0.0,0.0,0.0,0.0,0.0,0.0,0.0,0.0,0.0,-0.0045,-0.0313,-0.0913,-0.1633,-0.1873,-0.247,-0.3164,-0.3709,-0.4453,-0.5234,-0.6022,-0.63,-0.63,-0.63,-0.63,-0.6272,-0.6118,-0.5949,-0.5779,-0.5671,-0.5535,-0.5392,-0.5392,-0.5392,-0.5392,-0.5392,-0.5392,-0.5337,-0.5083,-0.4897,-0.4687,-0.4525,-0.4491,-0.4491,-0.4491,-0.4491,-0.4491,-0.4491,-0.4491,-0.4491,-0.4491,-0.4491,-0.4491,-0.4491,-0.4491,-0.4491,-0.4491,-0.4491,-0.4491,-0.4491,-0.4491,-0.4574,-0.4759,-0.4759,-0.4842,-0.5034,-0.4842,-0.4759,-0.4759,-0.4574,-0.4759,0.7868,0.7928,0.7988,0.7988,0.7988,0.7975,0.7907,0.7887,0.7875,0.7665,0.7617,0.0,0.0,0.0,0.0,0.0,0.0,0.0,0.7982,0.7988,0.7988,0.0,0.7988,0.0,0.7988,0.7988,0.7434,0.0,0.4067,0.2314,0.0958,0.0303,0.0,0.0,0.0,0.0,0.0,0.0,0.0,0.0,0.0,0.0,0.0,0.0,0.0,0.0,0.0,0.0,0.0,0.0,0.0,0.0,0.0,-0.0347,-0.088,-0.0914,-0.1253,-0.1799,-0.2267,-0.2852,-0.3519,-0.4569,-0.4885,-0.4885,-0.4885,-0.4885,-0.4985,-0.534,-0.526,-0.5099,-0.5133,-0.5248,-0.5292,-0.4888,-0.5093,-0.5392,-0.5392,-0.5392,-0.5351,-0.513,-0.4891,-0.466,-0.4607,-0.4532,-0.4491,-0.4491,-0.4491,-0.4491,-0.4491,-0.4491,-0.4491,-0.4491,-0.4491,-0.4491,-0.4491,-0.4491,-0.4491,-0.4491,-0.4491,-0.4491,-0.4491,-0.4491,-0.4491,-0.4491,-0.4491,-0.4491,-0.4491,-0.4491,-0.4491,-0.4491,-0.4491,-0.4704,0.7955,0.7988,0.7988,0.7988,0.7988,0.7948,0.7848,0.7794,0.7699,0.74,0.0,0.7231,0.6953,0.7143,0.7346,0.7412,0.0,0.7862,0.7968,0.7988,0.7988,0.7988,0.7988,0.7988,0.7988,0.7988,0.7534,0.6331,0.5022,0.3616,0.2063,0.0907,0.0202,0.0,0.0,0.0,0.0,0.0,0.0,0.0,0.0,0.0,0.0,0.0,0.0,0.0,0.0,0.0,0.0,0.0,0.0,0.0,0.0,0.0,0.0,0.0,0.0,-0.0118,-0.1058,-0.1372,-0.1568,-0.2735,-0.3083,-0.3083,-0.3083,-0.3083,-0.3281,-0.4219,-0.4265,-0.4065,-0.4241,-0.474,-0.502,-0.4184,-0.4722,-0.5392,-0.5392,-0.5392,-0.5351,-0.513,-0.4911,-0.4714,-0.4694,-0.4593,-0.4491,-0.4491,-0.4491,-0.4491,-0.4491,-0.4491,-0.4491,-0.4491,-0.4491,-0.4491,-0.4491,-0.4491,-0.4491,-0.4491,-0.4491,-0.4491,-0.4491,-0.4491,-0.4491,-0.4491,-0.4491,-0.4491,-0.4491,-0.4491,-0.4491,-0.4491,-0.4491,-0.4491,0.7982,0.7988,0.7988,0.7988,0.7988,0.7948,0.7848,0.7719,0.0,0.0,0.0,0.6953,0.677,0.698,0.7224,0.7398,0.0,0.0,0.0,0.0,0.7988,0.0,0.0,0.0,0.0,0.0,0.0,0.0,0.6431,0.4572,0.2113,0.1762,0.115,0.0049,0.0,0.0,0.0,0.0,0.0,0.0,0.0,0.0,0.0,0.0,0.0,0.0,0.0,0.0,0.0,0.0,0.0,0.0,0.0,0.0,0.0,0.0,0.0,-0.0039,-0.0196,-0.0275,-0.0588,-0.2501,-0.3083,-0.3083,-0.3083,-0.3083,-0.3122,-0.332,-0.3246,-0.3121,-0.3157,-0.3695,-0.4217,-0.4051,-0.4722,-0.5392,-0.5392,-0.5392,-0.5351,-0.513,-0.4961,-0.4843,-0.4714,-0.4593,-0.4491,-0.4491,-0.4491,-0.4491,-0.4491,-0.4491,-0.4491,-0.4491,-0.4491,-0.4491,-0.4491,-0.4491,-0.4491,-0.4491,-0.4491,-0.4491,-0.4491,-0.4491,-0.4491,-0.4491,-0.4491,-0.4491,-0.4491,-0.4491,-0.4491,-0.4491,-0.4491,-0.4491,0.7988,0.7988,0.7988,0.7988,0.7928,0.7862,0.7631,0.0,0.0,0.0,0.0,0.6742,0.6512,0.0,0.0,0.0,0.0,0.0,0.0,0.0,0.0,0.0,0.0,0.0,0.0,0.0,0.7988,0.7988,0.7385,0.6176,0.4171,0.2766,0.1398,0.0049,0.0,0.0,0.0,0.0,0.0,0.0,0.0,0.0,0.0,0.0,0.0,0.0,0.0,0.0,0.0,0.0,0.0,0.0,0.0,0.0,0.0,0.0,0.0,0.0,0.0,0.0,-0.0157,-0.1175,-0.1488,-0.1488,-0.1488,-0.1488,-0.1605,-0.215,-0.221,-0.2104,-0.2187,-0.2787,-0.3203,-0.272,-0.3647,-0.4821,-0.5292,-0.5392,-0.5371,-0.5264,-0.5128,-0.4955,-0.4836,-0.468,-0.458,-0.4505,-0.4491,-0.4491,-0.4491,-0.4491,-0.4491,-0.4491,-0.4491,-0.4491,-0.4491,-0.4491,-0.4491,-0.4491,-0.4491,-0.4491,-0.4491,-0.4491,-0.4491,-0.4491,-0.4491,-0.4491,-0.4491,-0.4491,-0.4491,-0.4491,-0.4491,-0.4491,0.7988,0.7988,0.7988,0.7988,0.7923,0.7733,0.7441,0.7231,0.0,0.0,0.6546,0.6546,0.6381,0.0,0.0,0.0,0.0,0.0,0.0,0.0,0.0,0.0,0.0,0.0,0.0,0.0,0.0,0.7988,0.7988,0.7434,0.6077,0.3469,0.15,0.0444,0.0145,0.0,0.0,0.0,0.0,0.0,0.0,0.0,0.0,0.0,0.0,0.0,0.0,0.0,0.0,0.0,0.0,0.0,0.0,0.0,0.0,0.0,0.0,0.0,0.0,0.0,0.0,0.0,0.0,0.0,0.0,0.0,-0.0157,-0.1019,-0.1155,-0.1052,-0.1208,-0.1816,-0.2253,-0.172,-0.2676,-0.3913,-0.4655,-0.4954,-0.5093,-0.5093,-0.4951,-0.4828,-0.4877,-0.4614,-0.4428,-0.4484,-0.4491,-0.4491,-0.4491,-0.4491,-0.4491,-0.4491,-0.4491,-0.4491,-0.4491,-0.4491,-0.4491,-0.4491,-0.4491,-0.4491,-0.4491,-0.4491,-0.4491,-0.4491,-0.4491,-0.4491,-0.4491,-0.4491,-0.4491,-0.4491,-0.4491,-0.4491,0.7988,0.7988,0.7988,0.7988,0.7923,0.7733,0.7441,0.0,0.0,0.6579,0.6422,0.6375,0.647,0.6525,0.0,0.0,0.0,0.0,0.0,0.0,0.0,0.0,0.0,0.0,0.0,0.0,0.0,0.7988,0.7988,0.7434,0.6077,0.3469,0.196,0.1808,0.0631,0.0,0.0,0.0,0.0,0.0,0.0,0.0,0.0,0.0,0.0,0.0,0.0,0.0,0.0,0.0,0.0,0.0,0.0,0.0,0.0,0.0,0.0,0.0,0.0,0.0,0.0,0.0,0.0,0.0,0.0,0.0,-0.0039,-0.0118,-0.0116,-0.0113,-0.0147,-0.0785,-0.1629,-0.2394,-0.2709,-0.2843,-0.2943,-0.358,-0.4118,-0.4118,-0.4009,-0.4131,-0.4796,-0.4088,-0.3666,-0.438,-0.4491,-0.4491,-0.4491,-0.4491,-0.4491,-0.4491,-0.4491,-0.4491,-0.4491,-0.4491,-0.4491,-0.4491,-0.4491,-0.4491,-0.4491,-0.4491,-0.4491,-0.4491,-0.4491,-0.4491,-0.4491,-0.4491,-0.4491,-0.4491,-0.4491,-0.4491,0.7968,0.7988,0.7988,0.7988,0.7862,0.7604,0.7299,0.0,0.6709,0.645,0.634,0.632,0.6375,0.6381,0.6504,0.0,0.0,0.0,0.0,0.0,0.0,0.0,0.0,0.0,0.0,0.0,0.7988,0.7988,0.7988,0.7789,0.7235,0.4668,0.2814,0.2012,0.068,0.0,0.0,0.0,0.0,0.0,0.0,0.0,0.0,0.0,0.0,0.0,0.0,0.0,0.0,0.0,0.0,0.0,0.0,0.0,0.0,0.0,0.0,0.0,0.0,0.0,0.0,0.0,0.0,0.0,0.0,0.0,0.0,0.0,0.0,0.0,0.0,-0.0247,-0.0749,-0.1647,-0.1841,-0.2008,-0.2576,-0.298,-0.3213,-0.3213,-0.3176,-0.3197,-0.3421,-0.3112,-0.2882,-0.3077,-0.3123,-0.3123,-0.3123,-0.3123,-0.3123,-0.3123,-0.3959,-0.4491,-0.4491,-0.4491,-0.4491,-0.4491,-0.4491,-0.4491,-0.4491,-0.4491,-0.4491,-0.4491,-0.4491,-0.4491,-0.4491,-0.4491,-0.4491,-0.4491,-0.4491,-0.4491,0.7948,0.7988,0.7988,0.7988,0.7821,0.7516,0.0,0.0,0.6614,0.6361,0.63,0.63,0.63,0.63,0.6381,0.0,0.0,0.0,0.0,0.0,0.0,0.0,0.0,0.0,0.0,0.7961,0.7988,0.7988,0.7988,0.7988,0.7988,0.5822,0.3957,0.2645,0.1308,0.038,0.0,0.0,0.0,0.0,0.0,0.0,0.0,0.0,0.0,0.0,0.0,0.0,0.0,0.0,0.0,0.0,0.0,0.0,0.0,0.0,0.0,0.0,0.0,0.0,0.0,0.0,0.0,0.0,0.0,0.0,0.0,0.0,0.0,0.0,0.0,0.0,-0.0169,-0.0772,-0.0906,-0.1108,-0.1743,-0.2111,-0.2275,-0.2275,-0.2274,-0.2328,-0.2468,-0.2258,-0.2123,-0.2184,-0.2202,-0.2202,-0.2202,-0.2202,-0.2202,-0.2202,-0.3178,-0.3904,-0.4125,-0.4346,-0.4491,-0.4491,-0.4491,-0.4491,-0.4491,-0.4491,-0.4491,-0.4491,-0.4491,-0.4491,-0.4491,-0.4491,-0.4491,-0.4491,-0.4491,-0.4491,0.7948,0.7988,0.7988,0.7988,0.7821,0.7516,0.0,0.6912,0.6614,0.6361,0.63,0.63,0.63,0.63,0.6347,0.6491,0.0,0.0,0.0,0.0,0.0,0.0,0.0,0.0,0.0,0.7901,0.7988,0.7988,0.7988,0.0,0.7988,0.6731,0.5381,0.4013,0.269,0.1321,0.0,0.0,0.0,0.0,0.0,0.0,0.0,0.0,0.0,0.0,0.0,0.0,0.0,0.0,0.0,0.0,0.0,0.0,0.0,0.0,0.0,0.0,0.0,0.0,0.0,0.0,0.0,0.0,0.0,0.0,0.0,0.0,0.0,0.0,0.0,0.0,0.0,0.0,0.0,0.0,-0.0034,-0.0705,-0.1307,-0.1307,-0.1313,-0.157,-0.2366,-0.1721,-0.1369,-0.2091,-0.2202,-0.2202,-0.2202,-0.2202,-0.2202,-0.2202,-0.2202,-0.2508,-0.3262,-0.4042,-0.4491,-0.4491,-0.4491,-0.4491,-0.4491,-0.4491,-0.4491,-0.4491,-0.4491,-0.4491,-0.4491,-0.4491,-0.4491,-0.4491,-0.4491,-0.4491,0.7699,0.7807,0.7862,0.776,0.759,0.7366,0.7024,0.6844,0.6614,0.6361,0.63,0.63,0.63,0.63,0.6416,0.6729,0.6824,0.0,0.0,0.0,0.0,0.0,0.0,0.0,0.0,0.0,0.7988,0.7988,0.7988,0.7988,0.7988,0.7584,0.6723,0.5275,0.3122,0.1745,0.1247,0.1223,0.121,0.1255,0.2057,0.2459,0.2459,0.2459,0.2013,0.121,0.121,0.0756,0.0,0.0,0.0,0.0,0.0,0.0,0.0,0.0,0.0,0.0,0.0,0.0,0.0,0.0,0.0,0.0,0.0,0.0,0.0,0.0,0.0,0.0,0.0,0.0,0.0,0.0,0.0,0.0,0.0,-0.0202,-0.0404,-0.0404,-0.0418,-0.0494,-0.0739,-0.0555,-0.042,-0.0672,-0.07,-0.07,-0.07,-0.07,-0.07,-0.07,-0.1146,-0.1952,-0.3206,-0.3539,-0.3904,-0.4463,-0.4491,-0.4491,-0.4491,-0.4491,-0.4491,-0.4491,-0.4491,-0.4491,-0.4491,-0.4491,-0.4491,-0.4491,-0.4491,-0.4491,0.0,0.7624,0.7712,0.7624,0.7441,0.7224,0.6943,0.6763,0.6546,0.6347,0.63,0.63,0.63,0.63,0.6388,0.6634,0.677,0.0,0.0,0.0,0.0,0.0,0.0,0.0,0.0,0.7988,0.7988,0.7988,0.7988,0.7988,0.7988,0.7988,0.755,0.6528,0.449,0.314,0.2508,0.2476,0.2457,0.2502,0.326,0.3616,0.3616,0.3616,0.317,0.2457,0.1995,0.1362,0.0,0.0168,0.0,0.0,0.0,0.0,0.0,0.0,0.0,0.0,0.0,0.0,0.0,0.0,0.0,0.0,0.0,0.0,0.0,0.0,0.0,0.0,0.0,0.0,0.0,0.0,0.0,0.0,0.0,0.0,0.0,0.0,0.0,0.0,0.0,0.0,0.0,0.0,0.0,0.0,0.0,0.0,0.0,0.0,-0.042,-0.1174,-0.2369,-0.298,-0.3511,-0.4015,-0.4319,-0.4491,-0.4491,-0.4491,-0.4491,-0.4491,-0.4491,-0.4491,-0.4491,-0.4491,-0.4491,-0.4491,-0.4491,-0.4491,0.0,0.7428,0.755,0.7536,0.7319,0.7024,0.6883,0.6675,0.0,0.6327,0.63,0.6306,0.6313,0.6306,0.6313,0.6354,0.6546,0.0,0.0,0.0,0.0,0.0,0.0,0.0,0.7975,0.7988,0.7988,0.7988,0.7988,0.7988,0.7988,0.7982,0.7847,0.7611,0.6491,0.5203,0.3749,0.3749,0.3749,0.3749,0.3794,0.3838,0.3838,0.3831,0.3787,0.3653,0.2529,0.1947,0.1728,0.058,0.0081,0.0,0.0,0.0,0.0,0.0,0.0,0.0,0.0,0.0,0.0,0.0,0.0,0.0,0.0,0.0,0.0,0.0,0.0,0.0,0.0,0.0,0.0,0.0,0.0,0.0,0.0,0.0,0.0,0.0,0.0,0.0,0.0,0.0,0.0,0.0,0.0,0.0,0.0,0.0,0.0,0.0,0.0,-0.028,-0.095,-0.2313,-0.3178,-0.3289,-0.3959,-0.438,-0.4491,-0.4436,-0.4436,-0.4491,-0.4491,-0.4491,-0.4491,-0.4491,-0.4491,-0.4491,-0.4491,-0.4491,0.6695,0.0,0.7054,0.6939,0.6858,0.6763,0.0,0.6566,0.647,0.0,0.0,0.0,0.6443,0.6375,0.645,0.6858,0.0,0.7021,0.0,0.0,0.0,0.0,0.7961,0.7948,0.7988,0.7988,0.7988,0.7988,0.7988,0.7988,0.7988,0.788,0.778,0.7604,0.7204,0.6366,0.4999,0.4954,0.4954,0.4999,0.5847,0.629,0.6284,0.6188,0.5714,0.4945,0.4419,0.3284,0.1771,0.1365,0.0732,0.0,0.0,0.0,0.0,0.0,0.0,0.0,0.0,0.0,0.0,0.0,0.0,0.0,0.0,0.0,0.0,0.0,0.0,0.0,0.0,0.0,0.0,0.0,0.0,0.0,0.0,0.0,0.0,0.0,0.0,0.0,0.0,0.0,0.0,0.0,0.0,0.0,0.0,0.0,0.0,0.0,0.0,-0.0084,-0.0252,-0.109,-0.2091,-0.3234,-0.2952,-0.3262,-0.4463,-0.3904,-0.3871,-0.4491,-0.4491,-0.4491,-0.4491,-0.4491,-0.4491,-0.4491,-0.4491,-0.4491,0.6416,0.6647,0.6869,0.6824,0.6756,0.6681,0.6593,0.0,0.0,0.0,0.0,0.0,0.0,0.0,0.0,0.0,0.6885,0.0,0.0,0.0,0.0,0.0,0.7988,0.7988,0.0,0.7988,0.7988,0.7988,0.7988,0.7961,0.7887,0.7855,0.7712,0.7502,0.7414,0.7021,0.6207,0.6163,0.6163,0.6207,0.6782,0.7098,0.7092,0.7018,0.6718,0.6145,0.5331,0.434,0.3271,0.2559,0.1953,0.1435,0.1417,0.1137,0.0746,0.0746,0.0432,0.0,0.0,0.0,0.0,0.0,0.0,0.0,0.0,0.0,0.0,0.0,0.0,0.0,0.0,0.0,0.0,0.0,0.0,0.0,0.0,0.0,0.0,0.0,0.0,0.0,0.0,0.0,0.0,0.0,0.0,0.0,0.0,0.0,0.0,0.0,0.0,0.0,0.0,-0.0364,-0.109,-0.223,-0.223,-0.2563,-0.34,-0.3345,-0.3677,-0.4491,-0.4491,-0.4491,-0.4491,-0.4491,-0.4491,-0.4491,-0.4491,-0.4491,0.6354,0.662,0.6869,0.6844,0.6749,0.6661,0.6641,0.0,0.0,0.0,0.0,0.0,0.0,0.0,0.0,0.0,0.0,0.0,0.0,0.0,0.0,0.0,0.7988,0.0,0.7988,0.7988,0.7988,0.7988,0.7988,0.7921,0.7821,0.7787,0.7651,0.7426,0.7346,0.7272,0.7098,0.7098,0.7098,0.7098,0.7098,0.7098,0.7098,0.7071,0.7078,0.7034,0.5822,0.525,0.4997,0.3822,0.3239,0.3083,0.3083,0.2579,0.184,0.184,0.1254,0.047,0.047,0.047,0.0432,0.0275,0.0235,0.0196,0.0039,0.0,0.0,0.0,0.0,0.0,0.0,0.0,0.0,0.0,0.0,0.0,0.0,0.0,0.0,0.0,0.0,0.0,0.0,0.0,0.0,0.0,0.0,0.0,0.0,0.0,0.0,0.0,0.0,0.0,0.0,0.0,-0.028,-0.0894,-0.1506,-0.1924,-0.2035,-0.273,-0.3456,-0.4125,-0.4153,-0.4208,-0.4325,-0.4325,-0.438,-0.4491,-0.4491,-0.4491,0.6566,0.6776,0.6837,0.6458,0.6477,0.6518,0.6395,0.0,0.0,0.0,0.0,0.0,0.0,0.0,0.0,0.0,0.0,0.0,0.0,0.0,0.7896,0.7975,0.0,0.7988,0.7988,0.7988,0.7988,0.7988,0.7988,0.7921,0.7821,0.7699,0.755,0.7419,0.7244,0.7119,0.7098,0.7098,0.7098,0.7098,0.7098,0.7098,0.7092,0.697,0.6984,0.7071,0.6523,0.5834,0.5085,0.4619,0.3904,0.3083,0.3083,0.3005,0.2852,0.2852,0.2774,0.2618,0.2618,0.2618,0.2501,0.1644,0.1372,0.1176,0.0275,0.0,0.0,0.0,0.0,0.0,0.0,0.0,0.0,0.0,0.0,0.0,0.0,0.0,0.0,0.0,0.0,0.0,0.0,0.0,0.0,0.0,0.0,0.0,0.0,0.0,0.0,0.0,0.0,0.0,0.0,0.0,-0.0056,-0.0168,-0.028,-0.0616,-0.1229,-0.198,-0.2425,-0.2563,-0.2563,-0.2869,-0.3483,-0.3483,-0.3849,-0.4491,-0.4491,-0.4491,0.6463,0.6573,0.6634,0.6463,0.6607,0.6797,0.6654,0.0,0.0,0.0,0.0,0.0,0.0,0.0,0.0,0.0,0.0,0.774,0.7801,0.7882,0.7914,0.0,0.0,0.7988,0.7988,0.7988,0.7988,0.7988,0.7988,0.7887,0.7706,0.7638,0.7489,0.7251,0.7132,0.7098,0.7098,0.7098,0.7098,0.7098,0.7098,0.7098,0.7092,0.7031,0.7038,0.7078,0.6756,0.6346,0.5965,0.5659,0.5273,0.4841,0.4841,0.4491,0.3904,0.332,0.3083,0.3083,0.3083,0.3083,0.3005,0.2579,0.2423,0.2228,0.1176,0.0855,0.0725,0.0147,0.0,0.0,0.0,0.0,0.0,0.0,0.0,0.0,0.0,0.0,0.0,0.0,0.0,0.0,0.0,0.0,0.0,0.0,0.0,0.0,0.0,0.0,0.0,0.0,0.0,0.0,0.0,0.0,0.0,0.0,0.0,-0.0336,-0.1062,-0.1425,-0.1785,-0.2202,-0.2202,-0.2369,-0.2702,-0.3151,-0.3539,-0.3871,-0.4291,-0.4491,0.6381,0.6484,0.6613,0.6891,0.0,0.693,0.6896,0.0,0.0,0.0,0.0,0.0,0.0,0.0,0.0,0.0,0.7773,0.7862,0.7862,0.7914,0.7988,0.7988,0.7988,0.7988,0.7988,0.7988,0.7988,0.7988,0.7955,0.7875,0.7611,0.7563,0.7421,0.7105,0.7098,0.7098,0.7098,0.7098,0.7098,0.7098,0.7098,0.7098,0.7098,0.7098,0.7098,0.7078,0.6831,0.6702,0.6675,0.6422,0.63,0.63,0.63,0.5789,0.4963,0.4137,0.3865,0.3865,0.3865,0.3865,0.3826,0.3554,0.3476,0.3281,0.227,0.1925,0.1728,0.0916,0.0508,0.025,0.0068,0.0,0.0,0.0,0.0,0.0,0.0,0.0,0.0,0.0,0.0,0.0,0.0,0.0,0.0,0.0,0.0,0.0,0.0,0.0,0.0,0.0,0.0,0.0,0.0,0.0,0.0,0.0,0.0,-0.0252,-0.081,-0.0838,-0.1118,-0.1673,-0.1676,-0.1757,-0.1952,-0.2563,-0.3012,-0.3317,-0.3959,-0.4325,0.6593,0.6675,0.6923,0.7984,0.0,0.0,0.6865,0.681,0.0,0.0,0.0,0.0,0.0,0.0,0.0,0.0,0.7874,0.7975,0.7975,0.0,0.7988,0.7988,0.7988,0.7988,0.7988,0.7988,0.7988,0.7988,0.7909,0.776,0.7611,0.7461,0.7312,0.7098,0.7098,0.7098,0.7098,0.7098,0.7098,0.7098,0.7098,0.7098,0.7098,0.7098,0.7098,0.7078,0.6831,0.6702,0.6675,0.6422,0.63,0.63,0.63,0.6261,0.6183,0.6099,0.606,0.606,0.606,0.606,0.5906,0.4924,0.4569,0.4375,0.332,0.2921,0.2778,0.2706,0.1963,0.1011,0.0204,0.0,0.0,0.0,0.0,0.0,0.0,0.0,0.0,0.0,0.0,0.0,0.0,0.0,0.0,0.0,0.0,0.0,0.0,0.0,0.0,0.0,0.0,0.0,0.0,0.0,0.0,0.0,0.0,-0.0028,-0.0084,-0.0084,-0.0112,-0.0168,-0.0168,-0.0504,-0.1174,-0.1229,-0.198,-0.3317,-0.3428,-0.3849,0.6436,0.6532,0.6879,0.8098,0.0,0.0,0.0,0.0,0.0,0.0,0.0,0.0,0.0,0.0,0.0,0.7945,0.9291,0.9846,0.8237,0.8726,0.8924,0.8088,0.7988,0.7988,0.7988,0.7988,0.7948,0.7902,0.7841,0.7706,0.7468,0.7446,0.7299,0.7098,0.7098,0.7098,0.7098,0.7098,0.7098,0.7098,0.7098,0.7098,0.7098,0.7098,0.7051,0.6957,0.679,0.6647,0.6539,0.6381,0.63,0.63,0.63,0.63,0.63,0.63,0.63,0.63,0.63,0.63,0.6222,0.5828,0.5705,0.5494,0.4332,0.3938,0.373,0.2995,0.2466,0.1968,0.1043,0.0404,0.0,0.0,0.0,0.0,0.0,0.0,0.0,0.0,0.0,0.0,0.0,0.0,0.0,0.0,0.0,0.0,0.0,0.0,0.0,0.0,0.0,0.0,0.0,0.0,0.0,0.0,0.0,0.0,0.0,0.0,0.0,0.0,0.0,-0.014,-0.042,-0.0866,-0.1397,-0.1952,-0.2896,-0.3483,0.6313,0.6402,0.6772,0.0,0.0,0.0,0.0,0.0,0.0,0.0,0.0,0.0,0.0,0.0,0.0,0.0,1.0642,1.1268,0.946,0.9993,1.0239,0.9361,0.9213,0.9213,0.9213,0.9166,0.9081,0.8956,0.8855,0.8645,0.8458,0.8087,0.7826,0.7665,0.7312,0.7098,0.7098,0.7098,0.7098,0.7098,0.7098,0.7098,0.7092,0.7051,0.6977,0.6876,0.6715,0.6566,0.6504,0.6361,0.63,0.63,0.63,0.63,0.63,0.63,0.63,0.63,0.63,0.63,0.63,0.63,0.63,0.615,0.5237,0.4956,0.4723,0.3862,0.3385,0.298,0.2309,0.1508,0.0773,0.0471,0.0404,0.0337,0.0067,0.0,0.0,0.0,0.0,0.0,0.0,0.0,0.0,0.0,0.0,0.0,0.0,0.0,0.0,0.0,0.0,0.0,0.0,0.0,0.0,0.0,0.0,0.0,0.0,0.0,0.0,0.0,0.0,0.0,0.0,-0.0504,-0.0866,-0.1118,-0.2147,-0.273,0.6334,0.6402,0.6751,0.0,0.0,0.0,0.0,0.0,0.0,0.0,0.0,0.0,1.0014,0.0,0.0,1.167,1.1847,1.195,1.1901,1.1901,1.1901,1.1901,1.1901,1.1901,1.1891,1.1642,1.1502,1.1492,1.1055,1.0815,1.0815,0.9605,0.8938,0.8938,0.7753,0.7136,0.7098,0.7098,0.7098,0.7098,0.7098,0.7098,0.7092,0.695,0.6883,0.6869,0.6607,0.6511,0.6497,0.6361,0.63,0.63,0.63,0.63,0.63,0.63,0.63,0.63,0.63,0.63,0.63,0.63,0.63,0.6272,0.6078,0.5922,0.5772,0.563,0.4823,0.4018,0.4018,0.338,0.2476,0.154,0.1307,0.1073,0.0202,0.0,0.0,0.0,0.0,0.0,0.0,0.0,0.0,0.0,0.0,0.0,0.0,0.0,0.0,0.0,0.0,0.0,0.0,0.0,0.0,0.0,0.0,0.0,0.0,0.0,0.0,0.0,0.0,0.0,0.0,0.0,-0.0364,-0.109,-0.109,-0.1478,0.6166,0.6363,0.0,0.0,0.0,0.0,0.0,0.0,0.0,0.0,0.0,1.2716,1.139,0.0,0.0,1.1863,1.3376,1.398,1.2145,1.2716,1.2958,1.1999,1.1901,1.1831,1.1622,1.1542,1.1371,1.1025,1.0885,1.0746,1.0673,1.0299,1.0096,1.0096,0.9749,0.9183,0.8368,0.8368,0.7929,0.7098,0.7098,0.7098,0.7092,0.695,0.6829,0.6756,0.6559,0.6457,0.6361,0.632,0.63,0.63,0.63,0.63,0.63,0.63,0.63,0.63,0.63,0.63,0.63,0.63,0.63,0.6272,0.6078,0.5959,0.5908,0.5657,0.5383,0.5114,0.5019,0.4788,0.4217,0.2643,0.1774,0.124,0.0974,0.0437,0.0,0.0,0.0,0.0,0.0,0.0,0.0,0.0,0.0,0.0,0.0,0.0,0.0,0.0,0.0,0.0,0.0,0.0,0.0,0.0,0.0,0.0,0.0,0.0,0.0,0.0,0.0,0.0,0.0,0.0,-0.0112,-0.0336,-0.0866,-0.1229,0.6315,0.0,0.0,0.0,0.0,0.0,0.0,0.0,0.0,0.0,0.0,1.3471,1.2702,1.3649,0.0,1.3472,1.4694,1.5248,1.3692,1.4172,1.4364,1.3547,1.336,1.3235,1.3076,1.2836,1.2553,1.2303,1.2146,1.2076,1.2003,1.1563,1.1295,1.1295,1.0821,1.0053,0.8894,0.9366,0.8755,0.7098,0.7577,0.7548,0.7011,0.6862,0.679,0.6688,0.6518,0.6381,0.63,0.63,0.63,0.63,0.63,0.63,0.63,0.63,0.63,0.63,0.63,0.63,0.63,0.63,0.63,0.6272,0.6078,0.5993,0.5932,0.5671,0.5589,0.5555,0.5433,0.5392,0.5027,0.358,0.2776,0.2275,0.1941,0.114,0.0504,0.0504,0.0236,0.0,0.0,0.0,0.0,0.0,0.0,0.0,0.0,0.0,0.0,0.0,0.0,0.0,0.0,0.0,0.0,0.0,0.0,0.0,0.0,0.0,0.0,0.0,0.0,0.0,0.0,0.0,0.0,0.0,-0.0448,-0.0672,0.0,0.0,0.0,0.0,0.0,0.0,0.0,0.0,0.0,0.0,0.0,1.3543,1.3837,1.4747,1.5524,1.5744,1.5784,1.5784,1.5784,1.5784,1.5771,1.5792,1.5565,1.5378,1.5324,1.483,1.4509,1.4482,1.4242,1.4082,1.4082,1.3069,1.2462,1.2462,1.1466,1.0356,0.9235,1.0226,0.9566,0.7268,0.8352,0.8178,0.6883,0.677,0.6688,0.6647,0.6416,0.63,0.63,0.63,0.63,0.63,0.63,0.63,0.63,0.63,0.63,0.63,0.63,0.63,0.63,0.63,0.63,0.6272,0.6091,0.6013,0.5989,0.5711,0.5616,0.5576,0.5453,0.5405,0.5193,0.4317,0.4051,0.378,0.298,0.2075,0.1406,0.1307,0.0672,0.0101,0.0,0.0,0.0,0.0,0.0,0.0,0.0,0.0,0.0,0.0,0.0,0.0,0.0,0.0,0.0,0.0,0.0,0.0,0.0,0.0,0.0,0.0,0.0,0.0,0.0,0.0,0.0,0.0,0.0,0.0,0.0,0.0,0.0,0.0,0.0,0.0,0.0,0.0,0.0,0.0,1.3634,1.3802,1.3861,1.4899,1.5704,1.5771,1.5784,1.5784,1.5784,1.5784,1.5704,1.5511,1.5431,1.5217,1.475,1.4589,1.4429,1.4202,1.4122,1.4082,1.4082,1.3857,1.3688,1.3688,1.3476,1.2772,1.1595,1.1809,1.0778,0.8492,0.8656,0.8103,0.6883,0.677,0.6573,0.6388,0.6327,0.63,0.63,0.63,0.63,0.63,0.63,0.63,0.63,0.63,0.63,0.63,0.63,0.63,0.63,0.63,0.63,0.6293,0.6259,0.6252,0.6173,0.5989,0.5847,0.5725,0.5576,0.5487,0.5359,0.516,0.455,0.3946,0.3747,0.3009,0.2175,0.1441,0.114,0.0806,0.0101,0.0,0.0,0.0,0.0,0.0,0.0,0.0,0.0,0.0,0.0,0.0,0.0,0.0,0.0,0.0,0.0,0.0,0.0,0.0,0.0,0.0,0.0,0.0,0.0,0.0,0.0,0.0,0.0,0.0,0.0,0.0,0.0,0.0,0.0,0.0,0.0,0.0,0.0,0.0,1.3054,1.4076,1.4711,1.5343,1.5784,1.5784,1.5784,1.5784,1.5784,1.5784,1.5725,1.5431,1.5271,1.5017,1.4563,1.4389,1.4255,1.4095,1.4082,1.4082,1.4082,1.4082,1.4082,1.4082,1.4082,1.3519,1.2322,1.2857,1.1992,0.9705,1.0087,0.9257,0.7398,0.6873,0.6511,0.63,0.63,0.63,0.63,0.63,0.63,0.63,0.63,0.63,0.63,0.63,0.63,0.63,0.63,0.63,0.63,0.63,0.63,0.63,0.63,0.63,0.6265,0.6071,0.5932,0.5861,0.5644,0.5562,0.5487,0.5412,0.5027,0.4688,0.4688,0.3946,0.318,0.2676,0.2242,0.1843,0.1376,0.0906,0.0471,0.0067,0.0,0.0,0.0,0.0,0.0,0.0,0.0,0.0,0.0,0.0,0.0,0.0,0.0,0.0,0.0,0.0,0.0,0.0,0.0,0.0,0.0,0.0,0.0,0.0,0.0,0.0,0.0,0.0,0.0,0.0,0.0,0.0,0.0,0.0,0.0,0.0,1.2037,1.3884,1.4949,1.5486,1.5758,1.5718,1.5744,1.5792,1.5698,1.5678,1.5631,1.5284,1.503,1.4776,1.4469,1.4229,1.4082,1.4082,1.4082,1.4082,1.4082,1.4082,1.4082,1.4082,1.4082,1.3603,1.2632,1.3603,1.3039,1.0907,1.1349,1.0314,0.7919,0.7098,0.6566,0.63,0.63,0.63,0.63,0.63,0.63,0.63,0.63,0.63,0.63,0.63,0.63,0.63,0.63,0.63,0.63,0.63,0.63,0.63,0.63,0.63,0.6272,0.6105,0.6013,0.5932,0.5698,0.561,0.5549,0.5433,0.5392,0.5392,0.5392,0.4788,0.4184,0.4018,0.3313,0.2709,0.2709,0.1908,0.1039,0.0337,0.0101,0.0,0.0,0.0,0.0,0.0,0.0,0.0,0.0,0.0,0.0,0.0,0.0,0.0,0.0,0.0,0.0,0.0,0.0,0.0,0.0,0.0,0.0,0.0,0.0,0.0,0.0,0.0,0.0,0.0,0.0,0.0,0.0,0.0,0.0,0.0,1.1901,1.2242,1.2387,1.4268,1.5704,1.5498,1.5671,1.5658,1.515,1.5297,1.5244,1.4696,1.4603,1.4469,1.4175,1.4108,1.4082,1.4082,1.4082,1.4082,1.4082,1.4082,1.4082,1.4082,1.4082,1.3997,1.387,1.3997,1.3421,1.2066,1.076,0.9358,0.7821,0.7705,0.7157,0.63,0.63,0.63,0.63,0.63,0.63,0.63,0.63,0.63,0.63,0.63,0.63,0.63,0.63,0.63,0.63,0.63,0.63,0.63,0.63,0.63,0.6293,0.6272,0.6132,0.5952,0.582,0.5684,0.5549,0.5433,0.5392,0.5392,0.5392,0.5292,0.4987,0.4151,0.3313,0.2709,0.2709,0.1908,0.1274,0.114,0.0471,0.0,0.0,0.0,0.0,0.0,0.0,0.0,0.0,0.0,0.0,0.0,0.0,0.0,0.0,0.0,0.0,0.0,0.0,0.0,0.0,0.0,0.0,0.0,0.0,0.0,0.0,0.0,0.0,0.0,0.0,0.0,0.0,0.0,0.0,0.9608,1.025,1.1163,1.2743,1.3814,1.4671,1.5325,1.5364,1.5257,1.5048,1.5115,1.5003,1.4576,1.4522,1.4402,1.4122,1.4082,1.4082,1.4082,1.4082,1.4082,1.4082,1.4082,1.4082,1.4082,1.4082,1.4082,1.4082,1.4082,1.3658,1.2785,1.1335,1.0218,0.9432,0.8313,0.7249,0.63,0.63,0.63,0.63,0.63,0.63,0.63,0.63,0.63,0.63,0.63,0.63,0.63,0.63,0.63,0.63,0.63,0.63,0.63,0.63,0.63,0.63,0.63,0.6252,0.6105,0.5861,0.5752,0.565,0.5446,0.5392,0.5392,0.5392,0.5392,0.5292,0.4855,0.4483,0.4051,0.3513,0.308,0.2643,0.2142,0.1307,0.0739,0.0739,0.0303,0.0,0.0,0.0,0.0,0.0,0.0,0.0,0.0,0.0,0.0,0.0,0.0,0.0,0.0,0.0,0.0,0.0,0.0,0.0,0.0,0.0,0.0,0.0,0.0,0.0,0.0,0.0,0.0,0.0,0.0,0.7934,0.0,0.8631,0.9966,1.2347,1.3098,1.3656,1.4571,1.4908,1.4955,1.4807,1.4847,1.4736,1.4442,1.4416,1.4322,1.4108,1.4082,1.4082,1.4082,1.4082,1.4082,1.4082,1.4082,1.4082,1.4082,1.4082,1.4082,1.4082,1.4015,1.3681,1.3093,1.2067,1.1321,1.0746,0.9253,0.7893,0.6679,0.6416,0.63,0.63,0.63,0.63,0.63,0.63,0.63,0.63,0.63,0.63,0.63,0.63,0.63,0.63,0.63,0.63,0.63,0.63,0.63,0.63,0.63,0.6272,0.6139,0.5874,0.5772,0.5684,0.5453,0.5392,0.5392,0.5392,0.5392,0.5392,0.5392,0.5392,0.5193,0.4483,0.4151,0.378,0.3113,0.2242,0.164,0.164,0.0873,0.0337,0.0337,0.0135,0.0,0.0,0.0,0.0,0.0,0.0,0.0,0.0,0.0,0.0,0.0,0.0,0.0,0.0,0.0,0.0,0.0,0.0,0.0,0.0,0.0,0.0,0.0,0.0,0.0,0.0,0.0,0.0,0.7821,0.7753,0.8121,0.9499,1.1625,1.3152,1.2981,1.4097,1.4821,1.4215,1.4376,1.4429,1.4148,1.4108,1.4108,1.4082,1.4082,1.4082,1.4082,1.4082,1.4082,1.4082,1.4082,1.4082,1.4082,1.4082,1.4082,1.4082,1.376,1.336,1.2811,1.2759,1.2043,1.0783,1.0671,0.9583,0.7672,0.6718,0.63,0.63,0.63,0.63,0.63,0.63,0.63,0.63,0.63,0.63,0.63,0.63,0.63,0.63,0.63,0.63,0.63,0.63,0.63,0.63,0.63,0.6152,0.5966,0.584,0.5698,0.5562,0.5433,0.5392,0.5392,0.5392,0.5392,0.5392,0.5392,0.5392,0.5392,0.5326,0.4589,0.3979,0.3946,0.318,0.2609,0.2609,0.181,0.124,0.124,0.0504,0.0,0.0,0.0,0.0,0.0,0.0,0.0,0.0,0.0,0.0,0.0,0.0,0.0,0.0,0.0,0.0,0.0,0.0,0.0,0.0,0.0,0.0,0.0,0.0,0.0,0.0,0.0,0.7678,0.7678,0.7556,0.7632,0.8085,1.0076,1.1892,1.2689,1.3735,1.4322,1.4122,1.4175,1.4202,1.4095,1.4082,1.4082,1.4082,1.4082,1.4082,1.4082,1.4082,1.4082,1.4082,1.4082,1.4082,1.4082,1.4082,1.4001,1.376,1.3467,1.316,1.2784,1.2596,1.2212,1.1737,1.1081,1.0034,0.8694,0.771,0.6911,0.63,0.63,0.63,0.63,0.63,0.63,0.63,0.63,0.63,0.63,0.63,0.63,0.63,0.63,0.63,0.63,0.63,0.63,0.63,0.63,0.6259,0.6118,0.5867,0.5766,0.5664,0.5453,0.5392,0.5392,0.5392,0.5392,0.5392,0.5392,0.5392,0.5392,0.5392,0.5126,0.4888,0.4888,0.4118,0.3547,0.3547,0.2743,0.2209,0.2209,0.1374,0.0839,0.0839,0.0337,0.0,0.0,0.0,0.0,0.0,0.0,0.0,0.0,0.0,0.0,0.0,0.0,0.0,0.0,0.0,0.0,0.565,0.0,0.0,0.0,0.0,0.0,0.0,0.0,0.7461,0.7509,0.74,0.7292,0.7292,0.8849,1.0573,1.1838,1.2881,1.3646,1.4039,1.4082,1.4082,1.4082,1.4082,1.4082,1.4082,1.4082,1.4082,1.4082,1.4082,1.4082,1.4082,1.4082,1.4082,1.4082,1.3988,1.3801,1.3467,1.32,1.2906,1.2636,1.2398,1.2305,1.2268,1.1613,1.0757,0.9782,0.9102,0.7855,0.63,0.63,0.63,0.63,0.63,0.63,0.63,0.63,0.63,0.63,0.63,0.63,0.63,0.63,0.63,0.63,0.63,0.63,0.63,0.63,0.6259,0.6139,0.5928,0.5806,0.5671,0.5453,0.5392,0.5392,0.5392,0.5392,0.5392,0.5392,0.5392,0.5392,0.5392,0.5392,0.5392,0.5392,0.4855,0.4483,0.4483,0.368,0.3147,0.3147,0.2309,0.1774,0.1774,0.094,0.0437,0.0437,0.0169,0.0,0.0,0.0,0.0,0.0,0.0,0.0,0.0,0.0,0.0,0.0,0.0,0.0,0.0,0.0,0.0,0.0,0.0,0.0,0.0,0.0,0.7119,0.7326,0.7238,0.7085,0.7092,0.8061,0.9235,1.0356,1.1509,1.2717,1.387,1.4082,1.4082,1.4082,1.4082,1.4082,1.4082,1.4082,1.4082,1.4082,1.4082,1.4082,1.4082,1.4082,1.4082,1.4082,1.376,1.3453,1.32,1.2931,1.2636,1.2305,1.2305,1.2305,1.2305,1.2305,1.1737,1.0783,1.0783,0.9092,0.6338,0.6338,0.6338,0.63,0.63,0.63,0.63,0.63,0.63,0.63,0.63,0.63,0.63,0.63,0.63,0.63,0.63,0.63,0.63,0.63,0.6152,0.6,0.5993,0.5813,0.5555,0.544,0.5399,0.5399,0.5399,0.5392,0.5392,0.5392,0.5392,0.5392,0.5392,0.5392,0.5392,0.5392,0.5392,0.5392,0.5392,0.4622,0.4051,0.4051,0.3247,0.2743,0.2743,0.1874,0.1341,0.1341,0.0538,0.0067,0.0067,0.0067,0.0034,0.0034,0.0,0.0,0.0,0.0,0.0,0.0,0.0,0.0,0.5453,0.0,0.0,0.0,0.0,0.0,0.0,0.0,0.6607,0.6973,0.6932,0.6885,0.7058,0.7356,0.7973,0.9192,1.1037,1.2419,1.276,1.3561,1.4082,1.4082,1.4082,1.4082,1.4082,1.4082,1.4082,1.4082,1.4082,1.4082,1.4082,1.4082,1.3988,1.3733,1.3653,1.34,1.2918,1.2824,1.2636,1.2305,1.2305,1.2305,1.2305,1.2305,1.1737,1.0783,1.0783,0.9508,0.7403,0.7403,0.6949,0.63,0.63,0.63,0.63,0.63,0.63,0.63,0.63,0.63,0.63,0.63,0.63,0.63,0.63,0.63,0.63,0.63,0.6272,0.6173,0.602,0.5888,0.5705,0.5562,0.5562,0.5528,0.5419,0.5392,0.5392,0.5392,0.5392,0.5392,0.5392,0.5392,0.5392,0.5392,0.5392,0.5392,0.5392,0.516,0.5027,0.5027,0.4184,0.3647,0.3647,0.2809,0.2309,0.2309,0.2078,0.1944,0.1944,0.1307,0.094,0.094,0.0337,0.0,0.0,0.0,0.0,0.0,0.0,0.0,0.0,0.0,0.0,0.0,0.0,0.0,0.6306,0.634,0.6429,0.0,0.6858,0.6865,0.7051,0.7098,0.7312,0.8017,0.9705,1.1037,1.1509,1.2601,1.3336,1.3336,1.3773,1.4082,1.4082,1.4082,1.4082,1.4082,1.4082,1.4082,1.4082,1.3975,1.3773,1.3613,1.34,1.3106,1.2784,1.2663,1.2478,1.2305,1.2305,1.2305,1.2305,1.2305,1.1959,1.1428,1.1428,1.0271,0.8428,0.8428,0.7595,0.63,0.63,0.63,0.63,0.63,0.63,0.63,0.63,0.63,0.63,0.63,0.63,0.63,0.63,0.63,0.63,0.63,0.63,0.6265,0.6071,0.5925,0.5861,0.5711,0.5677,0.565,0.5597,0.5576,0.5542,0.5419,0.5392,0.5392,0.5392,0.5392,0.5392,0.5392,0.5392,0.5392,0.5392,0.5392,0.5392,0.5392,0.4921,0.4589,0.4589,0.3747,0.3247,0.3247,0.2909,0.2709,0.2709,0.2175,0.1874,0.1874,0.1376,0.0941,0.0538,0.0168,0.0,0.0,0.0,0.0,0.0,0.0,0.0,0.0,0.0,0.0,0.6354,0.634,0.6368,0.0,0.6775,0.6815,0.6991,0.7024,0.7031,0.7045,0.7979,0.9078,1.026,1.1381,1.2109,1.2109,1.3167,1.3913,1.3913,1.3997,1.4082,1.4082,1.4082,1.4082,1.4082,1.376,1.3586,1.356,1.3039,1.277,1.273,1.2502,1.2331,1.2305,1.2331,1.2331,1.2305,1.2305,1.2305,1.2305,1.2305,1.1205,0.9442,0.9329,0.8122,0.63,0.63,0.63,0.63,0.63,0.63,0.63,0.63,0.63,0.63,0.63,0.63,0.63,0.63,0.63,0.63,0.63,0.63,0.6265,0.6091,0.602,0.6017,0.5861,0.5827,0.582,0.5806,0.58,0.5725,0.5494,0.5433,0.5419,0.5419,0.5405,0.5392,0.5392,0.5392,0.5392,0.5392,0.5392,0.5392,0.5392,0.5392,0.5392,0.5392,0.4616,0.4151,0.4151,0.3413,0.3013,0.3013,0.2909,0.2843,0.2843,0.2746,0.2275,0.1441,0.0471,0.0,0.0,0.0,0.0,0.0,0.0,0.0,0.0,0.0,0.0,0.5969,0.5908,0.5949,0.0,0.6105,0.6139,0.6532,0.66,0.6641,0.6763,0.7055,0.7735,0.9043,1.0226,1.0907,1.0907,1.1949,1.2632,1.2632,1.3519,1.4082,1.4082,1.4082,1.4082,1.4082,1.376,1.3493,1.3267,1.2985,1.2663,1.2385,1.261,1.2583,1.2305,1.2583,1.2569,1.2305,1.2305,1.2305,1.2305,1.2305,1.1626,1.0447,0.9631,0.8122,0.63,0.63,0.63,0.63,0.63,0.63,0.63,0.63,0.63,0.63,0.63,0.63,0.63,0.63,0.63,0.63,0.63,0.63,0.6293,0.6259,0.6252,0.6179,0.6023,0.5946,0.5912,0.5827,0.58,0.5786,0.5725,0.5623,0.5549,0.5549,0.5474,0.5392,0.5392,0.5392,0.5392,0.5392,0.5392,0.5392,0.5392,0.5392,0.5392,0.5392,0.5226,0.5126,0.5126,0.4954,0.4888,0.4888,0.4151,0.3747,0.3747,0.3043,0.2609,0.2409,0.0807,0.0,0.0,0.0,0.0,0.0,0.0,0.0,0.6179,0.0,0.0,0.0,0.5908,0.5888,0.6186,0.6071,0.603,0.6443,0.6457,0.6457,0.6566,0.6715,0.7049,0.7715,0.894,0.9749,0.9749,1.1252,1.2279,1.2279,1.3379,1.4082,1.4082,1.4082,1.4082,1.4082,1.3667,1.332,1.3213,1.2772,1.2452,1.2305,1.2489,1.2489,1.2305,1.2452,1.2452,1.2305,1.2305,1.2305,1.2305,1.2305,1.1737,1.0746,1.026,0.8874,0.6988,0.6493,0.63,0.63,0.63,0.63,0.63,0.63,0.63,0.63,0.63,0.63,0.63,0.63,0.63,0.63,0.63,0.63,0.63,0.63,0.63,0.6279,0.6166,0.6146,0.6125,0.6044,0.603,0.603,0.603,0.5908,0.5786,0.5705,0.5576,0.5535,0.5603,0.5487,0.5426,0.5501,0.544,0.5392,0.5392,0.5467,0.5481,0.5399,0.5528,0.5549,0.5405,0.5467,0.5474,0.5399,0.4954,0.4688,0.4688,0.3813,0.3347,0.3347,0.2011,0.1108,0.0639,0.0202,0.0,0.0,0.0,0.0,0.0,0.0,0.6202,0.0,0.0,0.0,0.0,0.0,0.0,0.0,0.0,0.0,0.6361,0.0,0.0,0.0,0.7682,0.0,0.8733,1.0469,1.1798,1.2178,1.3252,1.3961,1.4082,1.3975,1.3961,1.4082,1.3587,1.3293,1.3293,1.2705,1.2385,1.2385,1.2385,1.2358,1.2305,1.2358,1.2358,1.2305,1.2305,1.2305,1.2305,1.2305,1.1848,1.1093,1.0895,0.9847,0.8275,0.7057,0.6493,0.63,0.63,0.63,0.63,0.63,0.63,0.63,0.63,0.63,0.63,0.63,0.63,0.63,0.63,0.63,0.63,0.63,0.63,0.63,0.63,0.63,0.63,0.63,0.63,0.63,0.63,0.6159,0.6023,0.5874,0.5725,0.5671,0.5786,0.5596,0.5528,0.5616,0.5556,0.5481,0.5481,0.559,0.5583,0.5487,0.5664,0.5698,0.5494,0.5562,0.5562,0.5446,0.5412,0.5392,0.5392,0.4655,0.4284,0.4284,0.338,0.2376,0.1274,0.0572,0.0169,0.0,0.0,0.0,0.0,0.6831,0.0,0.0,0.0,0.6149,0.5759,0.0,0.0,0.0,0.0,0.0,0.0,0.0,0.0,0.6347,0.661,0.7163,0.8164,0.8854,0.9976,1.1755,1.2794,1.352,1.4041,1.3601,1.3534,1.4055,1.3733,1.3547,1.3547,1.3013,1.273,1.273,1.273,1.2596,1.2305,1.261,1.2596,1.2305,1.2305,1.2305,1.2305,1.2305,1.2231,1.207,1.1168,1.0671,1.026,0.838,0.7096,0.63,0.63,0.63,0.63,0.63,0.63,0.63,0.63,0.63,0.63,0.63,0.63,0.63,0.63,0.63,0.63,0.63,0.63,0.63,0.63,0.63,0.63,0.63,0.63,0.63,0.63,0.6286,0.6186,0.5993,0.5881,0.5779,0.58,0.5772,0.5759,0.5772,0.5766,0.5752,0.5752,0.5766,0.5772,0.5752,0.5779,0.5786,0.5752,0.5766,0.5711,0.5569,0.5467,0.5392,0.5392,0.5292,0.5226,0.5226,0.4317,0.298,0.1307,0.1207,0.0739,0.0,0.0,0.0,0.0,0.0,0.0,0.6376,0.0,0.5962,0.0,0.0,0.0,0.0,0.0,0.0,0.0,0.5854,0.0,0.0,0.0,0.6828,0.8049,0.0,0.0,1.241,1.2988,1.3387,1.3801,1.344,1.3387,1.3801,1.3666,1.36,1.36,1.3092,1.2784,1.2784,1.261,1.2425,1.2305,1.2425,1.2425,1.2305,1.2305,1.2305,1.2305,1.2305,1.2305,1.2268,1.1848,1.1316,1.0708,0.9884,0.8571,0.7103,0.6525,0.63,0.63,0.63,0.63,0.63,0.63,0.63,0.63,0.63,0.63,0.63,0.63,0.63,0.63,0.63,0.63,0.63,0.63,0.63,0.63,0.63,0.63,0.63,0.63,0.63,0.6279,0.6173,0.6037,0.5962,0.6088,0.5915,0.5833,0.5922,0.5854,0.58,0.58,0.5881,0.5895,0.5806,0.5962,0.5989,0.5813,0.58,0.5739,0.5596,0.5562,0.5487,0.5399,0.5392,0.5392,0.5392,0.4987,0.4151,0.2843,0.2342,0.1609,0.7101,0.0,0.0,0.0,0.0,0.0,0.0,0.6159,0.5996,0.0,0.0,0.0,0.0,0.0,0.0,0.0,0.0,0.5833,0.0,0.5972,0.0,0.0,0.0,0.0,0.0,1.2622,1.3026,1.3453,1.3106,1.308,1.3573,1.36,1.364,1.372,1.3267,1.3038,1.3038,1.2612,1.2425,1.2425,1.2345,1.2305,1.2305,1.2305,1.2305,1.2305,1.2305,1.2305,1.2305,1.2305,1.1885,1.1168,1.0895,0.9922,0.8456,0.7173,0.6532,0.63,0.63,0.63,0.63,0.63,0.63,0.63,0.63,0.63,0.63,0.63,0.63,0.63,0.63,0.63,0.63,0.63,0.63,0.63,0.63,0.63,0.63,0.63,0.63,0.63,0.63,0.6166,0.6132,0.6279,0.6108,0.5969,0.6078,0.5996,0.5928,0.5928,0.6023,0.6051,0.5935,0.617,0.6204,0.5942,0.5888,0.582,0.5711,0.563,0.5535,0.546,0.5419,0.5392,0.5392,0.5392,0.506,0.435,0.348,0.2576,0.0,0.8489,0.0,0.714,0.681,0.6728,0.6141,0.6254,0.6369,0.6054,0.6247,0.0,0.0,0.0,0.0,0.0,0.0,0.0,0.0,0.0,0.0,0.0,0.0,0.0,0.0,1.119,1.2315,1.316,1.2412,1.2425,1.3547,1.36,1.3733,1.4068,1.3733,1.3573,1.3573,1.3065,1.277,1.277,1.2476,1.2305,1.2305,1.2305,1.2305,1.2305,1.2305,1.2305,1.2305,1.2305,1.2268,1.2157,1.1168,1.0746,1.0447,0.8494,0.7134,0.63,0.63,0.63,0.63,0.63,0.63,0.63,0.63,0.63,0.63,0.63,0.63,0.63,0.63,0.63,0.63,0.63,0.63,0.63,0.63,0.63,0.63,0.63,0.63,0.63,0.63,0.6293,0.6293,0.63,0.6293,0.6286,0.6293,0.6286,0.6286,0.6286,0.6286,0.6293,0.6286,0.6293,0.6293,0.6286,0.6105,0.5986,0.5979,0.5739,0.5589,0.5583,0.5474,0.5392,0.5392,0.5392,0.5392,0.5326,0.4384,0.348,0.9824,0.9941,0.9469,0.8503,0.8319,0.797,0.651,0.6375,0.639,0.6054,0.6268,0.647,0.0,0.0,0.0,0.0,0.0,0.0,0.0,0.0,0.0,0.0,0.0,0.0,0.0,0.0,1.1564,1.2548,1.2543,1.2663,1.3065,1.3614,1.3895,1.376,1.3653,1.36,1.36,1.3253,1.2985,1.2784,1.2677,1.2492,1.2305,1.2305,1.2305,1.2305,1.2305,1.2305,1.2305,1.2305,1.2305,1.2268,1.1922,1.1391,1.0559,0.8533,0.7595,0.7211,0.6532,0.63,0.63,0.63,0.63,0.63,0.63,0.63,0.63,0.63,0.63,0.63,0.63,0.63,0.63,0.63,0.63,0.63,0.63,0.63,0.63,0.63,0.63,0.63,0.63,0.63,0.63,0.63,0.63,0.63,0.63,0.63,0.63,0.63,0.63,0.63,0.63,0.63,0.63,0.63,0.6252,0.6139,0.5993,0.5899,0.5786,0.5596,0.5542,0.5494,0.5392,0.5392,0.5392,0.5392,0.5093,0.445,1.1275,1.1355,1.096,1.0079,0.9904,0.9407,0.7532,0.7288,0.7371,0.71,0.6855,0.6999,0.0,0.0,0.0,0.0,0.0,0.0,0.0,0.5453,0.0,0.0,0.0,0.0,0.0,0.0,1.0695,1.1699,1.2002,0.0,0.0,1.34,1.3734,1.36,1.3706,1.3706,1.36,1.3413,1.316,1.2784,1.2784,1.2623,1.2305,1.2305,1.2305,1.2305,1.2305,1.2305,1.2305,1.2305,1.2305,1.2305,1.2305,1.1885,1.113,0.947,0.8428,0.7702,0.7065,0.6602,0.63,0.63,0.63,0.63,0.63,0.63,0.63,0.63,0.63,0.63,0.63,0.63,0.63,0.63,0.63,0.63,0.63,0.63,0.63,0.63,0.63,0.63,0.63,0.63,0.63,0.63,0.63,0.63,0.63,0.63,0.63,0.63,0.63,0.63,0.63,0.63,0.63,0.63,0.63,0.6252,0.6118,0.602,0.5905,0.5752,0.5691,0.5589,0.5474,0.5474,0.5446,0.5392,0.5392,0.5093]}]]